[[{"header":{"parameterUnit":"m.s-1","parameterCategory":1,"la1":30.6,"la2":29.2853,"lo1":-89.7004,"lo2":-87.6739,"dy":0.0162,"dx":0.0183,"nx":112,"ny":82,"refTime":"2026-04-02T12:00:00:Z","depth":0,"parameterNumber":2,"parameterNumberName":"U-component_of_WINDS"},"data":[0.0,0.0,0.0,0.0,0.0,0.0,0.0,0.0,0.0,0.0,0.0,0.0,0.0,0.0,0.0,0.0,0.0,0.0,0.0,0.0,0.0,0.0,0.0,0.0,0.0,0.0,0.0,0.0,0.0,0.0,0.0,0.0,0.0,0.0,0.0,0.0,0.0,0.0,0.0,0.0,0.0,0.0,0.0,0.0,0.0,0.0,0.0,0.0,0.0,0.0,0.0,0.0,0.0,0.0,0.0,0.0,0.0,0.0,0.0,0.0,0.0,0.0,0.0,0.0,0.0,0.0,0.0,0.0,0.0,0.0,0.0,0.0,0.0,0.0,0.0,0.0,0.0,0.0,0.0,0.0,0.0,0.0,0.0,0.0,0.0,0.0,0.0,0.0,0.0,0.0,0.0,5.3991,6.2561,6.7041,6.4984,6.3493,5.9988,5.3718,0.0,0.0,0.0,0.0,0.0,0.0,0.0,0.0,0.0,0.0,0.0,0.0,0.0,0.0,0.0,0.0,0.0,0.0,0.0,0.0,0.0,0.0,0.0,0.0,0.0,0.0,0.0,0.0,0.0,0.0,0.0,0.0,0.0,0.0,0.0,0.0,0.0,0.0,0.0,0.0,0.0,0.0,0.0,0.0,0.0,0.0,0.0,0.0,0.0,0.0,0.0,0.0,0.0,0.0,0.0,0.0,0.0,0.0,0.0,0.0,0.0,0.0,0.0,0.0,0.0,0.0,0.0,0.0,0.0,0.0,0.0,0.0,0.0,0.0,0.0,0.0,0.0,0.0,0.0,0.0,0.0,0.0,0.0,0.0,0.0,0.0,0.0,0.0,0.0,0.0,0.0,0.0,0.0,0.0,0.0,0.0,0.0,0.0,0.0,0.0,0.0,0.0,0.0,0.0,5.087,6.0394,6.5987,6.8374,6.6735,6.5199,6.1707,5.5591,0.0,0.0,0.0,0.0,0.0,0.0,0.0,0.0,0.0,0.0,0.0,0.0,0.0,0.0,0.0,0.0,0.0,0.0,0.0,0.0,0.0,0.0,0.0,0.0,0.0,0.0,0.0,0.0,0.0,0.0,0.0,0.0,0.0,0.0,0.0,0.0,0.0,0.0,0.0,0.0,0.0,0.0,0.0,0.0,0.0,0.0,0.0,0.0,0.0,0.0,0.0,0.0,0.0,0.0,0.0,0.0,0.0,0.0,0.0,0.0,0.0,0.0,0.0,0.0,0.0,0.0,0.0,0.0,0.0,0.0,0.0,0.0,0.0,0.0,0.0,0.0,0.0,0.0,0.0,0.0,0.0,0.0,0.0,0.0,0.0,0.0,0.0,0.0,0.0,0.0,0.0,0.0,0.0,0.0,0.0,0.0,0.0,0.0,0.0,0.0,0.0,0.0,0.0,5.1255,5.7489,6.3402,6.7204,6.8345,6.5955,6.3979,6.0245,5.4134,4.7249,0.0,0.0,0.0,0.0,0.0,0.0,0.0,0.0,0.0,0.0,0.0,0.0,0.0,0.0,0.0,0.0,0.0,0.0,0.0,0.0,0.0,0.0,0.0,0.0,0.0,0.0,0.0,0.0,0.0,0.0,0.0,0.0,0.0,0.0,0.0,0.0,0.0,0.0,0.0,0.0,0.0,0.0,0.0,0.0,0.0,0.0,0.0,0.0,0.0,0.0,0.0,0.0,0.0,0.0,0.0,0.0,0.0,0.0,0.0,0.0,0.0,0.0,0.0,0.0,0.0,0.0,0.0,0.0,0.0,0.0,0.0,0.0,0.0,0.0,0.0,0.0,0.0,0.0,0.0,0.0,0.0,0.0,0.0,0.0,0.0,0.0,0.0,0.0,0.0,0.0,0.0,0.0,0.0,0.0,0.0,0.0,0.0,0.0,0.0,0.0,0.0,0.0,5.8568,6.3615,6.5299,6.793,6.8231,6.4979,6.2289,5.8185,5.2065,4.5989,0.0,0.0,0.0,0.0,0.0,0.0,0.0,0.0,0.0,0.0,0.0,0.0,0.0,0.0,0.0,0.0,0.0,0.0,0.0,0.0,0.0,0.0,0.0,0.0,0.0,0.0,0.0,0.0,0.0,0.0,0.0,0.0,0.0,0.0,0.0,0.0,0.0,0.0,0.0,0.0,0.0,0.0,0.0,0.0,0.0,0.0,0.0,0.0,0.0,0.0,0.0,0.0,0.0,0.0,0.0,0.0,0.0,0.0,0.0,0.0,0.0,0.0,0.0,0.0,0.0,0.0,0.0,0.0,0.0,0.0,0.0,0.0,0.0,0.0,0.0,0.0,0.0,0.0,0.0,0.0,0.0,0.0,0.0,0.0,0.0,0.0,0.0,0.0,0.0,0.0,0.0,0.0,0.0,0.0,0.0,0.0,0.0,0.0,0.0,0.0,0.0,0.0,6.1531,6.6708,6.6836,6.8931,6.8783,6.5014,6.1358,5.6641,5.0555,4.4436,0.0,0.0,0.0,0.0,0.0,0.0,0.0,0.0,0.0,0.0,0.0,0.0,0.0,0.0,0.0,0.0,0.0,0.0,0.0,0.0,0.0,0.0,0.0,0.0,0.0,0.0,0.0,0.0,0.0,0.0,0.0,0.0,0.0,0.0,0.0,0.0,0.0,0.0,0.0,0.0,0.0,0.0,0.0,0.0,0.0,0.0,0.0,0.0,0.0,0.0,0.0,0.0,0.0,0.0,0.0,0.0,0.0,0.0,0.0,0.0,0.0,0.0,0.0,0.0,0.0,0.0,0.0,0.0,0.0,0.0,0.0,0.0,0.0,0.0,0.0,0.0,0.0,0.0,0.0,0.0,0.0,0.0,0.0,0.0,0.0,0.0,0.0,0.0,0.0,0.0,0.0,0.0,0.0,0.0,0.0,0.0,0.0,0.0,0.0,0.0,0.0,0.0,6.2117,6.7196,0.0,6.9715,6.937,6.5048,6.1668,5.6986,5.0417,0.0,0.0,0.0,0.0,0.0,0.0,0.0,0.0,0.0,0.0,0.0,0.0,0.0,0.0,0.0,0.0,0.0,0.0,0.0,0.0,0.0,0.0,0.0,0.0,0.0,0.0,0.0,0.0,0.0,0.0,0.0,0.0,0.0,0.0,0.0,0.0,0.0,0.0,0.0,0.0,0.0,0.0,0.0,0.0,0.0,0.0,0.0,0.0,0.0,0.0,0.0,0.0,0.0,0.0,0.0,0.0,0.0,0.0,0.0,0.0,0.0,0.0,0.0,0.0,0.0,0.0,0.0,0.0,0.0,0.0,0.0,0.0,0.0,0.0,0.0,0.0,0.0,0.0,0.0,0.0,0.0,0.0,0.0,0.0,0.0,0.0,0.0,0.0,0.0,0.0,0.0,0.0,0.0,0.0,0.0,0.0,0.0,0.0,0.0,0.0,0.0,0.0,5.5244,6.2823,6.7782,0.0,7.0213,6.9525,6.5227,6.1849,5.7061,5.0255,0.0,0.0,0.0,0.0,0.0,0.0,0.0,0.0,0.0,0.0,0.0,0.0,0.0,0.0,0.0,0.0,0.0,0.0,0.0,0.0,0.0,0.0,0.0,0.0,0.0,0.0,0.0,0.0,0.0,0.0,0.0,0.0,0.0,0.0,0.0,0.0,0.0,0.0,0.0,0.0,0.0,0.0,0.0,0.0,0.0,0.0,0.0,0.0,0.0,0.0,0.0,0.0,0.0,0.0,0.0,0.0,0.0,0.0,0.0,0.0,0.0,0.0,0.0,0.0,0.0,0.0,0.0,0.0,0.0,0.0,0.0,0.0,0.0,0.0,0.0,0.0,0.0,0.0,0.0,0.0,0.0,0.0,0.0,0.0,0.0,0.0,0.0,0.0,0.0,0.0,0.0,0.0,0.0,0.0,0.0,0.0,0.0,0.0,0.0,0.0,0.0,0.0,5.6618,6.4053,6.891,6.9641,7.0392,6.9299,6.5567,6.1739,5.6662,0.0,0.0,0.0,0.0,0.0,0.0,0.0,0.0,0.0,0.0,0.0,0.0,0.0,0.0,0.0,0.0,0.0,0.0,0.0,0.0,0.0,0.0,0.0,0.0,0.0,0.0,0.0,0.0,0.0,0.0,0.0,0.0,0.0,0.0,0.0,0.0,0.0,0.0,0.0,0.0,0.0,0.0,0.0,0.0,0.0,0.0,0.0,0.0,0.0,0.0,0.0,0.0,0.0,0.0,0.0,0.0,0.0,0.0,0.0,0.0,0.0,0.0,0.0,0.0,0.0,0.0,0.0,0.0,0.0,0.0,0.0,0.0,0.0,0.0,0.0,0.0,0.0,0.0,0.0,0.0,0.0,0.0,0.0,0.0,0.0,0.0,0.0,0.0,0.0,0.0,0.0,0.0,0.0,0.0,0.0,0.0,0.0,0.0,0.0,0.0,0.0,0.0,0.0,0.0,6.482,6.9891,7.1189,7.1985,7.112,6.7855,6.4601,5.9845,5.301,0.0,0.0,0.0,0.0,0.0,0.0,0.0,0.0,0.0,0.0,0.0,0.0,0.0,0.0,0.0,0.0,0.0,0.0,0.0,0.0,0.0,0.0,0.0,0.0,0.0,0.0,0.0,0.0,0.0,0.0,0.0,0.0,0.0,0.0,0.0,0.0,0.0,0.0,0.0,0.0,0.0,0.0,0.0,0.0,0.0,0.0,0.0,0.0,0.0,0.0,0.0,0.0,0.0,0.0,0.0,0.0,0.0,0.0,0.0,0.0,0.0,0.0,0.0,0.0,0.0,0.0,0.0,0.0,0.0,0.0,0.0,0.0,0.0,0.0,0.0,0.0,0.0,0.0,0.0,0.0,0.0,0.0,0.0,0.0,0.0,0.0,0.0,0.0,0.0,0.0,0.0,0.0,0.0,0.0,0.0,0.0,0.0,0.0,0.0,0.0,0.0,0.0,5.7954,6.5399,7.0465,7.2007,7.2562,7.1837,6.9444,6.7018,6.2586,5.5502,0.0,0.0,0.0,0.0,0.0,0.0,0.0,0.0,0.0,0.0,0.0,0.0,0.0,0.0,0.0,0.0,0.0,0.0,0.0,0.0,0.0,0.0,0.0,0.0,0.0,0.0,0.0,0.0,0.0,0.0,0.0,0.0,0.0,0.0,0.0,0.0,0.0,0.0,0.0,0.0,0.0,0.0,0.0,0.0,0.0,0.0,0.0,0.0,0.0,0.0,0.0,0.0,0.0,0.0,0.0,0.0,0.0,0.0,0.0,0.0,0.0,0.0,0.0,0.0,0.0,0.0,0.0,0.0,0.0,0.0,0.0,0.0,0.0,0.0,0.0,0.0,0.0,0.0,0.0,0.0,0.0,0.0,0.0,0.0,0.0,0.0,0.0,0.0,0.0,0.0,0.0,0.0,0.0,0.0,0.0,0.0,0.0,0.0,0.0,0.0,0.0,0.0,5.8501,6.5847,7.0883,7.2326,7.2563,7.2022,7.0511,6.8944,6.4918,5.7679,0.0,0.0,0.0,0.0,0.0,0.0,0.0,0.0,0.0,0.0,0.0,0.0,0.0,0.0,0.0,0.0,0.0,0.0,0.0,0.0,0.0,0.0,0.0,0.0,0.0,0.0,0.0,0.0,0.0,0.0,0.0,0.0,0.0,0.0,0.0,0.0,0.0,0.0,0.0,0.0,0.0,0.0,0.0,0.0,0.0,0.0,0.0,0.0,0.0,0.0,0.0,0.0,0.0,0.0,0.0,0.0,0.0,0.0,0.0,0.0,4.5234,0.0,0.0,0.0,0.0,0.0,0.0,0.0,0.0,0.0,0.0,0.0,0.0,0.0,0.0,0.0,0.0,0.0,0.0,0.0,0.0,0.0,0.0,0.0,0.0,0.0,0.0,0.0,0.0,0.0,0.0,0.0,0.0,0.0,0.0,0.0,0.0,0.0,0.0,0.0,0.0,0.0,5.9157,6.6555,7.1616,7.3116,7.3781,7.3533,7.2056,7.0026,6.6406,6.0689,0.0,0.0,0.0,0.0,0.0,0.0,0.0,0.0,0.0,0.0,0.0,0.0,0.0,0.0,0.0,0.0,0.0,0.0,0.0,0.0,0.0,0.0,0.0,0.0,0.0,0.0,0.0,0.0,0.0,0.0,0.0,0.0,0.0,0.0,0.0,0.0,0.0,0.0,0.0,0.0,0.0,0.0,0.0,0.0,0.0,0.0,0.0,0.0,0.0,0.0,0.0,0.0,0.0,0.0,0.0,0.0,0.0,0.0,0.0,0.0,0.0,4.9183,0.0,0.0,0.0,0.0,0.0,0.0,0.0,0.0,0.0,0.0,0.0,0.0,0.0,0.0,0.0,0.0,0.0,0.0,0.0,0.0,0.0,0.0,0.0,0.0,0.0,0.0,0.0,0.0,0.0,0.0,0.0,0.0,0.0,0.0,0.0,0.0,0.0,0.0,0.0,0.0,5.9859,6.7008,7.1875,7.3353,7.4153,7.4142,7.3003,7.1244,6.8087,6.3193,5.7293,0.0,0.0,0.0,0.0,0.0,0.0,0.0,0.0,0.0,0.0,0.0,0.0,0.0,0.0,0.0,0.0,0.0,0.0,0.0,0.0,0.0,0.0,0.0,0.0,0.0,0.0,0.0,0.0,0.0,0.0,0.0,0.0,0.0,0.0,0.0,0.0,0.0,0.0,0.0,0.0,0.0,0.0,0.0,0.0,0.0,0.0,0.0,0.0,0.0,0.0,0.0,0.0,0.0,6.14,6.2482,6.326,6.4015,6.4749,6.5189,6.0587,5.7791,5.6371,0.0,0.0,0.0,0.0,0.0,0.0,0.0,0.0,0.0,0.0,0.0,0.0,0.0,0.0,0.0,0.0,0.0,0.0,0.0,0.0,0.0,0.0,0.0,0.0,0.0,5.952,5.8524,0.0,0.0,0.0,0.0,0.0,0.0,0.0,0.0,0.0,0.0,0.0,0.0,6.0787,6.7506,7.2045,7.3522,7.4356,7.4492,7.3759,7.2462,6.988,6.5662,6.0723,5.5674,0.0,0.0,0.0,0.0,0.0,0.0,0.0,0.0,0.0,0.0,0.0,0.0,0.0,0.0,0.0,0.0,0.0,0.0,0.0,0.0,0.0,0.0,0.0,0.0,0.0,0.0,0.0,0.0,0.0,0.0,0.0,0.0,4.2307,4.251,0.0,0.0,0.0,0.0,0.0,0.0,0.0,0.0,0.0,0.0,0.0,0.0,0.0,0.0,6.2956,6.529,6.7161,6.8582,6.9417,7.0218,7.0973,7.1695,7.2439,7.3127,7.3004,0.0,6.227,6.0942,0.0,0.0,0.0,0.0,0.0,0.0,0.0,0.0,0.0,0.0,0.0,0.0,0.0,0.0,0.0,0.0,0.0,0.0,0.0,0.0,0.0,0.0,6.3963,6.524,6.612,6.6401,0.0,6.0368,5.5272,5.2995,0.0,0.0,0.0,0.0,0.0,0.0,0.0,0.0,6.2275,6.8515,7.2834,7.4311,7.5089,7.527,7.4514,7.368,7.1864,6.8707,6.4806,6.0578,5.5944,5.1352,0.0,0.0,0.0,0.0,0.0,0.0,0.0,0.0,0.0,0.0,0.0,0.0,0.0,0.0,0.0,0.0,0.0,0.0,0.0,0.0,0.0,0.0,0.0,0.0,0.0,0.0,0.0,0.0,0.0,4.2956,4.6087,4.6508,4.6913,4.6711,0.0,0.0,0.0,0.0,0.0,0.0,0.0,0.0,0.0,6.0114,6.3845,6.7218,7.0184,7.2856,7.4965,7.6432,7.7198,7.793,7.8653,7.9397,7.9925,8.0264,8.1054,7.8619,7.3747,6.9049,6.4914,6.1208,0.0,0.0,0.0,0.0,0.0,5.8725,6.0625,6.0777,0.0,0.0,0.0,0.0,0.0,0.0,0.0,0.0,0.0,0.0,0.0,0.0,0.0,6.9068,6.988,7.0331,6.988,6.7358,6.389,0.0,5.6579,5.3473,4.9308,0.0,0.0,0.0,0.0,0.0,6.3879,6.9586,7.3409,7.448,7.527,7.5574,7.5236,7.4525,7.3206,7.1109,6.8233,6.4806,6.0747,5.6664,5.2367,0.0,0.0,0.0,0.0,0.0,0.0,0.0,0.0,0.0,0.0,0.0,0.0,0.0,0.0,0.0,0.0,0.0,0.0,0.0,0.0,0.0,0.0,0.0,0.0,0.0,0.0,0.0,0.0,4.7184,5.0254,5.1183,5.1928,5.186,0.0,0.0,0.0,0.0,0.0,0.0,5.9259,6.1119,6.3589,6.6779,7.0342,7.3522,7.6272,7.8911,8.0885,8.2137,8.2915,8.3558,8.4099,8.4864,8.5202,8.5222,8.5824,8.5012,8.2793,7.6552,7.1807,6.8165,6.4883,6.3504,6.3368,6.3538,6.4568,6.6211,6.8457,6.8593,6.7732,6.7177,0.0,6.1158,5.831,0.0,0.0,0.0,0.0,6.2405,6.6629,0.0,7.1797,7.2552,7.3308,7.3646,7.289,7.2552,7.0737,0.0,6.2144,5.9361,5.504,0.0,0.0,0.0,0.0,6.025,6.5842,7.0781,7.4052,7.4784,7.5371,7.5709,7.5709,7.5202,7.4255,7.2766,7.0973,6.8267,6.4502,6.1298,5.7408,0.0,0.0,0.0,0.0,0.0,0.0,0.0,0.0,0.0,0.0,0.0,0.0,0.0,0.0,0.0,0.0,0.0,0.0,0.0,0.0,0.0,0.0,0.0,0.0,0.0,0.0,0.0,0.0,0.0,0.0,5.7282,5.8118,0.0,0.0,0.0,0.0,5.937,6.2347,6.4705,6.6227,6.9068,7.1413,7.3015,7.6026,7.8699,8.0932,8.2509,8.3659,8.4444,8.5249,8.5635,8.5702,8.6467,8.6792,8.6792,8.6825,8.6399,8.5364,8.2129,7.861,7.4977,7.2688,7.1368,7.0849,7.1537,7.2755,7.4334,7.6625,7.6422,7.5158,7.5124,7.035,6.4405,6.3522,6.1259,0.0,0.0,6.5599,6.7518,7.1353,7.3898,7.5642,7.642,7.7164,7.7515,7.6792,7.6014,7.3916,0.0,6.6417,6.415,6.0351,0.0,5.6003,5.8303,6.0622,6.3778,6.8335,7.2214,7.4818,7.5574,7.5676,7.5709,7.5709,7.5676,7.4999,7.3522,7.2665,7.0567,6.6802,6.5121,6.1839,5.6621,5.2757,0.0,0.0,0.0,0.0,0.0,0.0,0.0,0.0,0.0,0.0,0.0,0.0,0.0,0.0,0.0,0.0,0.0,0.0,0.0,0.0,0.0,0.0,0.0,0.0,0.0,0.0,0.0,0.0,6.3328,6.4739,0.0,0.0,6.3869,6.4603,6.7106,7.006,7.2394,7.3928,7.6386,7.8179,7.9194,8.1676,8.3639,8.4877,8.5418,8.6298,8.7482,8.7326,8.7462,8.7936,8.8206,8.8308,8.8308,8.8308,8.7902,8.709,8.5554,8.2678,7.9071,7.6872,7.5857,7.5642,7.5924,7.6657,7.7761,7.9511,7.9443,7.8348,7.6927,7.349,6.9814,6.9564,6.8195,6.7185,6.9363,7.066,7.1897,7.4044,7.5566,7.6657,7.7447,7.7819,7.7785,7.7063,7.6284,7.4999,7.2653,7.0624,6.8571,6.6305,6.3429,6.2178,6.44,6.5425,6.7218,7.077,7.3612,7.5405,7.5676,7.5709,7.5709,7.5709,7.527,7.4559,7.3556,7.2812,7.1176,6.8392,6.7286,6.4512,5.981,5.6452,5.2122,0.0,0.0,0.0,0.0,0.0,0.0,0.0,0.0,0.0,0.0,0.0,0.0,0.0,0.0,0.0,0.0,0.0,0.0,0.0,0.0,0.0,0.0,0.0,0.0,0.0,0.0,6.5358,6.8324,7.0263,7.1109,7.0567,7.0534,7.1379,7.3409,7.5845,7.7773,7.9037,8.0729,8.2002,8.2746,8.4471,8.5892,8.6893,8.7144,8.7888,8.9086,8.8612,8.8646,8.9086,8.9086,8.9086,8.9086,8.9086,8.8815,8.8294,8.7583,8.5824,8.3334,8.1088,8.0242,8.0242,8.0242,8.0547,8.1075,8.1799,8.19,8.1346,7.9397,7.7147,7.5233,7.5211,7.4285,7.347,7.4545,7.5211,7.5842,7.693,7.7604,7.8145,7.8631,7.8733,7.853,7.7807,7.6623,7.5574,7.5067,7.3409,7.165,7.0432,6.8368,6.7354,6.8842,6.9248,7.0229,7.2462,7.4492,7.5709,7.5709,7.5709,7.5709,7.5709,7.5021,7.4187,7.3184,7.2428,7.1041,6.8808,6.8199,6.6068,6.21,5.7872,5.3002,4.7522,0.0,0.0,0.0,0.0,0.0,0.0,0.0,0.0,0.0,0.0,0.0,0.0,0.0,0.0,0.0,0.0,0.0,0.0,0.0,0.0,0.0,0.0,0.0,5.7823,6.3913,6.9214,7.2259,7.4559,7.5912,7.5912,7.5912,7.6555,7.809,7.9532,8.0695,8.1405,8.2103,8.2813,8.3558,8.4255,8.5371,8.6927,8.7685,8.8409,8.9086,8.9086,8.9086,8.9086,8.9086,8.9086,8.9086,8.9086,8.9086,8.9052,8.8294,8.7989,8.7786,8.554,8.4681,8.4681,8.4681,8.4681,8.4559,8.3828,8.4018,8.4343,8.2902,8.1447,8.0276,8.0242,7.924,7.8225,7.8911,7.908,7.9249,7.9972,8.0175,8.0175,8.0175,8.0209,8.0006,7.9215,7.7287,7.5709,7.5709,7.4537,7.3319,7.2597,7.1875,7.1402,7.1424,7.2011,0.0,7.3454,7.4808,7.5709,7.5709,7.5709,7.5676,7.5676,7.4953,7.3905,7.2428,7.1605,7.0184,6.7929,6.7861,6.6474,6.3511,5.6959,5.142,4.6962,0.0,0.0,0.0,0.0,0.0,0.0,0.0,0.0,0.0,0.0,0.0,0.0,0.0,0.0,0.0,0.0,0.0,0.0,0.0,0.0,0.0,0.0,6.1037,6.3236,6.8876,7.3871,7.6881,7.9215,8.0568,8.0568,8.1054,8.1765,8.2699,8.3693,8.4349,8.4552,8.4187,8.4356,8.5127,8.5351,8.6196,8.7685,8.8443,8.8883,8.9086,8.9086,8.9086,8.9086,8.9086,8.9086,8.9086,8.9086,8.9086,8.9052,8.8294,8.7989,8.7888,8.6724,8.6284,8.6284,8.6284,8.6284,8.6149,8.5418,8.4911,8.4458,8.349,8.2577,8.1697,8.1169,8.0357,7.9532,7.9181,7.872,7.8483,7.9215,7.9384,7.952,8.0073,8.0209,7.9837,7.8597,7.6927,7.5709,7.5709,7.4931,7.4221,7.404,7.3837,7.3871,7.4424,0.0,0.0,7.4999,7.5439,7.5709,7.5709,7.5709,7.5473,7.4953,7.3747,7.2394,0.0,6.9553,6.8064,6.6383,6.6812,6.5719,6.2753,5.822,5.4194,0.0,0.0,0.0,0.0,0.0,0.0,0.0,0.0,0.0,0.0,0.0,0.0,0.0,0.0,0.0,0.0,0.0,0.0,0.0,0.0,0.0,0.0,6.2245,6.7117,7.0003,7.3646,7.6893,7.9283,8.1786,8.3342,8.3355,8.4302,8.51,8.554,8.5993,8.6142,8.5804,8.5033,8.4965,8.577,8.5804,8.6514,8.7989,8.8748,8.9086,8.9086,8.9086,8.9086,8.9086,8.9086,8.9086,0.0,8.9086,8.9086,8.9052,8.8646,8.8477,0.0,0.0,0.0,0.0,0.0,8.6893,8.6825,8.6399,8.5757,8.5033,8.4606,8.3727,8.2712,8.1968,8.0818,7.96,7.8855,7.7874,7.721,7.7976,7.8416,7.8822,7.9553,7.9972,7.987,7.872,7.7266,7.6183,7.6183,0.0,0.0,7.5495,7.5562,7.5709,7.6149,7.5845,7.5709,0.0,7.6454,7.6669,7.6669,7.6669,7.6352,7.563,7.4175,0.0,0.0,0.0,6.7861,6.6688,6.6745,0.0,0.0,0.0,0.0,0.0,0.0,0.0,0.0,4.9398,5.1056,0.0,0.0,0.0,0.0,0.0,0.0,0.0,0.0,0.0,0.0,0.0,0.0,0.0,0.0,0.0,0.0,6.7963,7.2958,7.6623,7.8077,7.9228,8.0547,8.3172,8.4898,8.4945,8.6115,8.6927,8.7028,8.7028,8.6738,8.6075,0.0,0.0,0.0,0.0,8.6514,8.7989,8.8748,8.9086,8.9086,8.9086,8.9086,8.9086,8.9086,8.9086,8.9086,8.9086,8.9086,8.9086,8.9086,8.9086,8.8984,8.7651,8.713,8.713,8.713,8.713,0.0,0.0,0.0,0.0,8.5939,8.4958,8.3592,8.2767,8.1042,7.9181,7.836,7.7075,7.6149,7.6927,7.7705,7.8428,7.9181,7.9904,8.0209,7.9384,7.8145,7.713,7.7029,7.6454,7.6217,7.7029,7.7063,7.7029,7.7029,7.7029,7.7029,7.7029,7.7616,7.7988,7.7988,0.0,0.0,7.6961,7.5495,7.3972,7.2496,7.0229,6.8639,6.7929,6.7343,6.6745,6.6112,6.4884,6.3217,6.1129,6.1197,6.1231,6.1163,5.8041,5.8109,0.0,0.0,0.0,0.0,0.0,0.0,0.0,0.0,0.0,0.0,0.0,0.0,0.0,0.0,0.0,6.6948,7.1278,7.5055,7.8234,8.1346,8.3443,8.3714,8.5371,8.6453,8.6453,8.6724,8.7144,8.7753,8.7786,8.7719,8.7583,8.6298,0.0,8.6656,8.6095,8.6514,8.7989,8.8748,8.9086,8.9086,0.0,0.0,8.9086,8.9086,8.9086,8.9086,8.9086,8.9086,8.9086,8.9086,8.9086,8.9052,8.8781,8.868,8.868,8.868,8.868,8.8578,8.7989,8.7685,8.7482,8.6873,8.6061,8.5093,8.3693,8.215,0.0,7.9261,7.8247,7.7751,7.8471,7.9228,7.9951,8.0695,8.1426,8.1629,8.0276,7.9283,7.8505,7.7921,7.765,7.7773,7.8539,7.8179,7.7785,7.7785,7.7785,7.7785,7.7785,7.7921,7.7988,7.7988,7.7988,7.7718,7.6961,7.5495,7.3972,7.2496,6.9722,6.8064,6.7895,6.8402,6.8605,6.8436,6.8751,6.8402,6.7354,6.7973,6.8244,6.8142,6.3961,6.325,0.0,0.0,0.0,0.0,0.0,0.0,0.0,0.0,0.0,0.0,0.0,5.6833,6.0554,0.0,6.7512,7.1233,7.4683,7.7761,8.0365,8.3646,8.5459,8.4681,8.6284,8.7448,8.7448,8.7786,8.8158,8.8511,8.8545,8.8409,8.8023,8.7279,8.7259,8.7989,8.7631,8.8089,8.9387,8.96,8.961,8.9451,8.9291,8.9203,8.9203,8.9203,8.9291,8.9451,8.9625,8.9817,8.9974,9.0131,8.9763,8.912,8.9526,8.9424,8.9086,8.9086,8.9086,8.9052,8.868,8.8294,8.7955,8.7583,8.6704,8.5567,8.4403,8.2746,8.1067,7.9972,7.8855,7.8157,7.8911,7.9667,8.0378,8.1101,8.1866,8.2192,8.146,8.1008,8.0636,8.0276,7.9917,7.9781,8.0141,7.96,7.8969,7.8619,7.8551,7.8551,7.8551,7.8855,7.9105,7.9105,7.9105,7.8788,7.8077,7.6239,7.4525,7.3037,7.1176,7.0161,7.0161,7.0534,7.0737,7.0737,7.1109,7.0939,7.0184,7.1312,7.183,7.183,7.0737,6.9981,0.0,0.0,0.0,0.0,0.0,0.0,0.0,0.0,5.2748,5.5894,5.9742,6.3497,6.6451,6.9586,7.2484,7.4886,7.7422,7.9858,8.209,8.4999,8.6386,8.4999,8.6839,8.8192,8.8192,8.8748,8.9086,8.9086,8.9086,8.8849,8.824,8.8192,8.8531,8.9289,8.9323,8.9747,9.0672,9.0289,8.9902,8.9462,8.9066,8.8866,8.8866,8.8866,8.9096,8.9525,9.0051,9.0544,9.0909,9.1204,9.0541,8.9357,8.9985,8.9748,8.9086,8.9086,8.9086,8.9086,8.9086,8.8714,8.8192,8.8192,8.7326,8.6075,8.5303,8.3578,8.1778,8.1054,7.987,7.9003,7.9587,8.031,8.0987,8.1575,8.2306,8.28,8.2631,8.2598,8.2564,8.2428,8.19,8.1507,8.1507,8.1021,8.0344,7.9452,7.9317,7.9317,7.9317,7.9837,8.0209,8.0209,8.0209,7.9904,7.9147,7.7435,7.5743,7.4233,7.3578,7.3206,7.3037,7.3206,7.3274,7.3274,7.3409,7.3206,7.2586,7.3781,7.4368,7.4402,7.6263,7.5743,4.1779,4.4823,4.9838,5.2951,5.4846,5.6283,0.0,0.0,5.9056,6.2719,6.5425,6.8098,7.1109,7.2541,7.4199,7.7142,7.845,7.9858,8.209,8.4999,8.6589,8.577,8.7631,8.8984,8.8984,8.9052,8.9086,8.9086,8.9086,8.9052,8.8984,8.8984,8.9323,9.0039,9.0087,9.0173,9.0348,8.9673,8.9002,8.8352,8.7674,8.7339,8.7339,8.7339,8.7722,8.843,8.9718,9.0661,9.1261,9.129,9.0831,9.0073,9.0174,8.9748,8.9086,8.9086,8.9086,8.9086,8.9086,8.9052,8.8984,8.8984,8.8409,8.7617,8.6859,8.5506,8.4086,8.3355,8.2543,8.1921,8.2022,8.2577,8.3152,8.3219,8.3815,8.4187,8.3524,8.3389,8.3186,8.253,8.2327,8.2259,8.2259,8.2192,8.1684,8.0276,8.0073,8.0073,8.0073,8.0141,8.0209,8.0209,8.0209,7.9904,7.9147,7.8877,7.8099,7.6623,7.6454,7.6082,7.5371,7.6014,7.6386,7.6386,7.7041,7.7345,7.7244,7.7413,7.7481,7.7481,7.7751,7.7345,4.8105,5.0777,5.4938,0.0,6.1907,6.4241,6.529,6.5855,6.6836,6.9282,7.1548,7.351,7.4796,7.562,7.6669,0.0,7.9261,8.0513,8.2746,8.4911,8.6142,8.5838,8.5838,8.6379,8.7685,8.782,8.8075,8.877,8.9024,8.9255,8.9483,8.9326,8.9543,9.0311,9.0311,9.0363,9.0416,8.971,8.9024,8.831,8.7583,8.7231,8.7231,8.7231,8.7865,8.8992,8.9995,9.0554,9.0812,9.1277,9.0776,8.971,9.0144,8.9877,8.9211,8.9122,8.9086,8.9086,8.9086,8.9086,8.9086,8.9086,8.8612,8.7955,8.7617,8.6501,8.5215,8.4924,8.4268,8.3667,8.3667,8.3917,8.4255,8.4721,8.508,8.5317,8.5452,8.5148,8.4755,8.4437,8.3659,8.305,8.305,8.2665,8.2192,8.1549,8.1122,8.0695,8.0242,8.0209,8.0209,8.0209,8.0209,8.0073,7.9769,7.935,7.8843,7.82,7.7773,7.7379,7.7041,7.7345,7.7548,7.7548,7.7853,7.7988,7.7988,7.8416,7.8653,7.8653,7.9092,7.9126,5.29,5.5572,0.0,6.3589,6.7377,7.0263,7.121,7.1819,7.2552,7.3849,7.5417,7.6657,7.686,7.7333,7.8077,7.9228,8.0209,8.1468,8.3418,8.5094,8.5971,8.5451,8.4177,8.3887,8.5361,8.5972,8.6796,8.8074,8.8609,8.9046,8.9338,8.8943,8.904,8.978,8.9797,8.9826,8.9903,8.9231,8.8513,8.7799,8.7039,8.6704,8.6704,8.6882,8.7664,8.8915,8.9609,8.9981,9.0142,9.0733,9.0206,8.9056,8.9582,8.9336,8.8718,8.882,8.9091,8.942,8.9289,8.932,8.9357,8.9154,8.8748,8.8294,8.8294,8.7428,8.6413,8.6413,8.5858,8.5222,8.5222,8.5222,8.5371,8.596,8.6108,8.6196,8.6535,8.6176,8.5709,8.5425,8.4365,8.3543,8.3463,8.2932,8.2454,8.2365,8.1952,8.1449,8.0894,8.0615,8.0424,8.0209,8.0209,8.0209,8.0209,7.9701,7.9384,7.9384,7.8889,7.8597,7.8597,7.8597,7.8597,7.8597,7.8597,7.8597,7.8597,7.916,7.9384,7.9418,8.0175,8.0513,5.4414,0.0,6.2245,6.6677,7.006,7.2699,7.4142,7.448,7.4717,7.5473,7.5676,7.598,7.6758,7.6927,7.7638,7.9803,8.1393,8.2777,8.3995,8.5778,8.6335,8.4649,8.3474,8.2594,0.0,8.3591,8.535,8.6922,8.7733,8.8148,8.8241,8.7563,8.7502,8.8263,8.8263,8.8308,8.8348,8.7635,8.6924,8.6263,8.5514,8.5184,8.5202,8.5907,8.6606,8.7308,8.8044,8.8719,8.9348,8.9348,8.8927,8.8231,8.8263,8.781,8.7243,8.7957,8.9091,9.0229,8.9817,8.9883,9.0053,8.9323,8.9086,8.9052,8.9052,8.8545,8.7922,8.7922,8.7414,8.6825,8.6825,8.6825,8.6825,8.6859,8.6859,8.667,8.5973,8.5804,8.5486,8.4447,8.396,8.3605,8.3343,8.3023,8.2645,8.2253,8.2426,8.2503,8.235,8.171,8.0999,8.0276,8.0209,8.0209,8.0209,8.0175,8.0175,8.0175,8.0141,8.0141,8.0141,8.0141,8.0141,8.0141,8.0141,8.0141,8.0141,8.0141,8.0175,8.0175,8.0932,8.127,5.7399,0.0,6.5889,6.9891,7.3883,7.7084,7.8099,7.908,7.9418,7.82,7.7198,7.642,7.6149,7.6115,7.6995,7.9735,8.1866,8.3487,8.445,8.4969,8.4503,8.2563,8.0297,0.0,0.0,0.0,0.0,8.4532,8.5547,8.6444,8.7238,8.7268,8.735,8.7589,8.7589,8.7496,8.7317,8.6781,8.6302,8.5849,8.5346,8.5111,8.5129,8.5634,8.6103,8.6553,8.706,8.7561,8.7957,8.7957,8.7829,8.7589,8.7589,8.7462,8.7307,8.8075,8.8961,8.9806,9.0028,9.0149,9.0154,8.9918,8.9492,8.9086,8.9086,8.8578,8.7989,8.7989,8.7482,8.6893,8.6893,8.6893,8.7028,8.7516,8.7279,8.6961,8.7211,8.6481,8.5554,8.4793,8.3793,8.2891,8.2396,8.1846,8.1705,8.2419,8.2339,8.2245,8.2376,8.2171,8.1934,8.1684,8.1663,8.1663,8.1663,8.1663,8.1663,8.1663,8.1663,8.1663,8.1663,8.1663,8.1663,8.1663,8.1663,8.1663,8.1663,8.1663,8.1663,8.165,8.19,8.2035,6.1289,6.5584,6.9643,7.3138,7.6758,7.9634,8.0073,8.0919,8.0906,7.8403,7.6272,7.4705,7.4082,7.4111,7.5251,7.8443,8.1366,8.3493,8.4214,8.4378,8.3686,8.1777,7.934,7.7702,0.0,0.0,0.0,8.1863,8.3031,8.4164,8.541,8.5842,8.609,8.609,8.609,8.5983,8.5782,8.5514,8.5261,8.5039,8.4802,8.4674,8.4692,8.4929,8.5184,8.5406,8.5657,8.5965,8.6302,8.6302,8.6373,8.6528,8.6528,8.6528,8.6584,8.7351,8.8074,8.8822,8.9796,9.036,9.0587,9.0351,8.9927,8.9523,8.9571,8.9219,8.8767,8.8531,8.8141,8.7675,8.7293,8.7113,8.713,8.7614,8.7331,8.7062,8.7278,8.6573,8.5591,8.4589,8.3532,8.2589,8.1803,8.1337,8.1458,8.2615,8.242,8.2299,8.273,8.278,8.2699,8.2428,8.2395,8.2395,8.2395,8.2395,8.2395,8.2395,8.2395,8.2395,8.2395,8.2395,8.2395,8.2395,8.2395,8.2395,8.2395,8.2395,8.2395,8.2395,8.2665,8.278,6.5922,6.9914,7.351,7.6386,7.8754,8.0344,8.0276,8.0242,7.9363,7.6217,7.3172,7.0996,0.0,0.0,7.2352,7.5921,7.9956,8.2828,8.3291,8.3983,8.3787,0.0,0.0,0.0,0.0,0.0,0.0,7.9097,0.0,8.1508,8.2961,8.3581,8.3901,8.3901,8.3901,8.3901,8.3901,8.3901,8.3901,8.3901,8.3901,8.3901,8.3901,8.3901,8.3901,8.3901,8.3901,8.4111,8.4497,8.4497,8.4735,8.5111,8.5111,8.5111,8.5202,8.5907,8.6588,8.7403,8.917,9.0454,9.1233,9.0627,9.0311,9.0278,9.0326,9.0278,9.0096,8.946,8.9274,8.8967,8.7943,8.7342,8.7041,8.7041,8.7008,8.6776,8.6082,8.5883,8.5372,8.3682,8.3065,8.2464,8.1491,8.1332,8.1713,8.268,8.2558,8.2604,8.3402,8.3479,8.3221,8.2558,8.247,8.2483,8.2496,8.2496,8.2496,8.2496,8.2483,8.247,8.2457,8.2457,8.2457,8.2457,8.247,8.2483,8.2496,8.2496,8.253,8.2598,8.3287,8.3625,7.0703,7.4931,7.8517,7.9849,8.1439,8.2374,8.127,8.1033,7.9714,7.5011,7.0804,6.7845,0.0,0.0,0.0,7.2945,7.7546,0.0,8.1489,8.1938,0.0,8.0301,0.0,7.7646,7.6861,7.5499,0.0,0.0,7.8857,8.0254,8.2106,8.3283,8.3901,8.3901,8.3901,8.3901,8.3901,8.3901,8.3901,8.3901,8.3901,8.3901,8.3901,8.3901,8.3901,8.3901,8.3901,8.4111,8.4497,8.4497,8.4735,8.5111,8.5111,8.5111,8.5166,8.5634,8.6086,8.6606,8.7613,8.9123,9.0552,9.0452,8.9972,8.9507,8.9555,8.9507,8.9474,8.9341,8.8708,8.7843,8.7085,8.5837,8.4821,8.4821,8.437,8.387,8.3661,8.3226,8.2544,8.1649,8.0658,7.9722,7.8935,7.9237,7.979,8.0498,8.0951,8.185,8.356,8.3526,8.3359,8.3362,8.3578,8.3826,8.4025,8.4039,8.4039,8.4039,8.3853,8.3638,8.3389,8.3436,8.3436,8.3389,8.3591,8.3839,8.4039,8.4039,8.4356,8.4958,8.5127,8.552,7.4502,7.7924,8.0631,8.1177,8.2093,8.2218,7.9913,7.8855,7.6893,7.165,6.6981,0.0,0.0,0.0,0.0,0.0,0.0,0.0,7.9076,7.9972,8.0165,0.0,7.8312,0.0,7.7477,7.6667,7.6805,0.0,7.8437,7.9296,8.1304,8.2692,8.3416,8.3416,8.3416,8.3416,8.3416,8.3416,8.3548,8.3801,8.3801,8.3952,8.4253,8.4253,8.4253,8.4253,0.0,8.4499,8.4844,8.451,8.466,8.498,8.4674,8.4736,8.4999,8.4943,8.5223,8.5717,8.6166,8.7278,8.8553,8.9301,8.9441,8.9271,8.9003,8.9081,8.919,8.8595,8.8075,8.743,8.6243,8.4981,8.3987,8.3987,8.3433,8.2878,8.2878,8.2341,8.1687,8.0996,8.0037,7.9227,7.8842,7.9089,7.9557,8.0226,8.0382,8.0957,8.246,8.2901,8.3305,8.3891,8.4422,8.4975,8.5554,8.5608,8.5608,8.5608,8.518,8.472,8.4254,8.4307,8.4307,8.424,8.4692,8.5153,8.5608,8.5608,8.5845,8.6264,8.6264,8.6501,7.7693,8.001,8.1625,8.1644,8.1877,8.1213,7.7527,7.5234,7.2383,6.714,0.0,5.9173,5.9607,6.0368,6.2418,6.6963,0.0,7.5585,7.636,7.7863,7.8686,7.8144,7.8117,7.8354,7.8765,7.8734,7.9088,8.0004,7.898,7.9088,8.0823,8.2129,8.2806,8.2806,8.2806,8.2806,8.2806,8.2896,8.3158,8.3688,8.3777,8.4156,8.4694,8.4694,8.4694,8.4694,0.0,0.0,8.5262,8.4679,8.4623,8.486,8.4374,8.4465,8.483,8.4344,8.4507,8.5045,8.5078,8.5516,8.6298,8.7679,8.853,8.8932,8.8294,8.8547,8.8787,8.7525,8.7238,8.6981,8.5331,8.4238,8.3585,8.3585,8.312,8.2717,8.2717,8.221,8.1577,8.0844,8.0199,7.9741,7.9741,7.9741,7.9971,8.0619,8.015,8.0005,8.0637,8.1792,8.2919,8.3941,8.4715,8.5563,8.6543,8.6659,8.6659,8.6659,8.6021,8.533,8.469,8.4727,8.4727,8.4661,8.5302,8.5979,8.6659,8.6659,8.6693,8.6794,8.6794,8.6862,8.0644,8.3121,8.5112,8.3711,8.3134,8.1619,7.6721,7.2707,0.0,0.0,5.7679,5.4189,5.6008,5.6664,5.8682,6.4094,6.8814,7.2219,0.0,0.0,7.5846,0.0,0.0,0.0,0.0,0.0,0.0,0.0,0.0,8.1261,8.162,8.2368,8.2806,8.2806,8.2806,8.2806,8.2806,8.3277,8.3617,8.3718,8.4275,8.4574,8.4694,8.4694,8.4694,8.4694,0.0,0.0,8.5292,8.5172,8.5028,8.4951,8.5376,8.5285,8.4951,8.5406,8.5619,8.5638,8.5101,8.5415,8.6067,8.6459,8.6627,8.6666,8.6606,8.6627,8.6666,8.6449,8.5769,8.4884,8.4005,8.2583,8.1352,8.1352,8.1262,8.1171,8.1171,8.0659,8.0008,7.931,7.9094,7.8987,7.8987,7.8987,7.9041,7.9166,7.9064,7.9039,7.9182,8.0435,8.1697,8.2646,8.3413,8.4224,8.5239,8.5325,8.5325,8.5325,8.4683,8.4016,8.3352,8.3402,8.3402,8.3322,8.3971,8.4654,8.5325,8.5325,8.5639,8.6252,8.6252,8.6584,8.1404,8.3549,8.5032,8.2514,8.131,7.9131,7.2902,0.0,0.0,0.0,5.3701,5.0735,5.2026,5.3014,0.0,5.997,6.5031,6.8944,7.0649,7.2894,0.0,0.0,0.0,0.0,0.0,0.0,0.0,0.0,0.0,8.2309,8.2309,8.2918,8.3427,8.3775,8.3805,8.3805,8.3805,8.4085,8.4395,8.4724,8.5073,8.5402,8.5731,8.5731,8.5731,8.5731,8.5731,0.0,8.5994,8.5645,8.5431,8.5322,8.5292,8.5292,8.5322,8.5292,8.5503,8.5684,8.5021,8.5028,8.5346,8.5405,8.5691,8.5934,8.5214,8.5483,8.5885,8.5196,8.4767,8.4328,8.3636,8.2667,8.183,8.183,8.159,8.1212,8.0883,8.0554,8.0225,7.9896,7.9836,7.9836,7.9836,7.9836,7.9716,7.9387,7.9627,7.9716,7.9357,8.0421,8.137,8.1841,8.254,8.3383,8.4377,8.4469,8.4546,8.4731,8.4458,8.4088,8.3579,8.3978,8.417,8.409,8.4794,8.5471,8.6088,8.6088,8.6251,8.6627,8.6627,8.679,8.1919,8.3812,8.4749,8.1145,7.9081,7.6027,6.8841,6.3397,0.0,0.0,4.9867,4.7418,4.8335,4.9448,5.1638,0.0,6.1201,6.5473,6.7627,7.0889,7.3359,0.0,0.0,0.0,0.0,0.0,0.0,0.0,0.0,0.0,8.2997,8.3576,8.4156,8.4664,8.4694,8.4694,8.4694,8.4844,8.5192,8.5701,8.5851,8.62,8.6708,8.6708,8.6708,8.6708,8.6708,0.0,0.0,8.614,8.5821,8.5671,8.5282,8.5372,8.5641,8.5282,8.5462,8.584,8.5162,8.4904,8.4893,8.4754,8.5167,8.5523,8.4421,8.4755,8.5291,8.416,8.3992,8.4,8.3428,8.3052,8.2806,8.2806,8.2417,8.183,8.1153,8.1003,8.0973,8.0823,8.0794,8.0794,8.0794,8.0794,8.0614,8.0087,8.0464,8.0614,8.0087,8.0752,8.1256,8.1257,8.2082,8.2933,8.3717,8.3909,8.4151,8.4491,8.4495,8.438,8.4141,8.4676,8.4943,8.4895,8.5567,8.6168,8.6694,8.6694,8.6694,8.6694,8.6694,8.6694,8.354,8.5806,8.6765,8.2014,7.8253,7.3776,6.6409,0.0,5.288,4.9885,4.5805,4.3409,4.5465,4.6011,4.7813,5.2864,5.7613,6.1537,6.4096,6.7852,7.0815,7.2042,0.0,0.0,0.0,0.0,0.0,0.0,0.0,0.0,8.3617,8.4245,8.4634,8.4694,8.4694,8.4694,8.4694,8.5312,8.5641,8.5701,8.6319,8.6648,8.6708,8.6708,8.6708,8.6708,0.0,0.0,0.0,8.6619,8.6259,8.5731,8.6289,8.62,8.5761,8.6319,8.6559,8.6499,8.5821,8.5611,8.5521,8.4904,8.4731,8.4787,8.465,8.428,8.3868,8.3762,8.3351,8.2958,8.2882,8.2825,8.2806,8.2806,8.2747,8.2537,8.186,8.171,8.153,8.0913,8.0794,8.0794,8.0794,8.0794,8.0764,8.0734,8.0764,8.0764,8.0734,8.0801,8.0874,8.0872,8.2105,8.2994,8.3082,8.3665,8.4163,8.4584,8.4322,8.4161,8.4175,8.4269,8.4269,8.4269,8.4647,8.5008,8.5383,8.5383,8.5383,8.5383,8.5383,8.5383,8.0959,8.3592,8.466,7.9374,7.547,7.0882,6.3108,0.0,5.0765,4.7659,4.4568,4.2672,4.3443,4.4239,4.5896,4.9309,5.3964,5.8215,6.1238,6.5084,6.8375,7.0516,7.2744,0.0,0.0,0.0,0.0,0.0,0.0,0.0,8.4904,8.5162,8.5492,8.59,8.5881,8.5881,8.5881,8.617,8.6289,8.6319,8.6559,8.6708,8.6708,8.6708,8.6708,8.6708,0.0,0.0,0.0,8.6708,8.6529,8.6319,8.6589,8.6529,8.6349,8.6589,8.6708,8.6648,8.6409,8.6289,8.6259,8.599,8.5881,8.5731,8.4933,8.4784,8.4814,8.4425,8.4145,8.3936,8.3936,8.3936,8.3936,8.3936,8.3636,8.3277,8.2989,8.2668,8.2309,8.2039,8.2009,8.2009,8.2009,8.2009,8.186,8.1471,8.174,8.186,8.1471,8.174,8.186,8.1471,8.1556,8.1686,8.1671,8.1932,8.2246,8.264,8.2931,8.3301,8.3749,8.4185,8.4477,8.474,8.4882,8.4993,8.5152,8.5152,8.5152,8.5152,8.5539,8.5725,7.8876,8.1932,8.31,7.7747,7.3204,6.8086,0.0,5.3757,4.8473,4.5732,4.3484,4.1973,4.1894,4.2535,4.3799,4.5994,5.0345,5.4593,5.7885,6.2091,6.5772,0.0,0.0,0.0,0.0,0.0,0.0,0.0,0.0,0.0,0.0,8.602,8.6229,8.6678,8.6708,8.6708,8.6708,8.6708,8.6708,8.6708,8.6708,8.6708,8.6708,8.6708,8.6708,8.6708,0.0,0.0,0.0,8.6708,8.6708,8.6708,8.6708,8.6708,8.6708,8.6708,8.6708,8.6708,8.6708,8.6708,8.6708,8.6708,8.6708,8.6529,8.5581,8.5492,8.5611,8.5132,8.4844,8.4694,8.4694,8.4694,8.4694,8.4694,8.4335,8.3946,8.3748,8.3367,8.2997,8.2836,8.2806,8.2806,8.2806,8.2806,8.2627,8.2178,8.2507,8.2627,8.2159,8.2507,8.2627,8.2129,8.168,8.1302,8.1093,8.1291,8.1578,8.1966,8.2425,8.3121,8.4075,8.4558,8.5127,8.5727,8.5727,8.5727,8.5727,8.5727,8.5727,8.5727,8.6219,8.6435,7.8352,8.1932,8.319,7.8145,7.2031,6.5434,5.8482,5.1075,4.5286,4.4004,4.2067,4.0664,4.0787,4.0598,4.1094,4.313,4.6762,5.0504,5.3803,5.88,6.2869,0.0,0.0,0.0,0.0,0.0,0.0,0.0,0.0,0.0,0.0,8.6678,8.6678,8.6708,8.6708,8.6708,8.6708,8.6708,8.6708,8.6708,8.6708,8.6708,8.6708,8.6708,8.6708,0.0,0.0,0.0,0.0,8.6708,8.6708,8.6708,8.6708,8.6708,8.6708,8.6708,8.6708,8.6708,8.6708,8.6708,8.6708,8.6708,8.6708,8.6708,8.6678,8.6229,8.5701,8.5671,8.5222,8.4694,8.4694,8.4694,8.4694,8.4694,8.4694,8.4515,8.3837,8.3688,8.3497,8.2926,8.2806,8.2806,8.2806,8.2806,8.2806,8.2776,8.2806,8.2806,8.2776,8.2806,8.2806,8.2776,8.2776,8.2507,8.186,8.2417,8.2946,8.3341,8.339,8.4036,8.5524,8.5574,8.6096,8.7143,8.7192,8.7192,8.7192,8.7192,8.7192,8.7192,8.7192,8.7192,7.2029,7.5223,7.6438,7.2306,6.7463,6.2181,5.6373,5.0394,4.557,4.3666,4.2,4.0753,4.0447,4.0389,4.0915,4.2451,4.5255,4.8716,5.2917,0.0,0.0,6.5278,7.0021,0.0,0.0,0.0,0.0,0.0,0.0,0.0,0.0,8.6708,8.6708,8.6708,8.6708,8.6708,8.6708,8.6708,8.6708,8.6708,8.6708,8.6708,8.6708,8.6708,0.0,0.0,0.0,0.0,0.0,8.6708,8.6708,8.6708,8.6708,8.6708,8.6708,8.6708,8.6708,8.6708,8.6708,8.6708,8.6708,8.6708,8.6708,8.6708,8.6708,8.6559,8.6379,8.6379,8.6229,8.608,8.608,8.608,8.608,8.608,8.5701,8.5342,8.5103,8.4694,8.4335,8.4145,8.4085,8.4085,8.4085,8.4085,8.4085,8.4085,8.4085,8.4085,8.4085,8.4085,8.4085,8.4085,8.4085,8.3636,8.2597,8.2687,8.3024,8.3568,8.3598,8.4279,8.5728,8.5796,8.6238,8.7173,8.7192,8.7192,8.7192,8.7192,8.7438,8.7881,8.7881,8.8128,6.5957,6.9352,7.0698,6.7296,6.3464,5.9135,5.3882,4.9032,4.5072,4.302,4.164,4.0675,4.0205,4.0284,4.0765,4.1862,4.3988,4.7149,5.1798,0.0,0.0,6.7537,0.0,0.0,0.0,0.0,0.0,0.0,0.0,0.0,0.0,8.6708,8.6708,8.6708,8.6708,8.6708,8.6708,8.6708,8.6708,8.6708,8.6708,8.6708,8.6708,8.6708,0.0,0.0,0.0,0.0,0.0,8.6708,8.6708,8.6708,8.6708,8.6708,8.6708,8.6708,8.6708,8.6708,8.6708,8.6708,8.6708,8.6708,8.6708,8.6708,8.6708,8.6708,8.6708,8.6708,8.6708,8.6708,8.6708,8.6708,8.6708,8.6708,8.6379,8.602,8.5731,8.5372,8.5013,8.4754,8.4694,8.4694,8.4694,8.4694,8.4694,8.4694,8.4694,8.4694,8.4694,8.4694,8.4694,8.4694,8.4694,8.4384,8.3596,8.3506,8.3666,8.4066,8.4096,8.4731,8.6237,8.6306,8.6838,8.7924,8.7943,8.7943,8.7943,8.7943,8.8159,8.8589,8.8589,8.8805,0.0,6.4027,6.579,6.2958,5.9854,5.6189,5.1187,4.7152,0.0,4.2146,4.1066,4.037,4.0085,4.0224,4.0666,4.1454,4.321,4.6102,0.0,5.6436,0.0,0.0,0.0,0.0,0.0,0.0,0.0,0.0,0.0,0.0,0.0,8.6708,8.6708,8.6708,8.6708,8.6708,8.6708,8.6708,8.6708,8.6708,8.6708,8.6708,8.6708,8.6708,0.0,0.0,0.0,0.0,0.0,8.6708,8.6708,8.6708,8.6708,8.6708,8.6708,8.6708,8.6708,8.6708,8.6708,8.6708,8.6708,8.6708,8.6708,8.6708,8.6708,8.6708,8.6708,8.6708,8.6708,8.6708,8.6708,8.6708,8.6708,8.6708,8.6708,8.6529,8.593,8.5761,8.5581,8.4963,8.4844,8.4844,8.4844,8.4844,8.4844,8.4844,8.4844,8.4844,8.4844,8.4844,8.4844,8.4844,8.4844,8.4844,8.4844,8.4754,8.4724,8.4773,8.4754,8.5441,8.6946,8.7015,8.7684,8.906,8.911,8.911,8.911,8.911,8.911,8.911,8.911,8.911,5.1311,0.0,5.9838,5.8271,5.5613,5.253,0.0,4.5728,4.2891,4.1656,4.0711,4.0194,4.0486,4.0452,4.1115,4.326,0.0,4.7986,5.4174,0.0,0.0,0.0,0.0,0.0,0.0,0.0,0.0,0.0,0.0,0.0,0.0,8.6708,8.6708,8.6708,8.6708,8.6708,8.6708,8.6708,8.6708,8.6708,8.6708,8.6708,8.6708,8.6708,0.0,0.0,0.0,0.0,8.6708,8.6708,8.6708,8.6708,8.6708,8.6708,8.6708,8.6708,8.6708,8.6708,8.6708,8.6708,8.6708,8.6708,8.6708,8.6708,8.6708,8.6708,8.6708,8.6708,8.6708,8.6708,8.6708,8.6708,8.6708,8.6708,8.6708,8.6648,8.6499,8.6469,8.6409,8.6259,8.6229,8.6229,8.6229,8.6229,8.6229,8.6229,8.6229,8.6229,8.6229,8.6229,8.6229,8.6229,8.6229,8.6229,8.6229,8.5282,8.4904,8.5432,8.5462,8.5996,8.7196,8.7216,8.756,8.8186,8.8205,8.8205,8.8205,8.8205,8.8205,8.8205,8.8205,8.8205,4.8296,5.1724,5.4531,5.324,5.1604,4.9535,4.6634,4.4029,4.1974,4.0929,4.0191,3.9889,4.047,4.0969,4.2082,0.0,4.6629,0.0,0.0,0.0,7.5736,0.0,0.0,0.0,0.0,0.0,0.0,0.0,0.0,0.0,0.0,8.6708,8.6708,8.6708,8.6708,8.6708,8.6708,8.6708,8.6708,8.6708,8.6708,8.6708,8.6708,8.6708,8.6708,0.0,0.0,0.0,8.6708,8.6708,8.6708,8.6708,8.6708,8.6708,8.6708,8.6708,8.6708,8.6708,8.6708,8.6708,8.6738,8.7067,8.7157,8.7157,8.7157,8.7367,8.7487,8.6858,8.6708,8.6708,8.6708,8.6708,8.6708,8.6708,8.6708,8.6708,8.6708,8.6708,8.6708,8.6708,8.6708,8.6708,8.6708,8.6708,8.6708,8.6708,8.6708,8.6708,8.6708,8.6708,8.6708,8.6708,8.6708,8.6708,8.6708,8.603,8.5761,8.614,8.617,8.6497,8.7251,8.73,8.7496,8.7895,8.7895,8.7895,8.7895,8.7895,8.7895,8.7895,8.7895,8.7895,4.79,4.9569,5.0485,4.9446,4.8849,4.7784,4.4968,4.3252,4.1965,4.0918,4.0335,4.0259,4.1145,4.2301,0.0,0.0,0.0,0.0,6.7254,7.3762,7.901,0.0,0.0,0.0,0.0,0.0,0.0,0.0,0.0,0.0,0.0,8.6708,8.6708,8.6708,8.6708,8.6708,8.6708,8.6708,8.6708,8.6708,8.6708,8.6708,8.6708,8.6708,8.6708,0.0,0.0,0.0,8.6708,8.6708,8.6708,8.6708,8.6708,8.6708,8.6708,8.6708,8.6708,8.6708,8.6708,8.6768,8.6948,8.7526,8.7766,8.7856,8.7856,8.8245,8.8474,8.7337,8.7008,8.7008,8.7008,8.7008,8.7008,8.7008,8.7008,8.7008,8.7008,8.7008,8.7008,8.7008,8.7008,8.7008,8.7008,8.7008,8.7008,8.7008,8.7008,8.7008,8.7008,8.7008,8.7008,8.7008,8.7008,8.7008,8.7008,8.7008,8.7008,8.7008,8.6798,8.6867,8.7202,8.7222,8.7379,8.772,8.772,8.772,8.772,8.772,8.772,8.772,8.772,8.772,4.6702,4.839,4.9734,5.0743,5.0288,4.9151,4.7549,4.6177,4.4969,4.4076,4.3297,4.3329,4.5074,4.6042,4.7938,0.0,0.0,0.0,0.0,0.0,0.0,0.0,0.0,0.0,0.0,0.0,0.0,0.0,0.0,0.0,0.0,8.6708,8.6708,8.6708,8.6708,8.6708,8.6708,8.6708,8.6708,8.6708,8.6708,8.6708,8.6708,8.6708,8.6708,0.0,0.0,8.6708,8.6708,8.6708,8.6708,8.6708,8.6708,8.6708,8.6708,8.6708,8.6708,8.6708,8.6708,8.7067,8.7556,8.7676,8.8095,8.8564,8.8564,8.8624,8.8654,8.8444,8.8384,8.8384,8.8384,8.8384,8.8384,8.8384,8.8384,8.8384,8.8384,8.8384,8.8384,8.8384,8.8384,8.8384,8.8384,8.8384,8.8384,8.8384,8.8384,8.8384,8.8384,8.8384,8.8384,8.8384,8.8384,8.8384,8.8384,8.8384,8.8384,8.8384,8.7337,8.6748,8.6807,8.6807,8.6797,8.6876,8.6876,8.6876,8.6876,8.6876,8.6876,8.6876,8.6876,8.6876,4.6147,4.7355,4.8487,5.0299,5.1024,5.0949,4.9766,4.8821,4.7927,4.6819,4.6026,4.6102,4.8065,0.0,5.3222,6.0027,0.0,0.0,0.0,0.0,0.0,0.0,0.0,0.0,0.0,0.0,0.0,0.0,0.0,0.0,0.0,0.0,8.6708,8.6708,8.6708,8.6708,8.6708,8.6708,8.6708,8.6708,8.6708,8.6708,8.6708,8.6708,8.6708,8.6708,0.0,8.6708,8.6708,8.6708,8.6708,8.6708,8.6708,8.6708,8.6708,8.6708,8.6708,8.6738,8.7127,8.7437,8.7826,8.8564,8.8983,8.9222,8.9222,8.9471,8.9681,8.9342,8.8983,8.8714,8.8714,8.8714,8.8714,8.8714,8.8714,8.8714,8.8714,8.8714,8.8714,8.8714,8.8714,8.8714,8.8714,8.8714,8.8714,8.8714,8.8714,8.8714,8.8714,8.8714,8.8714,8.8714,8.8714,8.8714,8.8714,8.8714,8.8714,8.8714,8.7766,8.7227,8.7227,8.6888,8.6708,8.6708,8.6708,8.6888,8.7227,8.7227,8.7427,8.7786,8.7786,8.7786,4.5585,4.6243,4.7145,4.9458,5.133,5.2459,5.1884,5.1907,5.1744,5.0571,4.9942,5.0152,0.0,5.4867,0.0,6.6729,0.0,0.0,0.0,0.0,0.0,0.0,0.0,0.0,0.0,0.0,0.0,0.0,0.0,0.0,0.0,0.0,8.6708,8.6708,8.6708,8.6708,8.6708,8.6708,8.6708,8.6708,8.6708,8.6708,8.6708,8.6708,8.6708,8.6708,8.6708,8.6708,8.6708,8.6708,8.6708,8.6708,8.6708,8.6708,8.6708,8.6708,8.6798,8.7008,8.7526,8.7915,8.8334,8.9372,8.9791,8.9911,8.9911,9.0249,9.0498,9.004,8.9552,8.9142,8.9142,8.9142,8.9142,8.9142,8.9142,8.9142,8.9142,8.9142,8.9142,8.9142,8.9142,8.9142,8.9142,8.9142,8.9142,8.9142,8.9142,8.9142,8.9142,8.9142,8.9142,8.9142,8.9142,8.9142,8.9142,8.9142,8.9142,8.9142,8.8245,8.7706,8.7706,8.7067,8.6708,8.6708,8.6708,8.7038,8.7706,8.7706,8.8035,8.8714,8.8714,8.8714,4.4618,4.4932,4.5794,4.88,5.1233,5.3139,5.4129,5.5998,5.732,5.6615,0.0,0.0,0.0,6.2137,6.6355,7.0021,0.0,0.0,0.0,0.0,0.0,0.0,0.0,0.0,0.0,0.0,0.0,0.0,0.0,0.0,0.0,0.0,0.0,8.6708,8.6708,8.6708,8.6708,8.6708,8.6708,8.6708,8.6708,8.6708,8.6708,8.6708,8.6708,8.6708,8.6708,8.6708,8.6708,8.6708,8.6708,8.6708,8.6708,8.6708,8.6708,8.6708,8.7097,8.7646,8.7676,8.8514,8.9552,8.9662,9.007,9.0537,9.0537,9.0567,9.0597,9.0537,9.0507,9.0447,9.0447,9.0447,9.0447,9.0447,9.0447,9.0447,9.0447,9.0447,9.0447,9.0447,9.0447,9.0447,9.0447,9.0447,9.0447,9.0447,9.0447,9.0447,9.0447,9.0447,9.0447,9.0447,9.0447,9.0447,9.0447,9.0447,9.0447,9.0447,8.8703,8.7706,8.7706,8.7067,8.6708,8.6708,8.6708,8.7038,8.7706,8.7706,8.8035,8.8714,8.8714,8.8714,4.4609,4.4342,4.4726,4.7594,5.0721,5.3729,5.6213,5.9077,6.1373,6.1898,6.2346,0.0,0.0,0.0,6.9439,7.2295,0.0,0.0,0.0,0.0,0.0,0.0,0.0,0.0,0.0,0.0,0.0,0.0,0.0,0.0,0.0,0.0,0.0,8.6708,8.6708,8.6708,8.6708,8.6708,8.6708,8.6708,8.6708,8.6708,8.6708,8.6708,8.6708,8.6708,8.6708,8.6708,8.6708,8.6708,8.6708,8.6738,8.7157,8.7317,8.7377,8.7786,8.8115,8.8364,8.8803,8.9282,8.9761,9.013,9.0408,9.0597,9.0597,9.0597,9.0597,9.0597,9.0597,9.0597,9.0597,9.0597,9.0597,9.0597,9.0597,9.0597,9.0597,9.0597,9.0597,9.0597,9.0597,9.0597,9.0597,9.0597,9.0597,9.0597,9.0597,9.0597,9.0597,9.0597,9.0597,9.0597,9.0597,9.0597,9.0597,9.0597,9.0597,9.0597,8.9561,8.8953,8.8953,8.8295,8.7935,8.7935,8.7935,8.8265,8.8953,8.8953,8.9262,8.987,8.987,8.987,4.4689,4.3848,4.3878,4.6601,5.0102,5.4024,5.8367,6.2271,6.5323,6.6595,6.7552,6.7851,6.6774,0.0,0.0,0.0,0.0,0.0,0.0,0.0,0.0,0.0,0.0,0.0,0.0,0.0,0.0,0.0,0.0,0.0,0.0,0.0,0.0,0.0,8.6379,8.6289,8.608,8.608,8.608,8.608,8.6289,8.6499,8.6708,8.6708,8.6708,8.6708,8.6708,8.6708,8.6708,8.6708,8.6708,8.6768,8.7437,8.7706,8.7796,8.8454,8.8833,8.9073,8.9542,8.9821,9.004,9.0468,9.0597,9.0597,9.0597,9.0597,9.0597,9.0597,9.0597,9.0597,9.0597,9.0597,9.0597,9.0597,9.0597,9.0597,9.0597,9.0597,9.0597,9.0597,9.0597,9.0597,9.0597,9.0597,9.0597,9.0597,9.0597,9.0597,9.0597,9.0597,9.0597,9.0597,9.0597,9.0597,9.0597,9.0597,9.0597,9.0597,9.0219,8.9911,8.9722,8.9043,8.8714,8.8714,8.8714,8.9043,8.9722,8.9722,9.001,9.0597,9.0597,9.0597,4.4736,4.3388,4.3305,4.5985,4.949,5.4012,6.0625,6.5712,6.9393,7.0709,7.2009,7.2339,7.0396,0.0,0.0,0.0,0.0,0.0,0.0,0.0,0.0,0.0,0.0,0.0,0.0,0.0,0.0,0.0,0.0,0.0,0.0,0.0,0.0,0.0,8.5701,8.5372,8.4694,8.4694,8.4694,8.4694,8.5372,8.605,8.6678,8.6708,8.6708,8.6708,8.6708,8.6708,8.6708,8.6708,8.6708,8.6768,8.7437,8.7706,8.7796,8.8454,8.9133,8.9722,8.9722,9.01,9.0597,9.0597,9.0597,9.0597,9.0597,9.0597,9.0597,9.0597,9.0597,9.0597,9.0597,9.0597,9.0597,9.0597,9.0597,9.0597,9.0597,9.0597,9.0597,9.0597,9.0597,9.0597,9.0597,9.0597,9.0597,9.0597,9.0597,9.0597,9.0597,9.0597,9.0597,9.0597,9.0597,9.0597,9.0597,9.0597,9.0597,9.0597,9.0597,9.0319,8.9731,8.9073,8.8714,8.8714,8.8714,8.9043,8.9722,8.9722,9.001,9.0597,9.0597,9.0597,4.5844,4.5614,4.6334,5.0259,5.4181,5.853,6.4246,6.8016,7.1637,7.6228,7.6736,7.5617,7.3193,0.0,0.0,0.0,0.0,0.0,0.0,0.0,0.0,0.0,0.0,0.0,0.0,0.0,0.0,0.0,0.0,0.0,0.0,0.0,0.0,0.0,8.5701,8.5372,8.4694,8.4694,8.4694,8.4694,8.4904,8.5342,8.602,8.6469,8.6708,8.6708,8.6708,8.6708,8.6708,8.6708,8.6708,8.6798,8.7965,8.8394,8.8544,8.963,9.0169,9.0319,9.0319,9.0468,9.0597,9.0597,9.0597,9.0597,9.0597,9.0597,9.0597,9.0597,9.0597,9.0597,9.0597,9.0597,9.0597,9.0597,9.0597,9.0597,9.0597,9.0597,9.0597,9.0597,9.0597,9.0597,9.0597,9.0597,9.0597,9.0597,9.0597,9.0597,9.0597,9.0597,9.0597,9.0597,9.0597,9.0597,9.0597,9.0597,9.0597,9.0597,9.0597,9.0507,9.0348,9.0139,9.0049,9.0049,9.0049,9.0139,9.0319,9.0319,9.0438,9.0597,9.0597,9.0597,4.6802,4.7739,4.943,5.369,5.8321,6.3707,7.0859,7.3492,0.0,0.0,8.0296,7.8729,7.6634,0.0,0.0,0.0,0.0,0.0,0.0,0.0,0.0,0.0,0.0,0.0,0.0,0.0,0.0,0.0,0.0,0.0,0.0,0.0,0.0,0.0,8.5023,8.4594,8.3936,8.3955,8.3955,8.3936,8.4186,8.4634,8.5342,8.602,8.6439,8.6708,8.6708,8.6708,8.6708,8.6708,8.6708,8.6798,8.7856,8.8474,8.8833,8.986,9.0378,9.0597,9.0597,9.0597,9.0597,9.0597,9.0597,9.0597,9.0597,9.0597,9.0597,9.0597,9.0597,9.0597,9.0597,9.0597,9.0597,9.0597,9.0597,9.0597,9.0597,9.0597,9.0597,9.0597,9.0597,9.0597,9.0597,9.0597,9.0597,9.0597,9.0597,9.0597,9.0597,9.0597,9.0597,9.0597,9.0597,9.0597,9.0597,9.0597,9.0597,9.0597,9.0597,9.0597,9.0597,9.0597,9.0597,9.0597,9.0597,9.0597,9.0597,9.0597,9.0597,9.0597,9.0597,9.0597,4.7563,4.9783,5.2564,5.6705,6.2391,6.9437,7.8849,8.0536,8.0865,8.3269,0.0,8.168,8.0326,0.0,0.0,0.0,0.0,0.0,0.0,0.0,0.0,0.0,0.0,0.0,0.0,0.0,0.0,0.0,0.0,0.0,0.0,0.0,0.0,8.4604,8.4036,8.3408,8.2806,8.2806,8.2806,0.0,8.3367,8.3976,8.4634,8.5372,8.608,8.6708,8.6708,8.6708,8.6708,8.6708,8.6708,8.6768,8.7437,8.8065,8.8714,8.9432,9.004,9.0507,9.0567,9.0597,9.0597,9.0597,9.0597,9.0597,9.0597,9.0597,9.0597,9.0597,9.0597,9.0597,9.0597,9.0597,9.0597,9.0597,9.0597,9.0597,9.0597,9.0597,9.0597,9.0597,9.0597,9.0597,9.0597,9.0597,9.0597,9.0597,9.0597,9.0597,9.0597,9.0597,9.0597,9.0597,9.0597,9.0597,9.0597,9.0597,9.0597,9.0597,9.0597,9.0597,9.0597,9.0597,9.0597,9.0597,9.0597,9.0597,9.0597,9.0597,9.0597,9.0597,9.0597,9.0597,4.7551,5.1319,5.5671,6.1134,6.8539,7.5869,8.1171,8.2619,8.3168,8.4245,8.4265,8.3696,8.2398,0.0,0.0,0.0,0.0,0.0,0.0,0.0,0.0,0.0,0.0,0.0,0.0,0.0,0.0,0.0,0.0,0.0,0.0,0.0,0.0,8.3927,8.3777,8.3408,8.2806,8.2806,8.2806,0.0,8.2907,8.3307,8.3976,8.5162,8.608,8.6708,8.6708,8.6708,8.6708,8.6708,8.6708,8.6768,8.7437,8.7796,8.8065,8.9252,8.9761,8.9971,9.0438,9.0597,9.0597,9.0597,9.0597,9.0597,9.0597,9.0597,9.0597,9.0597,9.0597,9.0597,9.0597,9.0597,9.0597,9.0597,9.0597,9.0597,9.0597,9.0597,9.0597,9.0597,9.0597,9.0597,9.0597,9.0597,9.0597,9.0597,9.0597,9.0597,9.0597,9.0597,9.0597,9.0597,9.0597,9.0597,9.0597,9.0597,9.0597,9.0597,9.0597,9.0597,9.0597,9.0597,9.0597,9.0597,9.0597,9.0597,9.0597,9.0597,9.0597,9.0597,9.0597,9.0597,4.8063,5.3139,5.9159,6.7941,7.4223,7.9189,8.2858,8.3965,8.4455,8.5462,8.5402,8.4893,0.0,0.0,0.0,0.0,0.0,0.0,0.0,0.0,0.0,0.0,0.0,0.0,0.0,0.0,0.0,0.0,0.0,8.4066,8.3718,8.3756,8.3756,8.3688,8.3408,8.3117,8.2806,8.2806,8.2806,8.2806,8.2806,8.3296,8.4215,8.5222,8.608,8.6708,8.6708,8.6708,8.6708,8.6708,8.6708,8.6738,8.7077,8.7407,8.7826,8.8863,8.9402,8.9791,9.0378,9.0597,9.0597,9.0597,9.0597,9.0597,9.0597,9.0597,9.0597,9.0597,9.0597,9.0597,9.0597,9.0597,9.0597,9.0597,9.0597,9.0597,9.0597,9.0597,9.0597,9.0597,9.0597,9.0597,9.0597,9.0597,9.0597,9.0597,9.0597,9.0597,9.0597,9.0597,9.0597,9.0597,9.0597,9.0597,9.0597,9.0597,9.0597,9.0597,9.0597,9.0597,9.0597,9.0597,9.0597,9.0597,9.0597,9.0597,9.0597,9.0597,9.0597,9.0597,9.0597,9.0597,4.8424,5.5316,6.3408,7.4283,7.8471,8.0805,8.3976,8.4694,8.5073,8.6409,8.6259,8.5671,0.0,0.0,0.0,0.0,0.0,0.0,0.0,0.0,0.0,0.0,0.0,0.0,0.0,0.0,0.0,0.0,0.0,8.3527,8.3527,8.3087,8.3027,8.3527,8.3057,8.2806,8.2806,8.2806,8.2806,8.2806,8.2806,8.3476,8.4724,8.5282,8.594,8.6708,8.6708,8.6708,8.6708,8.6708,8.6708,8.6708,8.6708,8.7038,8.7616,8.8414,8.9043,8.9612,9.0348,9.0597,9.0597,9.0597,9.0597,9.0597,9.0597,9.0597,9.0597,9.0597,9.0597,9.0597,9.0597,9.0597,9.0597,9.0597,9.0597,9.0597,9.0597,9.0597,9.0597,9.0597,9.0597,9.0597,9.0597,9.0597,9.0597,9.0597,9.0597,9.0597,9.0597,9.0597,9.0597,9.0597,9.0597,9.0597,9.0597,9.0687,9.0776,9.0776,9.0887,9.0866,9.0776,9.0776,9.0717,9.0597,9.0597,9.0597,9.0597,9.0597,9.0597,9.0597,9.0597,9.0597,4.781,5.8364,6.9303,7.5988,7.9178,8.1362,8.4066,8.4694,8.5073,0.0,8.6619,8.6349,0.0,0.0,0.0,0.0,0.0,0.0,0.0,0.0,0.0,0.0,0.0,0.0,0.0,0.0,0.0,0.0,8.2926,8.2926,8.2926,8.2836,8.2836,8.2926,8.2836,8.2806,8.2806,8.2806,8.2806,8.2806,8.2806,8.3476,8.4694,8.4784,8.5521,8.6708,8.6708,8.6708,8.6708,8.6708,8.6708,8.6708,8.6708,8.6738,8.6978,8.8235,8.8774,8.8993,9.0199,9.0597,9.0597,9.0597,9.0597,9.0597,9.0597,9.0597,9.0597,9.0597,9.0597,9.0597,9.0597,9.0597,9.0597,9.0597,9.0597,9.0597,9.0597,9.0597,9.0597,9.0597,9.0597,9.0597,9.0597,9.0597,9.0597,9.0597,9.0597,9.0597,9.0597,9.0597,9.0597,9.0597,9.0597,9.0597,9.0597,9.1126,9.1455,9.1455,9.1994,9.2054,9.1485,9.1455,9.1186,9.0597,9.0597,9.0597,9.0597,9.0597,9.0597,9.0597,9.0597,9.0597,5.1498,6.1463,7.05,7.6784,7.9866,8.1931,8.4205,8.4983,8.5521,8.6499,8.6708,8.6499,0.0,0.0,0.0,0.0,0.0,0.0,0.0,0.0,0.0,0.0,0.0,0.0,0.0,0.0,0.0,0.0,8.2806,8.2806,8.2806,8.2806,8.2806,8.2806,8.2806,8.2806,8.2806,8.2806,8.2806,8.2806,8.2806,8.3266,8.4156,8.4515,8.5432,8.6708,8.6708,8.6708,8.6708,8.6708,8.6708,8.6708,8.6708,8.6708,8.6858,8.8205,8.8714,8.8873,9.0169,9.0597,9.0597,9.0597,9.0597,9.0597,9.0597,9.0597,9.0597,9.0597,9.0597,9.0597,9.0597,9.0597,9.0597,9.0597,9.0597,9.0597,9.0597,9.0597,9.0597,9.0597,9.0597,9.0597,9.0597,9.0597,9.0717,9.1096,9.0836,9.0746,9.1126,9.0836,9.0597,9.0597,9.0597,9.0746,9.1126,9.1425,9.1754,9.2135,9.2434,9.2464,9.2194,9.1784,9.1455,9.1186,9.0776,9.0597,9.0597,9.0597,9.0597,9.0597,9.0597,9.0597,5.3611,6.1688,6.8525,7.4929,7.8178,8.0453,8.2869,8.4235,8.5242,0.0,8.6589,8.6559,8.605,0.0,0.0,0.0,0.0,0.0,0.0,0.0,0.0,0.0,0.0,0.0,0.0,0.0,0.0,0.0,8.2806,8.2806,8.2806,8.2806,8.2806,8.2806,8.2806,8.2806,8.2806,8.2806,8.2806,8.2806,8.2806,8.3117,8.3718,8.4215,8.5192,8.6469,8.6619,8.6708,8.6708,8.6708,8.6708,8.6708,8.6708,8.6708,8.6858,8.8205,8.8714,8.8873,9.0169,9.0597,9.0597,9.0597,9.0597,9.0597,9.0597,9.0597,9.0597,9.0597,9.0597,9.0597,9.0597,9.0597,9.0597,9.0597,9.0597,9.0597,9.0597,9.0597,9.0597,9.0597,9.0746,9.0806,9.0627,9.0746,9.0977,9.1306,9.0926,9.0836,9.1515,9.1156,9.0926,9.1096,9.1126,9.1306,9.1814,9.1994,9.2314,9.2823,9.3002,9.3032,9.2853,9.2374,9.2045,9.1844,9.1366,9.0947,9.0597,9.0597,9.0597,9.0597,9.0597,9.0687,5.1139,5.6902,6.2945,6.8898,7.2339,7.5318,7.9189,8.156,8.3476,8.5342,8.6259,8.6678,8.6648,8.6678,0.0,0.0,0.0,0.0,0.0,0.0,0.0,0.0,0.0,0.0,0.0,0.0,0.0,0.0,8.2806,8.2806,8.2806,8.2806,8.2806,8.2806,8.2806,8.2806,8.2806,8.2806,8.2806,8.2806,8.2806,8.3117,8.3688,8.3748,8.4485,8.5791,8.6409,8.6708,8.6708,8.6708,8.6708,8.6708,8.6708,8.6708,8.6858,8.8205,8.8714,8.8873,9.0169,9.0597,9.0597,9.0597,9.0597,9.0597,9.0597,9.0597,9.0597,9.0597,9.0597,9.0597,9.0597,9.0597,9.0597,9.0597,9.0597,9.0597,9.0597,9.0597,9.0597,9.0597,9.1126,9.1366,9.0717,9.1126,9.1336,9.0746,9.0627,9.0836,9.1515,9.1575,9.1784,9.2434,9.2494,9.2524,9.2554,9.3143,9.3503,9.3562,9.4139,9.4199,9.3562,9.3503,9.3203,9.2554,9.2524,9.1874,9.0597,9.0597,9.0597,9.0597,9.0597,9.0947,4.6741,5.1798,5.7363,6.2885,6.7208,7.1264,7.5664,7.8849,8.1661,8.4474,8.5581,8.62,8.6619,8.6708,8.6708,0.0,0.0,0.0,0.0,0.0,0.0,0.0,0.0,0.0,0.0,0.0,0.0,0.0,0.0,8.2806,8.2806,8.2806,8.2806,8.2806,8.2806,8.2674,8.234,8.2072,8.2091,8.234,8.234,8.2622,8.3147,8.3527,8.4215,8.5103,8.5761,8.6289,8.6708,8.6708,8.6708,8.6708,8.6708,8.6708,8.6858,8.8205,8.8714,8.8873,9.0169,9.0597,9.0597,9.0597,9.0597,9.0597,9.0597,9.0597,9.0597,9.0597,9.0597,9.0597,9.0597,9.0597,9.0597,9.0597,9.0947,9.1246,9.1246,9.0896,9.0717,9.1156,9.1425,9.1665,9.1844,9.1725,9.1665,9.1865,9.1156,9.1007,9.2105,9.1874,9.1844,9.2524,9.2613,9.2763,9.3203,9.3473,9.378,9.4199,9.4469,9.4499,9.4259,9.3832,9.3503,9.3263,9.2823,9.2374,9.1874,9.1874,9.1874,9.1874,9.1874,9.1994,4.3219,4.72,5.172,5.6572,6.0924,6.5293,7.0127,7.43,7.8262,8.2241,8.4096,8.5312,8.62,8.6349,8.6439,8.6648,0.0,0.0,0.0,0.0,0.0,0.0,0.0,0.0,0.0,0.0,0.0,0.0,0.0,0.0,8.2806,8.2806,8.2731,8.2579,8.2579,8.2369,8.19,8.163,8.163,8.19,8.2034,8.2244,8.2579,8.3141,8.3856,8.4724,8.5162,8.5851,8.6708,8.6708,8.6708,8.6708,8.6708,8.6708,8.6858,8.8205,8.8714,8.8873,9.0169,9.0597,9.0597,9.0597,9.0597,9.0597,9.0597,9.0597,9.0597,9.0597,9.0597,9.0597,9.0597,9.0597,9.0657,9.0866,9.1276,9.1665,9.1874,9.1575,9.1395,9.1844,9.2135,9.2344,9.2554,9.2434,9.2344,9.2554,9.1844,9.1665,9.2793,9.2554,9.2524,9.3212,9.3272,9.3451,9.39,9.3951,9.411,9.4588,9.4618,9.4618,9.4618,9.4169,9.3951,9.3951,9.3511,9.3152,9.2913,9.2494,9.2374,9.2583,9.2374,9.2494,0.0,0.0,0.0,4.9931,5.3426,5.73,6.248,6.7822,7.3133,7.8501,8.1702,8.3976,8.5372,8.5671,8.5881,8.6529,8.6648,0.0,0.0,0.0,0.0,0.0,0.0,0.0,0.0,0.0,0.0,0.0,8.3128,8.2806,8.2787,8.2787,8.2579,8.211,8.2072,8.1861,8.1505,8.1456,8.1456,8.1505,8.1861,8.2053,8.2091,8.253,8.3468,8.4655,8.4655,8.5423,8.6659,8.6708,8.6708,8.6708,8.6708,8.6708,8.6858,8.8205,8.8714,8.8873,9.0169,9.0597,9.0597,9.0597,9.0597,9.0597,9.0597,9.0597,9.0597,9.0597,9.0597,9.0597,9.0627,9.0627,9.0806,9.1485,9.1635,9.1844,9.2494,9.2643,9.2643,9.2643,9.3173,9.3413,9.2763,9.3182,9.3383,9.2733,9.2613,9.2823,9.3503,9.3592,9.3862,9.4528,9.4618,9.4618,9.4618,9.4618,9.4618,9.4618,9.4618,9.4618,9.4618,9.4618,9.4618,9.4618,9.4618,9.4289,9.3622,9.2314,9.1964,9.2583,9.1934,9.2374,3.7682,0.0,0.0,0.0,0.0,0.0,0.0,6.1028,6.7313,7.3535,7.7682,8.1003,8.3737,8.4634,8.5043,8.5222,8.5252,8.5252,0.0,0.0,0.0,0.0,0.0,0.0,0.0,0.0,0.0,0.0,8.2706,8.2655,8.2302,8.2282,8.2225,8.2091,8.1563,8.1195,8.1078,8.0785,8.0785,8.1078,8.1166,8.1379,8.1669,8.1784,8.2582,8.3825,8.3825,8.4763,8.63,8.6589,8.6708,8.6708,8.6708,8.6708,8.6858,8.8205,8.8714,8.8873,9.0169,9.0597,9.0597,9.0597,9.0597,9.0597,9.0597,9.0597,9.0597,9.0597,9.0597,9.0717,9.1216,9.1665,9.2105,9.2284,9.2703,9.3092,9.3272,9.3691,9.39,9.3413,9.3473,9.3712,9.399,9.378,9.3532,9.3353,9.2913,9.2823,9.3503,9.3592,9.3862,9.4528,9.4618,9.4618,9.4618,9.4618,9.4618,9.4618,9.4618,9.4618,9.4618,9.4618,9.4618,9.4618,9.4618,9.4528,9.4319,9.3451,9.2883,9.2613,9.2913,9.3511,0.0,0.0,0.0,0.0,0.0,0.0,5.0014,5.5671,6.2016,0.0,7.2744,7.6514,7.9848,8.0775,8.0943,8.0674,8.1044,8.2181,8.4395,0.0,0.0,0.0,0.0,0.0,0.0,8.3733,8.3193,8.2556,8.2365,8.213,8.1842,8.1996,8.1938,8.1592,8.1127,8.0824,8.0648,8.0412,8.0412,8.0648,8.0824,8.1039,8.1273,8.1418,8.2232,8.3519,8.3519,8.4366,8.583,8.6271,8.6549,8.6708,8.6708,8.6858,8.7247,8.8325,8.8893,8.9252,9.0259,9.0597,9.0597,9.0597,9.0597,9.0597,9.0597,9.0597,9.0597,9.0597,9.0806,9.1126,9.1485,9.2105,9.2673,9.2943,9.3323,9.3682,9.396,9.4319,9.4499,9.408,9.402,9.4139,9.4528,9.4289,9.402,9.402,9.3691,9.3571,9.396,9.402,9.4169,9.4558,9.4618,9.4618,9.4618,9.4618,9.4618,9.4618,9.4618,9.4618,9.4618,9.4618,9.4618,9.4618,9.4618,9.4469,9.4169,9.3511,9.2972,9.2613,9.3571,9.4229,3.958,0.0,0.0,0.0,0.0,0.0,4.6262,5.1151,5.6928,0.0,6.6954,7.0739,7.418,7.4869,7.4719,7.4108,7.5228,7.7993,8.3288,8.4156,0.0,0.0,0.0,0.0,8.4249,8.3424,8.2894,8.2856,8.1955,8.1437,8.1495,8.1784,8.163,8.0942,8.0864,8.0668,8.0294,8.0294,8.0294,8.0294,8.0668,8.0844,8.0864,8.1214,8.2095,8.338,8.338,8.4107,8.5356,8.583,8.6251,8.6649,8.6659,8.7127,8.7796,8.8454,8.9133,8.9791,9.0378,9.0597,9.0597,9.0597,9.0597,9.0597,9.0597,9.0597,9.0597,9.0597,9.1156,9.1695,9.1695,9.2263,9.2972,9.3592,9.3712,9.387,9.4469,9.4618,9.4618,9.4618,9.4618,9.4618,9.4618,9.4618,9.4618,9.4618,9.4618,9.4618,9.4618,9.4618,9.4618,9.4618,9.4618,9.4618,9.4618,9.4618,9.4618,9.4618,9.4618,9.4618,9.4618,9.4618,9.4618,9.4618,9.4528,9.4169,9.3503,9.2883,9.2643,9.2733,9.393,9.4528,4.1772,4.2301,4.2591,0.0,0.0,0.0,0.0,4.6332,5.1061,5.5406,5.9458,6.3378,6.7223,6.8375,6.869,6.8571,7.053,7.3911,7.9208,8.0883,8.1639,0.0,0.0,0.0,8.1478,8.1658,8.1682,8.1352,8.1137,8.1175,8.1476,8.1292,8.1078,8.0922,8.0589,8.0373,8.0294,8.0294,8.0294,8.0294,8.0373,8.0412,8.0412,8.0491,8.1229,8.2472,8.2472,8.3403,8.4968,8.5365,8.5809,8.626,8.6569,8.7127,8.7796,8.8454,8.9133,8.9791,9.0378,9.0597,9.0597,9.0597,9.0597,9.0597,9.0597,9.0597,9.0597,9.0597,9.1485,9.2404,9.2404,9.3302,9.4259,9.4379,9.4409,9.4439,9.4588,9.4618,9.4618,9.4618,9.4618,9.4618,9.4618,9.4618,9.4618,9.4618,9.4618,9.4618,9.4618,9.4618,9.4618,9.4618,9.4618,9.4618,9.4618,9.4618,9.4618,9.4618,9.4618,9.4618,9.4618,9.4618,9.4618,9.4618,9.405,9.3451,9.2793,9.2673,9.2883,9.3413,9.3682,9.408,4.4357,4.4586,4.4516,4.318,0.0,0.0,0.0,4.4716,4.8226,5.1535,5.4581,5.7676,6.0954,6.1822,6.2076,6.2076,6.4575,6.7897,7.1846,7.6488,7.9797,8.0623,0.0,0.0,8.0658,8.0644,8.0658,8.0599,8.0805,8.0903,8.0903,8.0903,8.0824,8.0609,8.0703,8.0759,8.0759,8.1078,8.1078,8.0759,8.0759,8.0585,8.0323,8.0614,8.1281,8.221,8.2559,8.3369,8.4488,8.5162,8.5547,8.5809,8.647,8.7307,8.8245,8.8594,8.9292,9.019,9.0498,9.0597,9.0597,9.0597,9.0597,9.0597,9.0597,9.0597,9.0597,9.0597,9.1575,9.2613,9.2613,9.3601,9.4618,9.4618,9.4618,9.4618,9.4618,9.4618,9.4618,9.4618,9.4618,9.4618,9.4618,9.4618,9.4618,9.4618,9.4618,9.4618,9.4618,9.4618,9.4618,9.4618,9.4618,9.4618,9.4618,9.4618,9.4618,9.4618,9.4618,9.4618,9.4618,9.4618,9.4618,9.4618,9.4259,9.393,9.3601,9.3601,9.3242,9.2613,9.2943,9.3272,0.0,0.0,0.0,0.0,0.0,4.4137,0.0,0.0,0.0,4.8592,5.0451,0.0,0.0,0.0,0.0,0.0,0.0,0.0,0.0,7.0458,0.0,7.8296,0.0,0.0,7.9262,7.9262,7.9326,7.955,7.9851,8.0007,7.9937,8.0347,8.0483,8.0314,8.0875,8.1194,8.1194,8.1862,8.192,8.1397,8.1252,8.0991,8.0672,8.1049,8.163,8.2413,8.2965,8.3517,8.418,8.4979,8.5316,8.5477,8.634,8.7516,8.8714,8.8714,8.9501,9.0597,9.0597,9.0597,9.0597,9.0597,9.0597,9.0597,9.0597,9.0597,9.0597,9.0597,9.1575,9.2613,9.2613,9.3601,9.4618,9.4618,9.4618,9.4618,9.4618,9.4618,9.4618,9.4618,9.4618,9.4618,9.4618,9.4618,9.4618,9.4618,9.4618,9.4618,9.4618,9.4618,9.4618,9.4618,9.4618,9.4618,9.4618,9.4618,9.4618,9.4618,9.4618,9.4618,9.4618,9.4618,9.4618,9.4618,9.4469,9.4409,9.4409,9.4289,9.349,9.2173,9.2733,9.3002,0.0,0.0,0.0,0.0,4.6082,0.0,0.0,0.0,4.3898,4.4775,0.0,0.0,0.0,0.0,0.0,0.0,0.0,0.0,5.7663,6.1154,6.5726,7.2006,7.4309,0.0,0.0,7.5906,7.6905,7.6936,7.6973,7.7467,7.8553,7.9172,7.9743,8.0265,8.0875,8.1194,8.1194,8.1862,8.2152,8.2065,8.1484,8.1484,8.1949,8.1426,8.1891,8.3081,8.3168,8.3517,8.4138,8.4661,8.5081,8.5477,8.634,8.7516,8.8714,8.8714,8.9501,9.0597,9.0597,9.0597,9.0597,9.0597,9.0597,9.0597,9.0597,9.0597,9.0597,9.0597,9.1575,9.2613,9.2613,9.3601,9.4618,9.4618,9.4618,9.4618,9.4618,9.4618,9.4618,9.4618,9.4618,9.4618,9.4618,9.4618,9.4618,9.4618,9.4618,9.4618,9.4618,9.4618,9.4618,9.4618,9.4618,9.4618,9.4618,9.4618,9.4618,9.4618,9.4618,9.4618,9.4618,9.4618,9.4618,9.4618,9.4041,9.3712,9.3712,9.3122,9.3332,9.4238,9.4349,9.4357,0.0,0.0,0.0,0.0,0.0,0.0,0.0,0.0,4.4546,0.0,0.0,0.0,0.0,0.0,0.0,0.0,0.0,0.0,0.0,0.0,5.9664,0.0,0.0,0.0,0.0,0.0,0.0,0.0,7.4808,7.5534,7.7207,7.8553,7.9423,7.9714,8.1049,8.1775,8.1775,8.2791,8.3131,8.2762,8.25,8.2297,8.2181,8.2297,8.2675,8.3226,8.3575,8.3885,8.4138,8.462,8.4907,8.5142,8.601,8.7296,8.8714,8.8714,8.9501,9.0597,9.0597,9.0597,9.0597,9.0597,9.0597,9.0597,9.0597,9.0597,9.0597,9.0597,9.1306,9.2135,9.2494,9.3302,9.411,9.4528,9.4618,9.4618,9.4618,9.4618,9.4618,9.4618,9.4618,9.4618,9.4618,9.4618,9.4618,9.4618,9.4618,9.4618,9.4618,9.4618,9.4618,9.4618,9.4618,9.4618,9.4618,9.4618,9.4618,9.4618,9.4618,9.4618,9.4618,9.4618,9.4618,9.4618,9.4319,9.4169,9.4169,9.39,9.405,9.4588,9.381,9.3451,5.871,0.0,0.0,0.0,0.0,0.0,0.0,0.0,0.0,0.0,0.0,0.0,0.0,0.0,0.0,0.0,0.0,0.0,0.0,0.0,0.0,0.0,0.0,0.0,0.0,0.0,0.0,0.0,0.0,7.295,7.5077,7.7323,7.8698,7.9046,8.0904,8.192,8.192,8.3218,8.3633,8.3197,8.3197,8.3023,8.2733,8.3052,8.3284,8.3458,8.3914,8.4118,8.4138,8.4468,8.4769,8.51,8.5883,8.7251,8.879,8.8713,8.9501,9.0597,9.0597,9.0597,9.0597,9.0597,9.0597,9.0597,9.0597,9.0597,9.0597,9.0597,9.1075,9.1695,9.2194,9.2943,9.3712,9.4199,9.4469,9.4618,9.4618,9.4618,9.4618,9.4618,9.4618,9.4618,9.4618,9.4618,9.4618,9.4618,9.4618,9.4618,9.4618,9.4618,9.4618,9.4618,9.4618,9.4618,9.4618,9.4618,9.4618,9.4618,9.4618,9.4618,9.4618,9.4618,9.4618,9.4618,9.4618,9.4618,9.4618,9.4618,9.4618,9.4588,9.3601,9.3152,0.0,0.0,0.0,5.4748,0.0,0.0,0.0,0.0,4.6271,0.0,0.0,0.0,0.0,0.0,0.0,0.0,0.0,0.0,0.0,0.0,0.0,0.0,0.0,0.0,0.0,6.5431,6.6464,0.0,6.7712,0.0,7.1737,7.4874,7.7149,7.8407,8.0236,8.1223,8.1223,8.2559,8.3226,8.3197,8.3197,8.3487,8.4031,8.3458,8.3537,8.4068,8.4089,8.4118,8.4118,8.4118,8.4735,8.5724,8.6206,8.7454,8.8985,8.876,8.9501,9.0597,9.0597,9.0597,9.0597,9.0597,9.0597,9.0597,9.0597,9.0597,9.0597,9.0597,9.1075,9.1605,9.1635,9.2613,9.3622,9.3622,9.411,9.4618,9.4618,9.4618,9.4618,9.4618,9.4618,9.4618,9.4618,9.4618,9.4618,9.4618,9.4618,9.4618,9.4618,9.4618,9.4618,9.4618,9.4618,9.4618,9.4618,9.4618,9.4618,9.4618,9.4618,9.4618,9.4618,9.4618,9.4618,9.4618,9.4618,9.4618,9.4618,9.4618,9.4618,9.4618,9.4558,9.4558,0.0,0.0,6.2524,6.0471,0.0,0.0,0.0,0.0,0.0,0.0,0.0,0.0,0.0,0.0,0.0,0.0,0.0,0.0,0.0,0.0,0.0,0.0,0.0,0.0,0.0,0.0,0.0,0.0,6.3705,0.0,6.899,7.2997,7.5784,7.7091,7.9791,8.1194,8.1194,8.253,8.3197,8.3197,8.3604,8.3914,8.4089,8.3885,8.3914,8.4118,8.4118,8.4118,8.4118,8.4118,8.4578,8.5368,8.6091,8.7287,8.8608,8.9166,8.989,9.0597,9.0597,9.0597,9.0597,9.0597,9.0597,9.0597,9.0597,9.0597,9.0597,9.0597,9.0746,9.1036,9.1485,9.2284,9.3032,9.3503,9.411,9.4618,9.4618,9.4618,9.4618,9.4618,9.4618,9.4618,9.4618,9.4618,9.4618,9.4618,9.4618,9.4618,9.4618,9.4618,9.4618,9.4618,9.4618,9.4618,9.4618,9.4618,9.4618,9.4618,9.4618,9.4618,9.4618,9.4618,9.4618,9.4618,9.4618,9.4618,9.4618,9.4618,9.4618,9.4618,9.4618,9.4618,7.1767,6.9804,0.0,6.5782,6.303,0.0,5.6841,0.0,0.0,0.0,0.0,0.0,0.0,0.0,0.0,0.0,0.0,0.0,0.0,0.0,0.0,0.0,0.0,0.0,0.0,0.0,5.7565,5.9016,5.9916,6.1992,0.0,0.0,7.3752,7.5774,7.9124,8.0875,8.0875,8.2181,8.2849,8.2849,8.3711,8.4118,8.4118,8.4118,8.4118,8.4118,8.4118,8.4118,8.4118,8.4118,8.462,8.5516,8.6403,8.7528,8.8754,8.9432,9.007,9.0597,9.0597,9.0597,9.0597,9.0597,9.0597,9.0597,9.0597,9.0597,9.0597,9.0597,9.0597,9.0687,9.1126,9.1904,9.2703,9.3143,9.393,9.4618,9.4618,9.4618,9.4618,9.4618,9.4618,9.4618,9.4618,9.4618,9.4618,9.4618,9.4618,9.4618,9.4618,9.4618,9.4618,9.4618,9.4618,9.4618,9.4618,9.4618,9.4618,9.4618,9.4618,9.4618,9.4618,9.4618,9.4618,9.4618,9.4618,9.4618,9.4618,9.4618,9.4618,9.4618,9.4618,9.4618]},{"header":{"parameterUnit":"m.s-1","parameterCategory":1,"la1":30.6,"la2":29.2853,"lo1":-89.7004,"lo2":-87.6739,"dy":0.0162,"dx":0.0183,"nx":112,"ny":82,"refTime":"2026-04-02T12:00:00:Z","depth":0,"parameterNumber":3,"parameterNumberName":"V-component_of_WINDS"},"data":[0.0,0.0,0.0,0.0,0.0,0.0,0.0,0.0,0.0,0.0,0.0,0.0,0.0,0.0,0.0,0.0,0.0,0.0,0.0,0.0,0.0,0.0,0.0,0.0,0.0,0.0,0.0,0.0,0.0,0.0,0.0,0.0,0.0,0.0,0.0,0.0,0.0,0.0,0.0,0.0,0.0,0.0,0.0,0.0,0.0,0.0,0.0,0.0,0.0,0.0,0.0,0.0,0.0,0.0,0.0,0.0,0.0,0.0,0.0,0.0,0.0,0.0,0.0,0.0,0.0,0.0,0.0,0.0,0.0,0.0,0.0,0.0,0.0,0.0,0.0,0.0,0.0,0.0,0.0,0.0,0.0,0.0,0.0,0.0,0.0,0.0,0.0,0.0,0.0,0.0,0.0,2.6351,3.1576,3.4228,3.2844,3.1721,2.9909,2.7076,0.0,0.0,0.0,0.0,0.0,0.0,0.0,0.0,0.0,0.0,0.0,0.0,0.0,0.0,0.0,0.0,0.0,0.0,0.0,0.0,0.0,0.0,0.0,0.0,0.0,0.0,0.0,0.0,0.0,0.0,0.0,0.0,0.0,0.0,0.0,0.0,0.0,0.0,0.0,0.0,0.0,0.0,0.0,0.0,0.0,0.0,0.0,0.0,0.0,0.0,0.0,0.0,0.0,0.0,0.0,0.0,0.0,0.0,0.0,0.0,0.0,0.0,0.0,0.0,0.0,0.0,0.0,0.0,0.0,0.0,0.0,0.0,0.0,0.0,0.0,0.0,0.0,0.0,0.0,0.0,0.0,0.0,0.0,0.0,0.0,0.0,0.0,0.0,0.0,0.0,0.0,0.0,0.0,0.0,0.0,0.0,0.0,0.0,0.0,0.0,0.0,0.0,0.0,0.0,2.464,3.0668,3.4397,3.6069,3.5157,3.4303,3.2466,2.9325,0.0,0.0,0.0,0.0,0.0,0.0,0.0,0.0,0.0,0.0,0.0,0.0,0.0,0.0,0.0,0.0,0.0,0.0,0.0,0.0,0.0,0.0,0.0,0.0,0.0,0.0,0.0,0.0,0.0,0.0,0.0,0.0,0.0,0.0,0.0,0.0,0.0,0.0,0.0,0.0,0.0,0.0,0.0,0.0,0.0,0.0,0.0,0.0,0.0,0.0,0.0,0.0,0.0,0.0,0.0,0.0,0.0,0.0,0.0,0.0,0.0,0.0,0.0,0.0,0.0,0.0,0.0,0.0,0.0,0.0,0.0,0.0,0.0,0.0,0.0,0.0,0.0,0.0,0.0,0.0,0.0,0.0,0.0,0.0,0.0,0.0,0.0,0.0,0.0,0.0,0.0,0.0,0.0,0.0,0.0,0.0,0.0,0.0,0.0,0.0,0.0,0.0,0.0,2.5363,2.9055,3.2764,3.5358,3.6292,3.5046,3.4018,3.2054,2.8821,2.4793,0.0,0.0,0.0,0.0,0.0,0.0,0.0,0.0,0.0,0.0,0.0,0.0,0.0,0.0,0.0,0.0,0.0,0.0,0.0,0.0,0.0,0.0,0.0,0.0,0.0,0.0,0.0,0.0,0.0,0.0,0.0,0.0,0.0,0.0,0.0,0.0,0.0,0.0,0.0,0.0,0.0,0.0,0.0,0.0,0.0,0.0,0.0,0.0,0.0,0.0,0.0,0.0,0.0,0.0,0.0,0.0,0.0,0.0,0.0,0.0,0.0,0.0,0.0,0.0,0.0,0.0,0.0,0.0,0.0,0.0,0.0,0.0,0.0,0.0,0.0,0.0,0.0,0.0,0.0,0.0,0.0,0.0,0.0,0.0,0.0,0.0,0.0,0.0,0.0,0.0,0.0,0.0,0.0,0.0,0.0,0.0,0.0,0.0,0.0,0.0,0.0,0.0,3.0205,3.3116,3.4196,3.5906,3.6255,3.455,3.312,3.0937,2.772,2.442,0.0,0.0,0.0,0.0,0.0,0.0,0.0,0.0,0.0,0.0,0.0,0.0,0.0,0.0,0.0,0.0,0.0,0.0,0.0,0.0,0.0,0.0,0.0,0.0,0.0,0.0,0.0,0.0,0.0,0.0,0.0,0.0,0.0,0.0,0.0,0.0,0.0,0.0,0.0,0.0,0.0,0.0,0.0,0.0,0.0,0.0,0.0,0.0,0.0,0.0,0.0,0.0,0.0,0.0,0.0,0.0,0.0,0.0,0.0,0.0,0.0,0.0,0.0,0.0,0.0,0.0,0.0,0.0,0.0,0.0,0.0,0.0,0.0,0.0,0.0,0.0,0.0,0.0,0.0,0.0,0.0,0.0,0.0,0.0,0.0,0.0,0.0,0.0,0.0,0.0,0.0,0.0,0.0,0.0,0.0,0.0,0.0,0.0,0.0,0.0,0.0,0.0,3.2631,3.5376,3.5467,3.6603,3.6549,3.4568,3.2625,3.0097,2.6898,2.3596,0.0,0.0,0.0,0.0,0.0,0.0,0.0,0.0,0.0,0.0,0.0,0.0,0.0,0.0,0.0,0.0,0.0,0.0,0.0,0.0,0.0,0.0,0.0,0.0,0.0,0.0,0.0,0.0,0.0,0.0,0.0,0.0,0.0,0.0,0.0,0.0,0.0,0.0,0.0,0.0,0.0,0.0,0.0,0.0,0.0,0.0,0.0,0.0,0.0,0.0,0.0,0.0,0.0,0.0,0.0,0.0,0.0,0.0,0.0,0.0,0.0,0.0,0.0,0.0,0.0,0.0,0.0,0.0,0.0,0.0,0.0,0.0,0.0,0.0,0.0,0.0,0.0,0.0,0.0,0.0,0.0,0.0,0.0,0.0,0.0,0.0,0.0,0.0,0.0,0.0,0.0,0.0,0.0,0.0,0.0,0.0,0.0,0.0,0.0,0.0,0.0,0.0,3.3028,3.5705,0.0,3.7043,3.686,3.4587,3.279,3.028,2.6825,0.0,0.0,0.0,0.0,0.0,0.0,0.0,0.0,0.0,0.0,0.0,0.0,0.0,0.0,0.0,0.0,0.0,0.0,0.0,0.0,0.0,0.0,0.0,0.0,0.0,0.0,0.0,0.0,0.0,0.0,0.0,0.0,0.0,0.0,0.0,0.0,0.0,0.0,0.0,0.0,0.0,0.0,0.0,0.0,0.0,0.0,0.0,0.0,0.0,0.0,0.0,0.0,0.0,0.0,0.0,0.0,0.0,0.0,0.0,0.0,0.0,0.0,0.0,0.0,0.0,0.0,0.0,0.0,0.0,0.0,0.0,0.0,0.0,0.0,0.0,0.0,0.0,0.0,0.0,0.0,0.0,0.0,0.0,0.0,0.0,0.0,0.0,0.0,0.0,0.0,0.0,0.0,0.0,0.0,0.0,0.0,0.0,0.0,0.0,0.0,0.0,0.0,2.9645,3.3778,3.6516,0.0,3.785,3.748,3.5163,3.3363,3.0801,2.7127,0.0,0.0,0.0,0.0,0.0,0.0,0.0,0.0,0.0,0.0,0.0,0.0,0.0,0.0,0.0,0.0,0.0,0.0,0.0,0.0,0.0,0.0,0.0,0.0,0.0,0.0,0.0,0.0,0.0,0.0,0.0,0.0,0.0,0.0,0.0,0.0,0.0,0.0,0.0,0.0,0.0,0.0,0.0,0.0,0.0,0.0,0.0,0.0,0.0,0.0,0.0,0.0,0.0,0.0,0.0,0.0,0.0,0.0,0.0,0.0,0.0,0.0,0.0,0.0,0.0,0.0,0.0,0.0,0.0,0.0,0.0,0.0,0.0,0.0,0.0,0.0,0.0,0.0,0.0,0.0,0.0,0.0,0.0,0.0,0.0,0.0,0.0,0.0,0.0,0.0,0.0,0.0,0.0,0.0,0.0,0.0,0.0,0.0,0.0,0.0,0.0,0.0,3.0881,3.5277,3.8198,3.8652,3.9069,3.8463,3.6414,3.4376,3.161,0.0,0.0,0.0,0.0,0.0,0.0,0.0,0.0,0.0,0.0,0.0,0.0,0.0,0.0,0.0,0.0,0.0,0.0,0.0,0.0,0.0,0.0,0.0,0.0,0.0,0.0,0.0,0.0,0.0,0.0,0.0,0.0,0.0,0.0,0.0,0.0,0.0,0.0,0.0,0.0,0.0,0.0,0.0,0.0,0.0,0.0,0.0,0.0,0.0,0.0,0.0,0.0,0.0,0.0,0.0,0.0,0.0,0.0,0.0,0.0,0.0,0.0,0.0,0.0,0.0,0.0,0.0,0.0,0.0,0.0,0.0,0.0,0.0,0.0,0.0,0.0,0.0,0.0,0.0,0.0,0.0,0.0,0.0,0.0,0.0,0.0,0.0,0.0,0.0,0.0,0.0,0.0,0.0,0.0,0.0,0.0,0.0,0.0,0.0,0.0,0.0,0.0,0.0,0.0,3.5746,3.8766,3.9486,3.9902,3.9448,3.7685,3.5901,3.328,2.9497,0.0,0.0,0.0,0.0,0.0,0.0,0.0,0.0,0.0,0.0,0.0,0.0,0.0,0.0,0.0,0.0,0.0,0.0,0.0,0.0,0.0,0.0,0.0,0.0,0.0,0.0,0.0,0.0,0.0,0.0,0.0,0.0,0.0,0.0,0.0,0.0,0.0,0.0,0.0,0.0,0.0,0.0,0.0,0.0,0.0,0.0,0.0,0.0,0.0,0.0,0.0,0.0,0.0,0.0,0.0,0.0,0.0,0.0,0.0,0.0,0.0,0.0,0.0,0.0,0.0,0.0,0.0,0.0,0.0,0.0,0.0,0.0,0.0,0.0,0.0,0.0,0.0,0.0,0.0,0.0,0.0,0.0,0.0,0.0,0.0,0.0,0.0,0.0,0.0,0.0,0.0,0.0,0.0,0.0,0.0,0.0,0.0,0.0,0.0,0.0,0.0,0.0,3.1939,3.6555,3.974,4.0584,4.0871,4.0488,3.9164,3.782,3.5342,3.1362,0.0,0.0,0.0,0.0,0.0,0.0,0.0,0.0,0.0,0.0,0.0,0.0,0.0,0.0,0.0,0.0,0.0,0.0,0.0,0.0,0.0,0.0,0.0,0.0,0.0,0.0,0.0,0.0,0.0,0.0,0.0,0.0,0.0,0.0,0.0,0.0,0.0,0.0,0.0,0.0,0.0,0.0,0.0,0.0,0.0,0.0,0.0,0.0,0.0,0.0,0.0,0.0,0.0,0.0,0.0,0.0,0.0,0.0,0.0,0.0,0.0,0.0,0.0,0.0,0.0,0.0,0.0,0.0,0.0,0.0,0.0,0.0,0.0,0.0,0.0,0.0,0.0,0.0,0.0,0.0,0.0,0.0,0.0,0.0,0.0,0.0,0.0,0.0,0.0,0.0,0.0,0.0,0.0,0.0,0.0,0.0,0.0,0.0,0.0,0.0,0.0,0.0,3.2804,3.7587,4.0899,4.1758,4.1894,4.1582,4.0684,3.9805,3.748,3.3301,0.0,0.0,0.0,0.0,0.0,0.0,0.0,0.0,0.0,0.0,0.0,0.0,0.0,0.0,0.0,0.0,0.0,0.0,0.0,0.0,0.0,0.0,0.0,0.0,0.0,0.0,0.0,0.0,0.0,0.0,0.0,0.0,0.0,0.0,0.0,0.0,0.0,0.0,0.0,0.0,0.0,0.0,0.0,0.0,0.0,0.0,0.0,0.0,0.0,0.0,0.0,0.0,0.0,0.0,0.0,0.0,0.0,0.0,0.0,0.0,2.4993,0.0,0.0,0.0,0.0,0.0,0.0,0.0,0.0,0.0,0.0,0.0,0.0,0.0,0.0,0.0,0.0,0.0,0.0,0.0,0.0,0.0,0.0,0.0,0.0,0.0,0.0,0.0,0.0,0.0,0.0,0.0,0.0,0.0,0.0,0.0,0.0,0.0,0.0,0.0,0.0,0.0,3.3469,3.816,4.1348,4.2187,4.2598,4.2481,4.1601,4.043,3.834,3.5039,0.0,0.0,0.0,0.0,0.0,0.0,0.0,0.0,0.0,0.0,0.0,0.0,0.0,0.0,0.0,0.0,0.0,0.0,0.0,0.0,0.0,0.0,0.0,0.0,0.0,0.0,0.0,0.0,0.0,0.0,0.0,0.0,0.0,0.0,0.0,0.0,0.0,0.0,0.0,0.0,0.0,0.0,0.0,0.0,0.0,0.0,0.0,0.0,0.0,0.0,0.0,0.0,0.0,0.0,0.0,0.0,0.0,0.0,0.0,0.0,0.0,2.7456,0.0,0.0,0.0,0.0,0.0,0.0,0.0,0.0,0.0,0.0,0.0,0.0,0.0,0.0,0.0,0.0,0.0,0.0,0.0,0.0,0.0,0.0,0.0,0.0,0.0,0.0,0.0,0.0,0.0,0.0,0.0,0.0,0.0,0.0,0.0,0.0,0.0,0.0,0.0,0.0,3.3974,3.8468,4.1523,4.2324,4.2812,4.2833,4.2148,4.1133,3.9335,3.6484,3.2953,0.0,0.0,0.0,0.0,0.0,0.0,0.0,0.0,0.0,0.0,0.0,0.0,0.0,0.0,0.0,0.0,0.0,0.0,0.0,0.0,0.0,0.0,0.0,0.0,0.0,0.0,0.0,0.0,0.0,0.0,0.0,0.0,0.0,0.0,0.0,0.0,0.0,0.0,0.0,0.0,0.0,0.0,0.0,0.0,0.0,0.0,0.0,0.0,0.0,0.0,0.0,0.0,0.0,3.5449,3.6074,3.6523,3.6936,3.7383,3.7637,3.4431,3.2551,3.165,0.0,0.0,0.0,0.0,0.0,0.0,0.0,0.0,0.0,0.0,0.0,0.0,0.0,0.0,0.0,0.0,0.0,0.0,0.0,0.0,0.0,0.0,0.0,0.0,0.0,3.3461,3.2922,0.0,0.0,0.0,0.0,0.0,0.0,0.0,0.0,0.0,0.0,0.0,0.0,3.4633,3.8779,4.1621,4.2421,4.293,4.3008,4.2558,4.1836,4.0371,3.791,3.5059,3.2164,0.0,0.0,0.0,0.0,0.0,0.0,0.0,0.0,0.0,0.0,0.0,0.0,0.0,0.0,0.0,0.0,0.0,0.0,0.0,0.0,0.0,0.0,0.0,0.0,0.0,0.0,0.0,0.0,0.0,0.0,0.0,0.0,2.4457,2.4574,0.0,0.0,0.0,0.0,0.0,0.0,0.0,0.0,0.0,0.0,0.0,0.0,0.0,0.0,3.6348,3.7695,3.8751,3.9571,4.0078,4.0566,4.0976,4.1367,4.1797,4.2246,4.2069,0.0,3.5816,3.4677,0.0,0.0,0.0,0.0,0.0,0.0,0.0,0.0,0.0,0.0,0.0,0.0,0.0,0.0,0.0,0.0,0.0,0.0,0.0,0.0,0.0,0.0,3.679,3.7548,3.8054,3.8192,0.0,3.4263,3.0894,2.9603,0.0,0.0,0.0,0.0,0.0,0.0,0.0,0.0,3.5886,3.9532,4.2051,4.293,4.338,4.3457,4.3048,4.2539,4.1465,3.9668,3.7439,3.4997,3.232,2.9648,0.0,0.0,0.0,0.0,0.0,0.0,0.0,0.0,0.0,0.0,0.0,0.0,0.0,0.0,0.0,0.0,0.0,0.0,0.0,0.0,0.0,0.0,0.0,0.0,0.0,0.0,0.0,0.0,0.0,2.4816,2.6659,2.6868,2.7103,2.6985,0.0,0.0,0.0,0.0,0.0,0.0,0.0,0.0,0.0,3.4707,3.6838,3.8809,4.0546,4.209,4.3281,4.41,4.457,4.5021,4.541,4.584,4.6174,4.6369,4.6797,4.5391,4.2578,3.9465,3.6937,3.4762,0.0,0.0,0.0,0.0,0.0,3.2803,3.3887,3.4015,0.0,0.0,0.0,0.0,0.0,0.0,0.0,0.0,0.0,0.0,0.0,0.0,0.0,3.9902,4.0371,4.0605,4.0371,3.8644,3.6447,0.0,3.2235,3.0505,2.811,0.0,0.0,0.0,0.0,0.0,3.6857,4.0176,4.2383,4.3028,4.3457,4.3633,4.3437,4.3027,4.2266,4.1055,3.9394,3.7439,3.5095,3.2715,3.0234,0.0,0.0,0.0,0.0,0.0,0.0,0.0,0.0,0.0,0.0,0.0,0.0,0.0,0.0,0.0,0.0,0.0,0.0,0.0,0.0,0.0,0.0,0.0,0.0,0.0,0.0,0.0,0.0,2.7259,2.9051,2.9551,2.998,2.9941,0.0,0.0,0.0,0.0,0.0,0.0,3.4235,3.531,3.6736,3.8555,4.0586,4.2421,4.4064,4.5588,4.6699,4.7422,4.7871,4.8242,4.8555,4.9027,4.9222,4.9265,4.9551,4.9082,4.777,4.3892,4.1015,3.8886,3.6755,3.586,3.5783,3.5879,3.6438,3.7342,3.8608,3.8685,3.8224,3.7935,0.0,3.4294,3.2343,0.0,0.0,0.0,0.0,3.5105,3.7793,0.0,4.1426,4.1914,4.2324,4.2519,4.211,4.1914,4.084,0.0,3.5879,3.4293,3.1777,0.0,0.0,0.0,0.0,3.4785,3.799,4.084,4.2754,4.3204,4.3516,4.3711,4.3711,4.3418,4.2871,4.2012,4.0976,3.9414,3.7264,3.5391,3.3144,0.0,0.0,0.0,0.0,0.0,0.0,0.0,0.0,0.0,0.0,0.0,0.0,0.0,0.0,0.0,0.0,0.0,0.0,0.0,0.0,0.0,0.0,0.0,0.0,0.0,0.0,0.0,0.0,0.0,0.0,3.3051,3.3555,0.0,0.0,0.0,0.0,3.4277,3.5996,3.7381,3.826,3.9902,4.123,4.2128,4.3866,4.5408,4.6697,4.7637,4.8301,4.8815,4.9219,4.941,4.9449,4.9922,5.0141,5.0141,5.016,4.9883,4.9254,4.7357,4.5328,4.3261,4.1913,4.1152,4.0879,4.125,4.1952,4.289,4.4156,4.4039,4.3338,4.3318,4.0336,3.6647,3.6145,3.4593,0.0,0.0,3.6996,3.8443,4.055,4.2316,4.3672,4.4121,4.4551,4.4725,4.4336,4.3887,4.2676,0.0,3.8322,3.7014,3.4844,0.0,3.2374,3.3704,3.5,3.6799,3.9453,4.1719,4.3223,4.3633,4.3691,4.3711,4.3711,4.3691,4.3301,4.2421,4.1953,4.0742,3.8592,3.7598,3.5703,3.2711,3.0497,0.0,0.0,0.0,0.0,0.0,0.0,0.0,0.0,0.0,0.0,0.0,0.0,0.0,0.0,0.0,0.0,0.0,0.0,0.0,0.0,0.0,0.0,0.0,0.0,0.0,0.0,0.0,0.0,3.6562,3.74,0.0,0.0,3.6875,3.7322,3.8768,4.0449,4.1797,4.2656,4.4101,4.5137,4.5723,4.7126,4.8258,4.9004,4.9316,4.9824,5.0508,5.0386,5.0464,5.0738,5.0894,5.0952,5.0952,5.0952,5.0718,5.025,4.9394,4.7734,4.5623,4.4354,4.3768,4.3672,4.3807,4.4258,4.4923,4.5877,4.5838,4.5234,4.4414,4.2163,3.97,3.9508,3.8436,3.7602,3.9069,4.0029,4.0936,4.2454,4.3491,4.4258,4.4686,4.4901,4.4881,4.4492,4.4043,4.3301,4.1973,4.08,3.959,3.8281,3.6621,3.5898,3.7205,3.7773,3.8809,4.0859,4.25,4.3535,4.3691,4.3711,4.3711,4.3711,4.3457,4.3047,4.2441,4.2011,4.1094,3.9511,3.8848,3.7246,3.4531,3.2613,3.0112,0.0,0.0,0.0,0.0,0.0,0.0,0.0,0.0,0.0,0.0,0.0,0.0,0.0,0.0,0.0,0.0,0.0,0.0,0.0,0.0,0.0,0.0,0.0,0.0,0.0,0.0,3.7734,3.9472,4.0566,4.1055,4.0742,4.0723,4.1211,4.2383,4.3789,4.4902,4.5603,4.6579,4.7344,4.7773,4.8769,4.959,5.0199,5.0312,5.0742,5.1401,5.1128,5.1148,5.1401,5.1401,5.1401,5.1401,5.1401,5.1245,5.0976,5.0566,4.9551,4.8083,4.6816,4.6328,4.6328,4.6328,4.6504,4.6838,4.7226,4.7285,4.6995,4.584,4.4345,4.2972,4.2932,4.2189,4.1567,4.2444,4.2932,4.3402,4.4332,4.4805,4.5117,4.5369,4.5428,4.5311,4.4922,4.4238,4.3633,4.334,4.2383,4.1367,4.0664,3.9473,3.8887,3.9746,3.998,4.0547,4.1836,4.3008,4.3711,4.3711,4.3711,4.3711,4.3711,4.3341,4.2832,4.2226,4.1816,4.1016,3.9726,3.9375,3.8144,3.5876,3.3434,3.062,2.7454,0.0,0.0,0.0,0.0,0.0,0.0,0.0,0.0,0.0,0.0,0.0,0.0,0.0,0.0,0.0,0.0,0.0,0.0,0.0,0.0,0.0,0.0,0.0,3.3363,3.6877,3.9961,4.1719,4.3047,4.3828,4.3828,4.3828,4.4199,4.5057,4.5918,4.656,4.697,4.7402,4.7812,4.8242,4.8675,4.932,5.0219,5.0625,5.1011,5.1401,5.1401,5.1401,5.1401,5.1401,5.1401,5.1401,5.1401,5.1401,5.1382,5.0976,5.0801,5.0683,4.9418,4.8952,4.8952,4.8952,4.8952,4.8851,4.8398,4.8538,4.8757,4.7894,4.7053,4.6348,4.6328,4.572,4.5135,4.5588,4.5686,4.5783,4.6172,4.6289,4.6289,4.6289,4.6308,4.6191,4.5764,4.465,4.3711,4.3711,4.3007,4.2304,4.1914,4.1523,4.125,4.1289,4.1602,0.0,4.2382,4.3163,4.3711,4.3711,4.3711,4.3691,4.3691,4.3302,4.2696,4.1816,4.1367,4.0546,3.9219,3.918,3.8379,3.6714,3.2906,2.9687,2.7097,0.0,0.0,0.0,0.0,0.0,0.0,0.0,0.0,0.0,0.0,0.0,0.0,0.0,0.0,0.0,0.0,0.0,0.0,0.0,0.0,0.0,0.0,3.5218,3.6487,3.9766,4.2676,4.4415,4.5764,4.6545,4.6545,4.6797,4.7207,4.7776,4.832,4.8668,4.8785,4.8636,4.8734,4.9117,4.9277,4.9766,5.0625,5.103,5.1284,5.1401,5.1401,5.1401,5.1401,5.1401,5.1401,5.1401,5.1401,5.1401,5.1382,5.0976,5.0801,5.0742,5.0102,4.9848,4.9848,4.9848,4.9848,4.9769,4.9316,4.9023,4.8792,4.8203,4.7676,4.7168,4.6833,4.6365,4.5918,4.5744,4.5449,4.5312,4.5764,4.5861,4.594,4.623,4.6308,4.6094,4.535,4.4414,4.3711,4.3711,4.3262,4.2851,4.2774,4.2657,4.2676,4.2969,0.0,0.0,4.3301,4.3555,4.3711,4.3711,4.3711,4.3574,4.3302,4.2578,4.1797,0.0,4.0156,3.9297,3.8302,3.8574,3.7967,3.623,3.3613,3.1289,0.0,0.0,0.0,0.0,0.0,0.0,0.0,0.0,0.0,0.0,0.0,0.0,0.0,0.0,0.0,0.0,0.0,0.0,0.0,0.0,0.0,0.0,3.5937,3.875,4.0391,4.2519,4.4394,4.5803,4.7249,4.8148,4.8125,4.8672,4.9164,4.9418,4.9648,4.9703,4.9508,4.9125,4.9086,4.9488,4.9508,4.9918,5.0801,5.1206,5.1401,5.1401,5.1401,5.1401,5.1401,5.1401,5.1401,0.0,5.1401,5.1401,5.1382,5.1148,5.105,0.0,0.0,0.0,0.0,0.0,5.0199,5.016,4.9883,4.9512,4.9125,4.8848,4.834,4.7754,4.7324,4.666,4.5957,4.5527,4.4961,4.4549,4.5019,4.5273,4.5508,4.5959,4.6172,4.6113,4.5449,4.4609,4.3984,4.3984,0.0,0.0,4.3614,4.3653,4.3711,4.3965,4.3789,4.3711,0.0,4.4141,4.4237,4.4237,4.4237,4.4082,4.3692,4.2852,0.0,0.0,0.0,3.918,3.8478,3.8535,0.0,0.0,0.0,0.0,0.0,0.0,0.0,0.0,2.8502,2.9459,0.0,0.0,0.0,0.0,0.0,0.0,0.0,0.0,0.0,0.0,0.0,0.0,0.0,0.0,0.0,0.0,3.9238,4.2149,4.4238,4.5078,4.5742,4.6504,4.805,4.9046,4.9043,4.975,5.0219,5.0278,5.0278,5.0078,4.9664,0.0,0.0,0.0,0.0,4.9918,5.0801,5.1206,5.1401,5.1401,5.1401,5.1401,5.1401,5.1401,5.1401,5.1401,5.1401,5.1401,5.1401,5.1401,5.1401,5.1343,5.0605,5.0336,5.0336,5.0336,5.0336,0.0,0.0,0.0,0.0,4.9586,4.902,4.8262,4.7815,4.6819,4.5744,4.5213,4.4471,4.3965,4.4414,4.4863,4.5252,4.5744,4.6133,4.6308,4.5861,4.5117,4.4531,4.4473,4.4141,4.4004,4.4473,4.4492,4.4473,4.4473,4.4473,4.4473,4.4473,4.4783,4.4998,4.4998,0.0,0.0,4.4433,4.3614,4.2735,4.1855,4.0547,3.9629,3.9219,3.8905,3.8535,3.8146,3.7461,3.6521,3.5293,3.5332,3.5351,3.5312,3.3531,3.357,0.0,0.0,0.0,0.0,0.0,0.0,0.0,0.0,0.0,0.0,0.0,0.0,0.0,0.0,0.0,3.8652,4.1152,4.336,4.5197,4.6995,4.8206,4.8363,4.932,4.9945,4.9945,5.0102,5.0312,5.0664,5.0683,5.0644,5.0566,4.9824,0.0,5.0063,4.9707,4.9918,5.0801,5.1206,5.1401,5.1401,0.0,0.0,5.1401,5.1401,5.1401,5.1401,5.1401,5.1401,5.1401,5.1401,5.1401,5.1382,5.1226,5.1167,5.1167,5.1167,5.1167,5.1109,5.0801,5.0625,5.0508,5.0156,4.9687,4.9098,4.832,4.7399,0.0,4.5762,4.5176,4.4862,4.5334,4.5742,4.613,4.656,4.7012,4.7129,4.6348,4.5803,4.5353,4.4959,4.4803,4.4902,4.5373,4.5137,4.4881,4.4881,4.4881,4.4881,4.4881,4.4959,4.4998,4.4998,4.4998,4.4842,4.4433,4.3614,4.2735,4.1855,4.0254,3.9297,3.9199,3.9492,3.9609,3.9512,3.9669,3.9492,3.8887,3.922,3.9376,3.9317,3.6951,3.6541,0.0,0.0,0.0,0.0,0.0,0.0,0.0,0.0,0.0,0.0,0.0,3.2812,3.4961,0.0,3.9003,4.1152,4.3145,4.4923,4.6428,4.8323,4.9402,4.8952,4.9848,5.0488,5.0488,5.0683,5.0898,5.1069,5.1089,5.1011,5.082,5.0391,5.0347,5.0801,5.0562,5.1018,5.2129,5.2614,5.2982,5.3251,5.3519,5.3665,5.3665,5.3665,5.3519,5.3251,5.2958,5.2708,5.2439,5.2169,5.1792,5.1421,5.1655,5.1597,5.1401,5.1401,5.1401,5.1382,5.1167,5.0976,5.0781,5.0566,5.0058,4.9371,4.873,4.7773,4.6775,4.6172,4.5527,4.5096,4.5588,4.5996,4.6406,4.6794,4.7266,4.7483,4.7031,4.6799,4.6584,4.6348,4.6111,4.6033,4.6269,4.5957,4.5564,4.5391,4.5351,4.5351,4.5351,4.5527,4.5642,4.5642,4.5642,4.5488,4.5078,4.4044,4.3027,4.2168,4.1094,4.0508,4.0508,4.0723,4.084,4.084,4.1055,4.0957,4.0546,4.1172,4.1445,4.1445,4.084,4.0429,0.0,0.0,0.0,0.0,0.0,0.0,0.0,0.0,3.0435,3.225,3.4492,3.666,3.8341,4.0176,4.1875,4.3263,4.4728,4.6135,4.7425,4.9105,4.9906,4.9105,5.0137,5.0918,5.0918,5.1206,5.1401,5.1401,5.1401,5.1265,5.0913,5.0918,5.1113,5.1519,5.1538,5.2208,5.3643,5.4285,5.4923,5.5563,5.6196,5.6512,5.6512,5.6512,5.6148,5.5535,5.4678,5.3935,5.3316,5.2889,5.2241,5.1558,5.1953,5.1816,5.1401,5.1401,5.1401,5.1401,5.1401,5.1187,5.0918,5.0918,5.0386,4.9664,4.9281,4.8284,4.7185,4.6797,4.6113,4.5584,4.5979,4.6367,4.6758,4.7067,4.7519,4.7835,4.7737,4.7718,4.7698,4.762,4.7285,4.7028,4.7028,4.6777,4.6387,4.59,4.5822,4.5822,4.5822,4.6094,4.6308,4.6308,4.6308,4.6133,4.5725,4.4707,4.373,4.2831,4.248,4.2266,4.2168,4.2266,4.2305,4.2305,4.2383,4.2266,4.1934,4.2598,4.2909,4.2929,4.4003,4.373,2.4121,2.5879,2.8756,3.0552,3.1645,3.2515,0.0,0.0,3.4118,3.6211,3.7773,3.9316,4.1055,4.1855,4.2812,4.451,4.5293,4.6135,4.7425,4.9105,5.0023,4.9488,5.0562,5.1343,5.1343,5.1382,5.1401,5.1401,5.1401,5.1382,5.1343,5.1343,5.1538,5.2017,5.2012,5.2719,5.4186,5.5221,5.6224,5.724,5.8202,5.8634,5.8634,5.8634,5.813,5.7119,5.5148,5.3737,5.2789,5.274,5.2441,5.2036,5.2095,5.1816,5.1401,5.1401,5.1401,5.1401,5.1401,5.1382,5.1343,5.1343,5.1011,5.0586,5.018,4.9398,4.8578,4.8125,4.7656,4.7327,4.7386,4.7676,4.8008,4.8047,4.8421,4.8636,4.8223,4.8144,4.8027,4.7679,4.7561,4.7522,4.7522,4.7483,4.719,4.6348,4.623,4.623,4.623,4.6269,4.6308,4.6308,4.6308,4.6133,4.5725,4.5568,4.5119,4.4238,4.4141,4.3926,4.3516,4.3887,4.4101,4.4101,4.4452,4.4627,4.4569,4.4666,4.4705,4.4705,4.4862,4.4627,2.7773,2.9316,3.1719,0.0,3.5742,3.709,3.7695,3.8045,3.8612,4.0,4.1308,4.2441,4.3183,4.3632,4.4237,0.0,4.5762,4.6484,4.7773,4.9023,4.9703,4.9527,4.9527,4.984,5.0625,5.0703,5.1042,5.1867,5.2439,5.2969,5.3502,5.3839,5.4236,5.4701,5.4701,5.5442,5.691,5.7946,5.8994,6.0058,6.1113,6.1613,6.1613,6.1613,6.0706,5.9042,5.7575,5.6173,5.5005,5.5218,5.4915,5.4337,5.46,5.4438,5.3802,5.204,5.1401,5.1401,5.1401,5.1401,5.1401,5.1401,5.1128,5.0781,5.0586,4.9941,4.9199,4.9,4.8652,4.8366,4.8366,4.848,4.8675,4.8883,4.9121,4.9258,4.9336,4.916,4.8903,4.875,4.8301,4.7949,4.7949,4.7757,4.7483,4.7112,4.6836,4.656,4.6328,4.6308,4.6308,4.6308,4.6308,4.623,4.6055,4.5842,4.5549,4.5177,4.4902,4.4647,4.4452,4.4627,4.4744,4.4744,4.492,4.4998,4.4998,4.5273,4.541,4.541,4.5664,4.5683,3.0561,3.2105,0.0,3.6736,3.8925,4.0566,4.1113,4.1465,4.1914,4.2637,4.3514,4.4258,4.4375,4.4648,4.5078,4.5742,4.6308,4.7095,4.8405,4.9563,5.0231,5.0115,4.9584,4.9537,5.0344,5.0075,5.0523,5.2203,5.3439,5.4601,5.5689,5.639,5.6964,5.7403,5.7448,5.8125,5.9647,6.0648,6.169,6.2771,6.382,6.434,6.434,6.4033,6.2892,6.111,6.0087,5.8889,5.7634,5.7943,5.7606,5.694,5.7277,5.7154,5.6452,5.3997,5.2708,5.2148,5.1909,5.1699,5.1558,5.144,5.1206,5.0976,5.0976,5.0445,4.9859,4.9859,4.957,4.9265,4.9265,4.9265,4.932,4.9629,4.9683,4.9766,4.9961,4.9722,4.9515,4.9538,4.9108,4.8812,4.8949,4.885,4.866,4.8426,4.7973,4.744,4.6763,4.6543,4.6404,4.6308,4.6308,4.6308,4.6308,4.6016,4.5861,4.5861,4.5547,4.535,4.535,4.535,4.535,4.535,4.535,4.535,4.535,4.5703,4.5861,4.5881,4.6289,4.6484,3.1455,0.0,3.5937,3.8496,4.0449,4.1973,4.2833,4.3028,4.3165,4.3574,4.3691,4.3867,4.4316,4.4414,4.4824,4.6074,4.6992,4.8032,4.9354,5.1096,5.2068,5.1683,5.1655,5.1517,0.0,4.9731,4.99,5.2228,5.4126,5.5819,5.7339,5.8369,5.9091,5.9499,5.9499,6.0268,6.179,6.2798,6.3845,6.493,6.5914,6.6403,6.638,6.54,6.4341,6.3251,6.2223,6.1189,6.0195,6.0195,5.9912,5.9477,5.9499,5.9263,5.8777,5.7702,5.6009,5.4081,5.317,5.2517,5.1992,5.1538,5.1401,5.1382,5.1382,5.1089,5.0762,5.0762,5.0469,5.016,5.016,5.016,5.016,5.018,5.018,5.0039,4.9605,4.9508,4.9511,4.9588,4.9951,5.0391,5.0823,5.1345,5.1361,5.0435,4.9925,4.9115,4.7755,4.7146,4.6736,4.6348,4.6308,4.6308,4.6308,4.6289,4.6289,4.6289,4.6269,4.6269,4.6269,4.6269,4.6269,4.6269,4.6269,4.6269,4.6269,4.6269,4.6289,4.6289,4.6697,4.6892,3.316,0.0,3.8065,4.0351,4.2656,4.4533,4.5119,4.5686,4.5881,4.5177,4.457,4.4121,4.3965,4.3945,4.4453,4.6035,4.7266,4.8597,5.0273,5.2133,5.3253,5.317,5.2928,0.0,0.0,0.0,0.0,5.408,5.5821,5.7794,6.0308,6.1426,6.2055,6.2189,6.2189,6.259,6.3439,6.4105,6.4812,6.554,6.6194,6.6496,6.6473,6.5821,6.5142,6.4412,6.3725,6.3035,6.2414,6.2414,6.2323,6.2189,6.2189,6.2099,6.1845,6.0815,5.9512,5.7869,5.4866,5.3069,5.2051,5.1914,5.1636,5.1401,5.1401,5.1109,5.0801,5.0801,5.0508,5.0199,5.0199,5.0199,5.0278,5.0527,5.0391,5.0238,5.0351,4.9898,4.9706,5.0384,5.091,5.1483,5.2271,5.3057,5.306,5.1501,4.9842,4.8476,4.771,4.7441,4.7305,4.719,4.7148,4.7148,4.7148,4.7148,4.7148,4.7148,4.7148,4.7148,4.7148,4.7148,4.7148,4.7148,4.7148,4.7148,4.7148,4.7148,4.7148,4.7171,4.7285,4.7363,3.5407,3.7889,4.0234,4.2226,4.4316,4.5976,4.623,4.6719,4.6741,4.5295,4.4064,4.3185,4.3014,4.3274,4.4188,4.6235,4.8198,5.0199,5.224,5.4176,5.5522,5.5909,5.5587,5.5265,0.0,0.0,0.0,5.5575,5.7601,5.9929,6.2804,6.432,6.5095,6.5095,6.5095,6.5235,6.5563,6.5914,6.624,6.6589,6.689,6.7052,6.7029,6.6728,6.6403,6.6054,6.5727,6.5259,6.4812,6.4812,6.4718,6.4577,6.4577,6.4577,6.4435,6.3392,6.2316,6.0832,5.6794,5.4394,5.3094,5.2956,5.2674,5.2437,5.2433,5.226,5.2027,5.1889,5.1628,5.1419,5.1452,5.1602,5.1804,5.206,5.1924,5.1765,5.1861,5.1441,5.1333,5.2377,5.296,5.3634,5.4756,5.5445,5.5268,5.3523,5.1721,4.9909,4.8035,4.7793,4.7776,4.762,4.76,4.76,4.76,4.76,4.76,4.76,4.76,4.76,4.76,4.76,4.76,4.76,4.76,4.76,4.76,4.76,4.76,4.76,4.7757,4.7793,3.8084,4.039,4.2441,4.4101,4.5469,4.6387,4.6348,4.6328,4.582,4.4004,4.2246,4.1171,0.0,0.0,4.4012,4.6638,4.9841,5.2831,5.5129,5.7182,5.877,0.0,0.0,0.0,0.0,0.0,0.0,5.6941,0.0,6.2086,6.4743,6.6857,6.8017,6.8017,6.8017,6.8017,6.8017,6.8017,6.8017,6.8017,6.8017,6.8017,6.8017,6.8017,6.8017,6.8017,6.8017,6.7695,6.7212,6.7212,6.6912,6.6496,6.6496,6.6496,6.638,6.54,6.4365,6.2921,5.9056,5.6556,5.4988,5.4555,5.4399,5.4379,5.4374,5.4379,5.4302,5.3919,5.3774,5.3754,5.3859,5.4312,5.472,5.472,5.4699,5.4553,5.4117,5.3992,5.429,5.5388,5.6028,5.6841,5.8295,5.8517,5.7983,5.6526,5.5523,5.3324,4.8975,4.8379,4.8199,4.7785,4.7704,4.7682,4.7659,4.7659,4.7659,4.7659,4.7682,4.7704,4.7727,4.7727,4.7727,4.7727,4.7704,4.7682,4.7659,4.7659,4.7679,4.7718,4.8086,4.8281,4.082,4.3262,4.5332,4.6072,4.6989,4.7558,4.6892,4.6755,4.5994,4.328,4.0879,3.9442,0.0,0.0,0.0,4.7399,5.1845,0.0,5.7624,5.9942,0.0,6.2246,0.0,6.2457,6.1999,6.0764,0.0,0.0,6.1748,6.2878,6.5824,6.7291,6.8017,6.8017,6.8017,6.8017,6.8017,6.8017,6.8017,6.8017,6.8017,6.8017,6.8017,6.8017,6.8017,6.8017,6.8017,6.7695,6.7212,6.7212,6.6912,6.6496,6.6496,6.6496,6.6426,6.5821,6.5165,6.4341,6.2493,5.9339,5.6103,5.6042,5.5778,5.549,5.5486,5.549,5.5469,5.5387,5.5296,5.5425,5.625,5.7084,5.7685,5.7685,5.7446,5.7139,5.703,5.6766,5.6863,5.7871,5.931,6.0691,6.1775,6.1387,6.0537,5.9396,5.8444,5.6287,5.1961,5.0747,5.0118,4.9657,4.9293,4.8947,4.8604,4.8581,4.8581,4.8581,4.8901,4.9267,4.9611,4.9609,4.9609,4.9611,4.927,4.8924,4.8581,4.8581,4.8734,4.902,4.9117,4.9375,4.3068,4.5188,4.6905,4.6897,4.7576,4.7828,4.6196,4.5527,4.4394,4.1367,3.8672,0.0,0.0,0.0,0.0,0.0,0.0,0.0,5.9083,6.133,6.3055,0.0,6.4055,0.0,6.433,6.341,6.3489,0.0,6.4086,6.4392,6.6873,6.8015,6.861,6.861,6.861,6.861,6.861,6.861,6.8757,6.9003,6.9003,6.9128,6.9376,6.9376,6.9376,6.9376,0.0,6.9077,6.859,6.832,6.7947,6.7483,6.724,6.7289,6.746,6.6964,6.6733,6.6481,6.5189,6.2759,6.0047,5.9212,5.8431,5.7904,5.8387,5.8196,5.7886,5.8154,5.802,5.8075,5.9135,6.0128,6.0845,6.0845,6.0478,6.0111,6.0111,5.9721,5.969,6.0689,6.2076,6.3232,6.3774,6.3405,6.2753,6.1768,6.0985,5.9496,5.664,5.4514,5.288,5.1945,5.1229,5.0461,4.955,4.9457,4.9457,4.9457,5.0112,5.0811,5.1505,5.1568,5.1568,5.1528,5.0857,5.0159,4.9457,4.9457,4.9594,4.9805,4.9805,4.9941,4.5196,4.6807,4.7991,4.7494,4.7869,4.7689,4.5015,4.3518,4.1817,3.8788,0.0,3.4617,3.6327,3.9297,4.2974,4.7517,0.0,5.8064,5.9995,6.1935,6.347,6.4381,6.4538,6.4986,6.6018,6.5446,6.5631,6.7094,6.6309,6.6363,6.7819,6.8876,6.9406,6.9406,6.9406,6.9406,6.9406,6.9481,6.9777,7.03,7.0376,7.0654,7.1106,7.1106,7.1106,7.1106,0.0,0.0,7.0363,6.9842,6.9294,6.8757,6.8363,6.8437,6.8732,6.8339,6.8509,6.8714,6.7296,6.6102,6.4883,6.2938,6.1666,6.1086,6.2004,6.1642,6.1021,6.1535,6.1333,6.1223,6.2317,6.3334,6.4064,6.4064,6.3708,6.3399,6.3399,6.2904,6.2702,6.3518,6.4331,6.4898,6.4898,6.4898,6.4615,6.3804,6.3327,6.2753,6.1875,5.8679,5.5897,5.4349,5.3355,5.2209,5.0724,5.0602,5.0602,5.0602,5.1527,5.2515,5.3468,5.3556,5.3556,5.3514,5.2561,5.1598,5.0602,5.0602,5.0621,5.068,5.068,5.072,4.8038,4.9298,5.0229,4.9834,4.9276,4.8077,4.5079,4.2348,0.0,0.0,3.3301,3.184,3.4722,3.8378,4.2708,4.8134,5.4676,5.9533,0.0,0.0,6.3115,0.0,0.0,0.0,0.0,0.0,0.0,0.0,0.0,6.8148,6.845,6.9077,6.9406,6.9406,6.9406,6.9406,6.9406,6.9878,7.0202,7.0325,7.0755,7.1006,7.1106,7.1106,7.1106,7.1106,0.0,0.0,7.0388,7.0288,6.9664,6.883,6.9175,6.9101,6.883,6.9199,6.9371,6.9348,6.8645,6.7752,6.6603,6.493,6.4247,6.4129,6.4341,6.4247,6.4129,6.4225,6.4156,6.4292,6.5374,6.6354,6.7061,6.7061,6.6987,6.6912,6.6912,6.649,6.599,6.5669,6.5746,6.5875,6.5875,6.5875,6.581,6.5659,6.5538,6.5445,6.5272,6.1303,5.7938,5.6437,5.5439,5.4272,5.2812,5.2672,5.2672,5.2672,5.3625,5.4593,5.553,5.5596,5.5596,5.5576,5.4662,5.3671,5.2672,5.2672,5.2833,5.3179,5.3179,5.3384,4.8822,4.9953,5.0746,4.9855,4.928,4.79,4.3858,0.0,0.0,0.0,3.1593,3.0466,3.3204,3.6863,0.0,4.6329,5.2897,5.7851,5.9282,6.1165,0.0,0.0,0.0,0.0,0.0,0.0,0.0,0.0,0.0,6.9027,6.9027,6.9577,7.0003,7.0257,7.0282,7.0282,7.0282,7.0556,7.0855,7.1131,7.1384,7.1661,7.1937,7.1937,7.1937,7.1937,7.1937,0.0,7.1561,7.1309,7.0894,7.0413,7.0388,7.0388,7.0413,7.0388,7.0562,7.0711,7.0164,6.9664,6.915,6.8392,6.7213,6.62,6.6427,6.6337,6.62,6.645,6.6302,6.6292,6.735,6.8107,6.8625,6.8625,6.8424,6.8145,6.7869,6.7593,6.7317,6.7041,6.699,6.699,6.699,6.699,6.689,6.6614,6.6815,6.689,6.6589,6.4617,6.2331,6.0009,5.8909,5.771,5.6246,5.6108,5.5993,5.5783,5.6968,5.7995,5.8727,5.9041,5.9176,5.9154,5.8209,5.7211,5.6207,5.6207,5.6314,5.6525,5.6525,5.6632,4.9557,5.0577,5.1142,5.0,4.9325,4.7651,4.286,3.904,0.0,0.0,3.0241,2.9379,3.186,3.521,3.9155,0.0,5.0115,5.4938,5.6746,5.9483,6.1522,0.0,0.0,0.0,0.0,0.0,0.0,0.0,0.0,0.0,6.9604,7.0129,7.0654,7.1081,7.1106,7.1106,7.1106,7.1232,7.1485,7.1912,7.2037,7.229,7.2717,7.2717,7.2717,7.2717,7.2717,0.0,0.0,7.224,7.2012,7.1887,7.156,7.1636,7.1861,7.156,7.1711,7.1989,7.146,7.1282,7.1234,7.1156,6.974,6.8181,6.8554,6.8327,6.8034,6.838,6.8091,6.7832,6.8658,6.9112,6.9406,6.9406,6.908,6.8625,6.8095,6.797,6.7945,6.7819,6.7794,6.7794,6.7794,6.7794,6.7643,6.7238,6.7518,6.7643,6.7238,6.7235,6.6315,6.3878,6.2558,6.1227,5.9749,5.9748,5.961,5.9127,6.0339,6.1235,6.1695,6.2087,6.2318,6.2318,6.1458,6.0546,5.9653,5.9653,5.9653,5.9653,5.9653,5.9653,5.1696,5.2486,5.2715,5.2217,5.0485,4.7768,4.3333,0.0,3.3607,3.1475,2.8936,2.7972,3.0811,3.3698,3.7209,4.1909,4.7282,5.1607,5.3783,5.6903,5.9388,6.0417,0.0,0.0,0.0,0.0,0.0,0.0,0.0,0.0,7.0202,7.0729,7.1056,7.1106,7.1106,7.1106,7.1106,7.1585,7.1861,7.1912,7.239,7.2666,7.2717,7.2717,7.2717,7.2717,0.0,0.0,0.0,7.2641,7.234,7.1937,7.2365,7.229,7.1962,7.239,7.2591,7.2541,7.2012,7.1836,7.1761,7.1282,7.0941,7.0752,7.0794,7.0445,7.0024,7.009,6.9669,6.9225,6.9316,6.9383,6.9406,6.9406,6.9356,6.918,6.865,6.8525,6.8374,6.7894,6.7794,6.7794,6.7794,6.7794,6.7769,6.7744,6.7769,6.7769,6.7744,6.7725,6.7637,6.7335,6.5639,6.3936,6.2465,6.2796,6.2847,6.2411,6.2895,6.324,6.3287,6.3357,6.3357,6.3357,6.285,6.2295,6.1715,6.1715,6.1715,6.1715,6.1715,6.1715,5.0374,5.1539,5.2039,5.1269,4.9746,4.7194,4.2517,0.0,3.378,3.1395,2.9342,2.8665,3.0916,3.3526,3.6487,3.9974,4.4708,4.8821,5.1356,5.4612,5.7374,5.9137,6.104,0.0,0.0,0.0,0.0,0.0,0.0,0.0,7.1282,7.146,7.1736,7.2039,7.2062,7.2062,7.2062,7.2265,7.2365,7.239,7.2591,7.2717,7.2717,7.2717,7.2717,7.2717,0.0,0.0,0.0,7.2717,7.2566,7.239,7.2616,7.2566,7.2415,7.2616,7.2717,7.2666,7.2466,7.2365,7.234,7.2114,7.2062,7.1937,7.1307,7.1182,7.1207,7.088,7.0606,7.043,7.043,7.043,7.043,7.043,7.0179,6.9878,6.9675,6.9328,6.9027,6.8801,6.8776,6.8776,6.8776,6.8776,6.865,6.8324,6.855,6.865,6.8324,6.855,6.865,6.8324,6.7305,6.6407,6.5804,6.5978,6.5899,6.5404,6.5855,6.5891,6.5321,6.5588,6.5594,6.5318,6.5133,6.4924,6.4715,6.4715,6.4715,6.4715,6.5045,6.5187,4.9138,5.0732,5.1518,5.0761,4.9203,4.6658,0.0,3.7641,3.3745,3.1596,2.9903,2.9339,3.1053,3.3306,3.5666,3.8041,4.2034,4.5784,4.8545,5.2101,5.5189,0.0,0.0,0.0,0.0,0.0,0.0,0.0,0.0,0.0,0.0,7.2139,7.2315,7.2692,7.2717,7.2717,7.2717,7.2717,7.2717,7.2717,7.2717,7.2717,7.2717,7.2717,7.2717,7.2717,0.0,0.0,0.0,7.2717,7.2717,7.2717,7.2717,7.2717,7.2717,7.2717,7.2717,7.2717,7.2717,7.2717,7.2717,7.2717,7.2717,7.2566,7.1811,7.1736,7.1836,7.1435,7.1232,7.1106,7.1106,7.1106,7.1106,7.1106,7.0805,7.0478,7.035,6.9953,6.9604,6.9431,6.9406,6.9406,6.9406,6.9406,6.9255,6.8879,6.9155,6.9255,6.8901,6.9155,6.9255,6.8876,6.85,6.8221,6.8045,6.8173,6.8074,6.7606,6.7909,6.7799,6.6989,6.7261,6.7297,6.6977,6.6977,6.6977,6.6977,6.6977,6.6977,6.6977,6.7362,6.753,4.8722,5.0732,5.1668,5.1509,4.9332,4.6297,4.2783,3.7493,3.3035,3.2008,3.0354,2.9561,3.1032,3.273,3.4463,3.617,3.9194,4.2331,4.5146,4.9339,5.2754,0.0,0.0,0.0,0.0,0.0,0.0,0.0,0.0,0.0,0.0,7.2692,7.2692,7.2717,7.2717,7.2717,7.2717,7.2717,7.2717,7.2717,7.2717,7.2717,7.2717,7.2717,7.2717,0.0,0.0,0.0,0.0,7.2717,7.2717,7.2717,7.2717,7.2717,7.2717,7.2717,7.2717,7.2717,7.2717,7.2717,7.2717,7.2717,7.2717,7.2717,7.2692,7.2315,7.1912,7.1887,7.151,7.1106,7.1106,7.1106,7.1106,7.1106,7.1106,7.0956,7.0426,7.03,7.0102,6.9506,6.9406,6.9406,6.9406,6.9406,6.9406,6.9381,6.9406,6.9406,6.9381,6.9406,6.9406,6.9381,6.9381,6.9155,6.865,6.908,6.9177,6.8701,6.8703,6.847,6.7991,6.7992,6.8025,6.8083,6.8084,6.8084,6.8084,6.8084,6.8084,6.8084,6.8084,6.8084,4.4465,4.6578,4.788,4.7378,4.5907,4.3793,4.0769,3.7035,3.3835,3.2533,3.1238,3.0623,3.1601,3.2926,3.4313,3.5581,3.7952,4.0877,4.4378,0.0,0.0,5.4805,5.8755,0.0,0.0,0.0,0.0,0.0,0.0,0.0,0.0,7.2717,7.2717,7.2717,7.2717,7.2717,7.2717,7.2717,7.2717,7.2717,7.2717,7.2717,7.2717,7.2717,0.0,0.0,0.0,0.0,0.0,7.2717,7.2717,7.2717,7.2717,7.2717,7.2717,7.2717,7.2717,7.2717,7.2717,7.2717,7.2717,7.2717,7.2717,7.2717,7.2717,7.2591,7.2441,7.2441,7.2315,7.219,7.219,7.219,7.219,7.219,7.1912,7.161,7.141,7.1106,7.0805,7.0606,7.0556,7.0556,7.0556,7.0556,7.0556,7.0556,7.0556,7.0556,7.0556,7.0556,7.0556,7.0556,7.0556,7.0179,6.923,6.9306,6.9511,6.9773,6.9798,6.959,6.9112,6.909,6.8789,6.8107,6.8084,6.8084,6.8084,6.8084,6.8276,6.8661,6.8661,6.8853,4.032,4.2629,4.4017,4.3546,4.2406,4.0785,3.8478,3.5787,3.3523,3.2547,3.1717,3.137,3.2034,3.3116,3.4187,3.5068,3.691,3.9584,4.3463,0.0,0.0,5.6671,0.0,0.0,0.0,0.0,0.0,0.0,0.0,0.0,0.0,7.2717,7.2717,7.2717,7.2717,7.2717,7.2717,7.2717,7.2717,7.2717,7.2717,7.2717,7.2717,7.2717,0.0,0.0,0.0,0.0,0.0,7.2717,7.2717,7.2717,7.2717,7.2717,7.2717,7.2717,7.2717,7.2717,7.2717,7.2717,7.2717,7.2717,7.2717,7.2717,7.2717,7.2717,7.2717,7.2717,7.2717,7.2717,7.2717,7.2717,7.2717,7.2717,7.2441,7.2139,7.1937,7.1636,7.1334,7.1156,7.1106,7.1106,7.1106,7.1106,7.1106,7.1106,7.1106,7.1106,7.1106,7.1106,7.1106,7.1106,7.1106,7.0807,7.0106,7.0031,7.0204,7.0579,7.0604,7.0392,6.9911,6.9889,6.9539,6.8733,6.8709,6.8709,6.8709,6.8709,6.8877,6.9214,6.9214,6.9382,0.0,3.8757,4.0218,4.0036,3.894,3.7544,3.6134,3.4121,0.0,3.2212,3.1886,3.1825,3.237,3.325,3.4123,3.4764,3.6257,3.8705,0.0,4.7355,0.0,0.0,0.0,0.0,0.0,0.0,0.0,0.0,0.0,0.0,0.0,7.2717,7.2717,7.2717,7.2717,7.2717,7.2717,7.2717,7.2717,7.2717,7.2717,7.2717,7.2717,7.2717,0.0,0.0,0.0,0.0,0.0,7.2717,7.2717,7.2717,7.2717,7.2717,7.2717,7.2717,7.2717,7.2717,7.2717,7.2717,7.2717,7.2717,7.2717,7.2717,7.2717,7.2717,7.2717,7.2717,7.2717,7.2717,7.2717,7.2717,7.2717,7.2717,7.2717,7.2566,7.2064,7.1962,7.1811,7.1332,7.1232,7.1232,7.1232,7.1232,7.1232,7.1232,7.1232,7.1232,7.1232,7.1232,7.1232,7.1232,7.1232,7.1232,7.1232,7.1156,7.1131,7.1133,7.1156,7.0943,7.0525,7.0503,7.0295,6.9816,6.9816,6.9816,6.9816,6.9816,6.9816,6.9816,6.9816,6.9816,3.0338,0.0,3.6848,3.6922,3.6505,3.5913,0.0,3.3818,3.2782,3.2655,3.2401,3.2422,3.3115,3.3587,3.45,3.6319,0.0,4.0288,4.5432,0.0,0.0,0.0,0.0,0.0,0.0,0.0,0.0,0.0,0.0,0.0,0.0,7.2717,7.2717,7.2717,7.2717,7.2717,7.2717,7.2717,7.2717,7.2717,7.2717,7.2717,7.2717,7.2717,0.0,0.0,0.0,0.0,7.2717,7.2717,7.2717,7.2717,7.2717,7.2717,7.2717,7.2717,7.2717,7.2717,7.2717,7.2717,7.2717,7.2717,7.2717,7.2717,7.2717,7.2717,7.2717,7.2717,7.2717,7.2717,7.2717,7.2717,7.2717,7.2717,7.2717,7.2666,7.2541,7.2516,7.2466,7.234,7.2315,7.2315,7.2315,7.2315,7.2315,7.2315,7.2315,7.2315,7.2315,7.2315,7.2315,7.2315,7.2315,7.2315,7.2315,7.156,7.1282,7.1686,7.1711,7.1681,7.164,7.1616,7.138,7.0856,7.0831,7.0831,7.0831,7.0831,7.0831,7.0831,7.0831,7.0831,2.8377,3.0868,3.3172,3.3551,3.3713,3.3648,3.3302,3.2896,3.2628,3.2629,3.2674,3.2919,3.3565,3.4187,3.5292,0.0,3.917,0.0,0.0,0.0,6.355,0.0,0.0,0.0,0.0,0.0,0.0,0.0,0.0,0.0,0.0,7.2717,7.2717,7.2717,7.2717,7.2717,7.2717,7.2717,7.2717,7.2717,7.2717,7.2717,7.2717,7.2717,7.2717,0.0,0.0,0.0,7.2717,7.2717,7.2717,7.2717,7.2717,7.2717,7.2717,7.2717,7.2717,7.2717,7.2717,7.2717,7.2742,7.3018,7.3093,7.3093,7.3093,7.3269,7.3369,7.2842,7.2717,7.2717,7.2717,7.2717,7.2717,7.2717,7.2717,7.2717,7.2717,7.2717,7.2717,7.2717,7.2717,7.2717,7.2717,7.2717,7.2717,7.2717,7.2717,7.2717,7.2717,7.2717,7.2717,7.2717,7.2717,7.2717,7.2717,7.2188,7.1962,7.224,7.2265,7.2178,7.2004,7.2005,7.1766,7.1216,7.1216,7.1216,7.1216,7.1216,7.1216,7.1216,7.1216,7.1216,2.8356,2.96,3.0578,3.1292,3.1931,3.2402,3.2409,3.2759,3.3083,3.308,3.3361,3.3818,3.4525,3.5456,0.0,0.0,0.0,0.0,5.6401,6.1893,6.6334,0.0,0.0,0.0,0.0,0.0,0.0,0.0,0.0,0.0,0.0,7.2717,7.2717,7.2717,7.2717,7.2717,7.2717,7.2717,7.2717,7.2717,7.2717,7.2717,7.2717,7.2717,7.2717,0.0,0.0,0.0,7.2717,7.2717,7.2717,7.2717,7.2717,7.2717,7.2717,7.2717,7.2717,7.2717,7.2717,7.2767,7.2917,7.3443,7.3644,7.372,7.372,7.4046,7.4198,7.3244,7.2968,7.2968,7.2968,7.2968,7.2968,7.2968,7.2968,7.2968,7.2968,7.2968,7.2968,7.2968,7.2968,7.2968,7.2968,7.2968,7.2968,7.2968,7.2968,7.2968,7.2968,7.2968,7.2968,7.2968,7.2968,7.2968,7.2968,7.2968,7.2968,7.2968,7.2792,7.2527,7.2124,7.21,7.191,7.1431,7.1431,7.1431,7.1431,7.1431,7.1431,7.1431,7.1431,7.1431,2.8304,3.055,3.2433,3.3388,3.4623,3.569,3.6014,3.6321,3.6456,3.6253,3.603,3.6358,3.7864,3.8655,4.0224,0.0,0.0,0.0,0.0,0.0,0.0,0.0,0.0,0.0,0.0,0.0,0.0,0.0,0.0,0.0,0.0,7.2717,7.2717,7.2717,7.2717,7.2717,7.2717,7.2717,7.2717,7.2717,7.2717,7.2717,7.2717,7.2717,7.2717,0.0,0.0,7.2717,7.2717,7.2717,7.2717,7.2717,7.2717,7.2717,7.2717,7.2717,7.2717,7.2717,7.2717,7.3018,7.3468,7.3569,7.392,7.4273,7.4273,7.4323,7.4348,7.4172,7.4122,7.4122,7.4122,7.4122,7.4122,7.4122,7.4122,7.4122,7.4122,7.4122,7.4122,7.4122,7.4122,7.4122,7.4122,7.4122,7.4122,7.4122,7.4122,7.4122,7.4122,7.4122,7.4122,7.4122,7.4122,7.4122,7.4122,7.4122,7.4122,7.4122,7.3244,7.2669,7.2598,7.2598,7.255,7.2455,7.2455,7.2455,7.2455,7.2455,7.2455,7.2455,7.2455,7.2455,2.8906,3.1288,3.3519,3.563,3.7562,3.9028,3.9277,3.9645,3.975,3.9004,3.8492,3.8705,4.0376,0.0,4.4683,5.0368,0.0,0.0,0.0,0.0,0.0,0.0,0.0,0.0,0.0,0.0,0.0,0.0,0.0,0.0,0.0,0.0,7.2717,7.2717,7.2717,7.2717,7.2717,7.2717,7.2717,7.2717,7.2717,7.2717,7.2717,7.2717,7.2717,7.2717,0.0,7.2717,7.2717,7.2717,7.2717,7.2717,7.2717,7.2717,7.2717,7.2717,7.2717,7.2742,7.3068,7.3368,7.3694,7.4273,7.4624,7.4825,7.4825,7.5075,7.5251,7.4925,7.4624,7.4398,7.4398,7.4398,7.4398,7.4398,7.4398,7.4398,7.4398,7.4398,7.4398,7.4398,7.4398,7.4398,7.4398,7.4398,7.4398,7.4398,7.4398,7.4398,7.4398,7.4398,7.4398,7.4398,7.4398,7.4398,7.4398,7.4398,7.4398,7.4398,7.3644,7.3192,7.3192,7.2867,7.2717,7.2717,7.2717,7.2867,7.3192,7.3192,7.3319,7.362,7.362,7.362,2.9498,3.1819,3.4331,3.7375,3.9878,4.1728,4.2132,4.3027,4.3467,4.2434,4.1907,4.2082,0.0,4.6065,0.0,5.5993,0.0,0.0,0.0,0.0,0.0,0.0,0.0,0.0,0.0,0.0,0.0,0.0,0.0,0.0,0.0,0.0,7.2717,7.2717,7.2717,7.2717,7.2717,7.2717,7.2717,7.2717,7.2717,7.2717,7.2717,7.2717,7.2717,7.2717,7.2717,7.2717,7.2717,7.2717,7.2717,7.2717,7.2717,7.2717,7.2717,7.2717,7.2792,7.2968,7.3443,7.377,7.4121,7.4951,7.5302,7.5402,7.5402,7.5728,7.5979,7.5552,7.5101,7.4799,7.4799,7.4799,7.4799,7.4799,7.4799,7.4799,7.4799,7.4799,7.4799,7.4799,7.4799,7.4799,7.4799,7.4799,7.4799,7.4799,7.4799,7.4799,7.4799,7.4799,7.4799,7.4799,7.4799,7.4799,7.4799,7.4799,7.4799,7.4799,7.4046,7.3594,7.3594,7.3018,7.2717,7.2717,7.2717,7.2993,7.3594,7.3594,7.387,7.4398,7.4398,7.4398,2.962,3.2124,3.4902,3.8041,4.0821,4.3127,4.4447,4.6599,4.8124,4.7506,0.0,0.0,0.0,5.2168,5.5709,5.8755,0.0,0.0,0.0,0.0,0.0,0.0,0.0,0.0,0.0,0.0,0.0,0.0,0.0,0.0,0.0,0.0,0.0,7.2717,7.2717,7.2717,7.2717,7.2717,7.2717,7.2717,7.2717,7.2717,7.2717,7.2717,7.2717,7.2717,7.2717,7.2717,7.2717,7.2717,7.2717,7.2717,7.2717,7.2717,7.2717,7.2717,7.3043,7.3544,7.3569,7.4272,7.5101,7.5152,7.5578,7.6054,7.6054,7.6079,7.6104,7.6054,7.6029,7.5978,7.5978,7.5978,7.5978,7.5978,7.5978,7.5978,7.5978,7.5978,7.5978,7.5978,7.5978,7.5978,7.5978,7.5978,7.5978,7.5978,7.5978,7.5978,7.5978,7.5978,7.5978,7.5978,7.5978,7.5978,7.5978,7.5978,7.5978,7.5978,7.4472,7.3594,7.3594,7.3018,7.2717,7.2717,7.2717,7.2993,7.3594,7.3594,7.387,7.4398,7.4398,7.4398,3.1091,3.2868,3.4944,3.8305,4.158,4.4563,4.683,4.9434,5.1498,5.1967,5.2344,0.0,0.0,0.0,5.8234,6.0663,0.0,0.0,0.0,0.0,0.0,0.0,0.0,0.0,0.0,0.0,0.0,0.0,0.0,0.0,0.0,0.0,0.0,7.2717,7.2717,7.2717,7.2717,7.2717,7.2717,7.2717,7.2717,7.2717,7.2717,7.2717,7.2717,7.2717,7.2717,7.2717,7.2717,7.2717,7.2717,7.2742,7.3093,7.3268,7.3318,7.362,7.3896,7.4146,7.4474,7.4875,7.5277,7.5628,7.5904,7.6104,7.6104,7.6104,7.6104,7.6104,7.6104,7.6104,7.6104,7.6104,7.6104,7.6104,7.6104,7.6104,7.6104,7.6104,7.6104,7.6104,7.6104,7.6104,7.6104,7.6104,7.6104,7.6104,7.6104,7.6104,7.6104,7.6104,7.6104,7.6104,7.6104,7.6104,7.6104,7.6104,7.6104,7.6104,7.5151,7.4599,7.4599,7.4047,7.3746,7.3746,7.3746,7.4022,7.4599,7.4599,7.49,7.5451,7.5451,7.5451,3.2394,3.3589,3.5196,3.8287,4.1716,4.5307,4.9003,5.2251,5.4813,5.591,5.6714,5.6965,5.6061,0.0,0.0,0.0,0.0,0.0,0.0,0.0,0.0,0.0,0.0,0.0,0.0,0.0,0.0,0.0,0.0,0.0,0.0,0.0,0.0,0.0,7.2441,7.2365,7.219,7.219,7.219,7.219,7.2365,7.2541,7.2717,7.2717,7.2717,7.2717,7.2717,7.2717,7.2717,7.2717,7.2717,7.2767,7.3368,7.3594,7.3669,7.4222,7.4499,7.47,7.5052,7.5327,7.5552,7.5954,7.6104,7.6104,7.6104,7.6104,7.6104,7.6104,7.6104,7.6104,7.6104,7.6104,7.6104,7.6104,7.6104,7.6104,7.6104,7.6104,7.6104,7.6104,7.6104,7.6104,7.6104,7.6104,7.6104,7.6104,7.6104,7.6104,7.6104,7.6104,7.6104,7.6104,7.6104,7.6104,7.6104,7.6104,7.6104,7.6104,7.5703,7.5402,7.5202,7.4674,7.4398,7.4398,7.4398,7.4674,7.5202,7.5202,7.5527,7.6104,7.6104,7.6104,3.3254,3.4243,3.5777,3.7991,4.1229,4.5321,5.087,5.5139,5.8227,5.9332,6.0457,6.0733,5.9037,0.0,0.0,0.0,0.0,0.0,0.0,0.0,0.0,0.0,0.0,0.0,0.0,0.0,0.0,0.0,0.0,0.0,0.0,0.0,0.0,0.0,7.1912,7.1636,7.1106,7.1106,7.1106,7.1106,7.1636,7.2164,7.2692,7.2717,7.2717,7.2717,7.2717,7.2717,7.2717,7.2717,7.2717,7.2767,7.3368,7.3594,7.3669,7.4222,7.475,7.5202,7.5202,7.5603,7.6104,7.6104,7.6104,7.6104,7.6104,7.6104,7.6104,7.6104,7.6104,7.6104,7.6104,7.6104,7.6104,7.6104,7.6104,7.6104,7.6104,7.6104,7.6104,7.6104,7.6104,7.6104,7.6104,7.6104,7.6104,7.6104,7.6104,7.6104,7.6104,7.6104,7.6104,7.6104,7.6104,7.6104,7.6104,7.6104,7.6104,7.6104,7.6104,7.5828,7.5252,7.47,7.4398,7.4398,7.4398,7.4674,7.5202,7.5202,7.5527,7.6104,7.6104,7.6104,3.5158,3.6528,3.8365,4.1893,4.5363,4.9113,5.3909,5.7072,6.0111,6.3998,6.4425,6.345,6.1416,0.0,0.0,0.0,0.0,0.0,0.0,0.0,0.0,0.0,0.0,0.0,0.0,0.0,0.0,0.0,0.0,0.0,0.0,0.0,0.0,0.0,7.1912,7.1636,7.1106,7.1106,7.1106,7.1106,7.1282,7.161,7.2139,7.2516,7.2717,7.2717,7.2717,7.2717,7.2717,7.2717,7.2717,7.2792,7.3771,7.4171,7.4297,7.5251,7.5703,7.5828,7.5828,7.5954,7.6104,7.6104,7.6104,7.6104,7.6104,7.6104,7.6104,7.6104,7.6104,7.6104,7.6104,7.6104,7.6104,7.6104,7.6104,7.6104,7.6104,7.6104,7.6104,7.6104,7.6104,7.6104,7.6104,7.6104,7.6104,7.6104,7.6104,7.6104,7.6104,7.6104,7.6104,7.6104,7.6104,7.6104,7.6104,7.6104,7.6104,7.6104,7.6104,7.6029,7.5853,7.5678,7.5602,7.5602,7.5602,7.5678,7.5828,7.5828,7.5929,7.6104,7.6104,7.6104,3.6854,3.8809,4.1179,4.4976,4.8937,5.3457,5.9458,6.1667,0.0,0.0,6.7414,6.6061,6.4304,0.0,0.0,0.0,0.0,0.0,0.0,0.0,0.0,0.0,0.0,0.0,0.0,0.0,0.0,0.0,0.0,0.0,0.0,0.0,0.0,0.0,7.1382,7.0983,7.043,7.0407,7.0407,7.043,7.0679,7.1056,7.161,7.2139,7.2491,7.2717,7.2717,7.2717,7.2717,7.2717,7.2717,7.2792,7.372,7.4198,7.4499,7.5402,7.5878,7.6104,7.6104,7.6104,7.6104,7.6104,7.6104,7.6104,7.6104,7.6104,7.6104,7.6104,7.6104,7.6104,7.6104,7.6104,7.6104,7.6104,7.6104,7.6104,7.6104,7.6104,7.6104,7.6104,7.6104,7.6104,7.6104,7.6104,7.6104,7.6104,7.6104,7.6104,7.6104,7.6104,7.6104,7.6104,7.6104,7.6104,7.6104,7.6104,7.6104,7.6104,7.6104,7.6104,7.6104,7.6104,7.6104,7.6104,7.6104,7.6104,7.6104,7.6104,7.6104,7.6104,7.6104,7.6104,3.828,4.106,4.4131,4.7581,5.2352,5.8297,6.6162,6.7615,6.7891,6.9948,0.0,6.85,6.7439,0.0,0.0,0.0,0.0,0.0,0.0,0.0,0.0,0.0,0.0,0.0,0.0,0.0,0.0,0.0,0.0,0.0,0.0,0.0,0.0,7.1031,7.0554,7.0026,6.9406,6.9406,6.9406,0.0,6.9953,7.0503,7.1056,7.1636,7.219,7.2717,7.2717,7.2717,7.2717,7.2717,7.2717,7.2767,7.3368,7.3895,7.4398,7.5001,7.5552,7.6029,7.6079,7.6104,7.6104,7.6104,7.6104,7.6104,7.6104,7.6104,7.6104,7.6104,7.6104,7.6104,7.6104,7.6104,7.6104,7.6104,7.6104,7.6104,7.6104,7.6104,7.6104,7.6104,7.6104,7.6104,7.6104,7.6104,7.6104,7.6104,7.6104,7.6104,7.6104,7.6104,7.6104,7.6104,7.6104,7.6104,7.6104,7.6104,7.6104,7.6104,7.6104,7.6104,7.6104,7.6104,7.6104,7.6104,7.6104,7.6104,7.6104,7.6104,7.6104,7.6104,7.6104,7.6104,3.8916,4.2634,4.6687,5.1297,5.7543,6.3697,6.8073,6.9325,6.9825,7.0729,7.0706,7.0229,6.9102,0.0,0.0,0.0,0.0,0.0,0.0,0.0,0.0,0.0,0.0,0.0,0.0,0.0,0.0,0.0,0.0,0.0,0.0,0.0,0.0,7.0501,7.0376,7.0026,6.9406,6.9406,6.9406,0.0,6.9529,6.9903,7.0503,7.146,7.219,7.2717,7.2717,7.2717,7.2717,7.2717,7.2717,7.2767,7.3368,7.3669,7.3895,7.485,7.5277,7.5453,7.5929,7.6104,7.6104,7.6104,7.6104,7.6104,7.6104,7.6104,7.6104,7.6104,7.6104,7.6104,7.6104,7.6104,7.6104,7.6104,7.6104,7.6104,7.6104,7.6104,7.6104,7.6104,7.6104,7.6104,7.6104,7.6104,7.6104,7.6104,7.6104,7.6104,7.6104,7.6104,7.6104,7.6104,7.6104,7.6104,7.6104,7.6104,7.6104,7.6104,7.6104,7.6104,7.6104,7.6104,7.6104,7.6104,7.6104,7.6104,7.6104,7.6104,7.6104,7.6104,7.6104,7.6104,3.9952,4.4417,4.964,5.7041,6.2315,6.6485,6.9526,7.0455,7.0905,7.1711,7.1661,7.1234,0.0,0.0,0.0,0.0,0.0,0.0,0.0,0.0,0.0,0.0,0.0,0.0,0.0,0.0,0.0,0.0,0.0,7.0579,7.0325,7.028,7.028,7.03,7.0026,6.9705,6.9406,6.9406,6.9406,6.9406,6.9406,6.9855,7.0704,7.151,7.219,7.2717,7.2717,7.2717,7.2717,7.2717,7.2717,7.2742,7.3067,7.3343,7.3694,7.4524,7.4976,7.5302,7.5878,7.6104,7.6104,7.6104,7.6104,7.6104,7.6104,7.6104,7.6104,7.6104,7.6104,7.6104,7.6104,7.6104,7.6104,7.6104,7.6104,7.6104,7.6104,7.6104,7.6104,7.6104,7.6104,7.6104,7.6104,7.6104,7.6104,7.6104,7.6104,7.6104,7.6104,7.6104,7.6104,7.6104,7.6104,7.6104,7.6104,7.6104,7.6104,7.6104,7.6104,7.6104,7.6104,7.6104,7.6104,7.6104,7.6104,7.6104,7.6104,7.6104,7.6104,7.6104,7.6104,7.6104,4.0678,4.6441,5.3206,6.2365,6.5882,6.7841,7.0503,7.1106,7.1384,7.2466,7.234,7.1887,0.0,0.0,0.0,0.0,0.0,0.0,0.0,0.0,0.0,0.0,0.0,0.0,0.0,0.0,0.0,0.0,0.0,7.0127,7.0127,6.9679,6.9629,7.0127,6.9654,6.9406,6.9406,6.9406,6.9406,6.9406,6.9406,7.0006,7.1131,7.156,7.2113,7.2717,7.2717,7.2717,7.2717,7.2717,7.2717,7.2717,7.2717,7.2993,7.3519,7.4147,7.4674,7.5151,7.5853,7.6104,7.6104,7.6104,7.6104,7.6104,7.6104,7.6104,7.6104,7.6104,7.6104,7.6104,7.6104,7.6104,7.6104,7.6104,7.6104,7.6104,7.6104,7.6104,7.6104,7.6104,7.6104,7.6104,7.6104,7.6104,7.6104,7.6104,7.6104,7.6104,7.6104,7.6104,7.6104,7.6104,7.6104,7.6104,7.6104,7.6179,7.6255,7.6255,7.6305,7.633,7.6255,7.6255,7.6205,7.6104,7.6104,7.6104,7.6104,7.6104,7.6104,7.6104,7.6104,7.6104,4.0073,4.8946,5.8152,6.3797,6.6438,6.8271,7.0579,7.1106,7.1384,0.0,7.2641,7.2415,0.0,0.0,0.0,0.0,0.0,0.0,0.0,0.0,0.0,0.0,0.0,0.0,0.0,0.0,0.0,0.0,6.9506,6.9506,6.9506,6.9431,6.9431,6.9506,6.9431,6.9406,6.9406,6.9406,6.9406,6.9406,6.9406,7.0006,7.1106,7.1182,7.1761,7.2717,7.2717,7.2717,7.2717,7.2717,7.2717,7.2717,7.2717,7.2742,7.2943,7.3997,7.4449,7.4674,7.5728,7.6104,7.6104,7.6104,7.6104,7.6104,7.6104,7.6104,7.6104,7.6104,7.6104,7.6104,7.6104,7.6104,7.6104,7.6104,7.6104,7.6104,7.6104,7.6104,7.6104,7.6104,7.6104,7.6104,7.6104,7.6104,7.6104,7.6104,7.6104,7.6104,7.6104,7.6104,7.6104,7.6104,7.6104,7.6104,7.6104,7.6506,7.6783,7.6783,7.7235,7.7285,7.6808,7.6783,7.6557,7.6104,7.6104,7.6104,7.6104,7.6104,7.6104,7.6104,7.6104,7.6104,4.3212,5.1574,5.9156,6.4429,6.7015,6.8748,7.0656,7.1309,7.1761,7.2541,7.2717,7.2541,0.0,0.0,0.0,0.0,0.0,0.0,0.0,0.0,0.0,0.0,0.0,0.0,0.0,0.0,0.0,0.0,6.9406,6.9406,6.9406,6.9406,6.9406,6.9406,6.9406,6.9406,6.9406,6.9406,6.9406,6.9406,6.9406,6.983,7.0654,7.0956,7.1686,7.2717,7.2717,7.2717,7.2717,7.2717,7.2717,7.2717,7.2717,7.2717,7.2842,7.3972,7.4398,7.4573,7.5703,7.6104,7.6104,7.6104,7.6104,7.6104,7.6104,7.6104,7.6104,7.6104,7.6104,7.6104,7.6104,7.6104,7.6104,7.6104,7.6104,7.6104,7.6104,7.6104,7.6104,7.6104,7.6104,7.6104,7.6104,7.6104,7.6205,7.6481,7.6305,7.623,7.6506,7.6305,7.6104,7.6104,7.6104,7.623,7.6506,7.6758,7.7034,7.731,7.7561,7.7586,7.736,7.7059,7.6783,7.6557,7.6255,7.6104,7.6104,7.6104,7.6104,7.6104,7.6104,7.6104,4.501,5.1791,5.7499,6.2873,6.5563,6.7471,6.9574,7.0681,7.1487,0.0,7.2616,7.2591,7.2164,0.0,0.0,0.0,0.0,0.0,0.0,0.0,0.0,0.0,0.0,0.0,0.0,0.0,0.0,0.0,6.9406,6.9406,6.9406,6.9406,6.9406,6.9406,6.9406,6.9406,6.9406,6.9406,6.9406,6.9406,6.9406,6.9705,7.0325,7.0704,7.1485,7.2516,7.2641,7.2717,7.2717,7.2717,7.2717,7.2717,7.2717,7.2717,7.2842,7.3972,7.4398,7.4573,7.5703,7.6104,7.6104,7.6104,7.6104,7.6104,7.6104,7.6104,7.6104,7.6104,7.6104,7.6104,7.6104,7.6104,7.6104,7.6104,7.6104,7.6104,7.6104,7.6104,7.6104,7.6104,7.623,7.628,7.6129,7.623,7.6381,7.6657,7.638,7.6305,7.6833,7.6531,7.638,7.6481,7.6506,7.6657,7.7084,7.7235,7.7461,7.7888,7.8038,7.8063,7.7913,7.7511,7.7235,7.7109,7.6707,7.6356,7.6104,7.6104,7.6104,7.6104,7.6104,7.6179,4.2911,4.7773,5.2846,5.7844,6.0733,6.3199,6.6485,6.8399,7.0006,7.161,7.234,7.2692,7.2666,7.2692,0.0,0.0,0.0,0.0,0.0,0.0,0.0,0.0,0.0,0.0,0.0,0.0,0.0,0.0,6.9406,6.9406,6.9406,6.9406,6.9406,6.9406,6.9406,6.9406,6.9406,6.9406,6.9406,6.9406,6.9406,6.9705,7.03,7.035,7.093,7.1987,7.2466,7.2717,7.2717,7.2717,7.2717,7.2717,7.2717,7.2717,7.2842,7.3972,7.4398,7.4573,7.5703,7.6104,7.6104,7.6104,7.6104,7.6104,7.6104,7.6104,7.6104,7.6104,7.6104,7.6104,7.6104,7.6104,7.6104,7.6104,7.6104,7.6104,7.6104,7.6104,7.6104,7.6104,7.6506,7.6707,7.6205,7.6506,7.6682,7.623,7.6129,7.6305,7.6833,7.6883,7.7059,7.7561,7.7611,7.7637,7.7662,7.8113,7.8414,7.8465,7.8992,7.9043,7.8465,7.8414,7.8163,7.7662,7.7637,7.7134,7.6104,7.6104,7.6104,7.6104,7.6104,7.6356,3.922,4.3463,4.8134,5.2796,5.6394,5.9765,6.3454,6.6162,6.8522,7.0882,7.1811,7.229,7.2641,7.2717,7.2717,0.0,0.0,0.0,0.0,0.0,0.0,0.0,0.0,0.0,0.0,0.0,0.0,0.0,0.0,6.9406,6.9406,6.9406,6.9406,6.9406,6.9406,6.9564,6.9899,7.0212,7.019,6.9899,6.9899,6.9867,6.973,7.0127,7.0704,7.141,7.1962,7.2365,7.2717,7.2717,7.2717,7.2717,7.2717,7.2717,7.2842,7.3972,7.4398,7.4573,7.5703,7.6104,7.6104,7.6104,7.6104,7.6104,7.6104,7.6104,7.6104,7.6104,7.6104,7.6104,7.6104,7.6104,7.6104,7.6104,7.6356,7.6607,7.6607,7.6355,7.6205,7.6531,7.6758,7.6958,7.7109,7.7009,7.6958,7.7084,7.6531,7.6406,7.7285,7.7134,7.7109,7.7637,7.7712,7.7837,7.8163,7.8389,7.8691,7.9043,7.9269,7.9294,7.9093,7.8691,7.8414,7.8214,7.7888,7.7511,7.7134,7.7134,7.7134,7.7134,7.7134,7.7235,3.6245,3.9584,4.3374,4.7496,5.1122,5.4727,5.8811,6.2345,6.5706,6.9047,7.0604,7.1585,7.229,7.2415,7.2491,7.2666,0.0,0.0,0.0,0.0,0.0,0.0,0.0,0.0,0.0,0.0,0.0,0.0,0.0,0.0,6.9406,6.9406,6.9496,6.9676,6.9676,6.9924,7.0414,7.0726,7.0726,7.0414,7.0257,7.0011,6.9676,6.9918,7.0403,7.1131,7.146,7.2037,7.2717,7.2717,7.2717,7.2717,7.2717,7.2717,7.2842,7.3972,7.4398,7.4573,7.5703,7.6104,7.6104,7.6104,7.6104,7.6104,7.6104,7.6104,7.6104,7.6104,7.6104,7.6104,7.6104,7.6104,7.6154,7.633,7.6632,7.6958,7.7134,7.6883,7.6732,7.7109,7.731,7.7486,7.7662,7.7561,7.7486,7.7662,7.7109,7.6958,7.7862,7.7662,7.7637,7.8214,7.8264,7.8415,7.8792,7.8791,7.8967,7.9369,7.9394,7.9394,7.9394,7.9018,7.8791,7.8791,7.8465,7.8164,7.7963,7.7611,7.7511,7.7687,7.7511,7.7611,0.0,0.0,0.0,4.192,4.4805,4.8027,5.2427,5.6878,6.1366,6.5907,6.8595,7.0503,7.1636,7.1887,7.2062,7.2566,7.2666,0.0,0.0,0.0,0.0,0.0,0.0,0.0,0.0,0.0,0.0,0.0,6.9752,6.9406,6.9428,6.9428,6.9676,7.0168,7.0212,7.0458,7.0929,7.0926,7.0926,7.0929,7.0458,7.0235,7.019,6.9674,7.0076,7.1152,7.1152,7.1757,7.2715,7.2717,7.2717,7.2717,7.2717,7.2717,7.2842,7.3972,7.4398,7.4573,7.5703,7.6104,7.6104,7.6104,7.6104,7.6104,7.6104,7.6104,7.6104,7.6104,7.6104,7.6104,7.6129,7.6129,7.628,7.6808,7.6933,7.7109,7.7611,7.7737,7.7737,7.7737,7.8138,7.8339,7.7837,7.8189,7.8314,7.7812,7.7712,7.7888,7.8414,7.849,7.8716,7.9319,7.9394,7.9394,7.9394,7.9394,7.9394,7.9394,7.9394,7.9394,7.9394,7.9394,7.9394,7.9394,7.9394,7.9118,7.8515,7.7461,7.721,7.7687,7.7185,7.7511,3.1602,0.0,0.0,0.0,0.0,0.0,0.0,5.118,5.6451,6.1738,6.5183,6.797,7.0302,7.1056,7.1359,7.151,7.1535,7.1535,0.0,0.0,0.0,0.0,0.0,0.0,0.0,0.0,0.0,0.0,6.9707,6.9586,6.9944,6.9966,7.0033,7.019,7.0863,7.1284,7.1417,7.1748,7.1748,7.1417,7.1259,7.1015,7.0681,7.0548,7.1118,7.2189,7.2189,7.2595,7.3261,7.2858,7.2717,7.2717,7.2717,7.2717,7.2842,7.3972,7.4398,7.4573,7.5703,7.6104,7.6104,7.6104,7.6104,7.6104,7.6104,7.6104,7.6104,7.6104,7.6104,7.6205,7.6582,7.6958,7.7285,7.7436,7.7787,7.8114,7.8264,7.8616,7.8792,7.8339,7.8389,7.859,7.8867,7.8691,7.844,7.8289,7.7963,7.7888,7.8414,7.849,7.8716,7.9319,7.9394,7.9394,7.9394,7.9394,7.9394,7.9394,7.9394,7.9394,7.9394,7.9394,7.9394,7.9394,7.9394,7.9319,7.9143,7.8415,7.7938,7.7712,7.7963,7.8465,0.0,0.0,0.0,0.0,0.0,0.0,4.1943,4.6687,5.2009,0.0,6.104,6.4203,6.7037,6.7816,6.7919,6.7693,6.8042,6.8996,7.0855,0.0,0.0,0.0,0.0,0.0,0.0,7.0611,7.0584,7.0548,7.023,7.0145,7.0481,7.0302,7.0369,7.077,7.1303,7.1704,7.1902,7.2166,7.2166,7.1902,7.1704,7.1461,7.1196,7.097,7.1522,7.2602,7.2602,7.3056,7.3752,7.3236,7.2906,7.2717,7.2717,7.2842,7.3168,7.4072,7.4549,7.485,7.5778,7.6104,7.6104,7.6104,7.6104,7.6104,7.6104,7.6104,7.6104,7.6104,7.628,7.6506,7.6808,7.7285,7.7762,7.7988,7.8264,7.8565,7.8842,7.9143,7.9294,7.8942,7.8892,7.8992,7.9319,7.9118,7.8892,7.8892,7.8616,7.8515,7.8842,7.8892,7.9018,7.9344,7.9394,7.9394,7.9394,7.9394,7.9394,7.9394,7.9394,7.9394,7.9394,7.9394,7.9394,7.9394,7.9394,7.9269,7.9018,7.8465,7.8013,7.7712,7.8515,7.9068,3.323,0.0,0.0,0.0,0.0,0.0,3.8818,4.2897,4.7741,0.0,5.6212,5.9357,6.2245,6.2822,6.2697,6.2149,6.3124,6.548,6.9926,7.0654,0.0,0.0,0.0,0.0,7.0968,7.0976,7.0994,7.1039,7.1007,7.0948,7.0882,7.0548,7.0726,7.1572,7.166,7.188,7.2297,7.2297,7.2297,7.2297,7.188,7.1682,7.166,7.1262,7.1679,7.2761,7.2761,7.3355,7.424,7.3752,7.3259,7.2788,7.2715,7.3068,7.3669,7.4222,7.475,7.5302,7.5878,7.6104,7.6104,7.6104,7.6104,7.6104,7.6104,7.6104,7.6104,7.6104,7.6531,7.6984,7.6984,7.7461,7.8013,7.849,7.859,7.8766,7.9269,7.9394,7.9394,7.9394,7.9394,7.9394,7.9394,7.9394,7.9394,7.9394,7.9394,7.9394,7.9394,7.9394,7.9394,7.9394,7.9394,7.9394,7.9394,7.9394,7.9394,7.9394,7.9394,7.9394,7.9394,7.9394,7.9394,7.9394,7.9319,7.9018,7.8414,7.7938,7.7737,7.7812,7.8817,7.9319,3.4993,3.5456,3.5718,0.0,0.0,0.0,0.0,3.8856,4.2822,4.6517,4.9891,5.3181,5.6438,5.7374,5.7606,5.7506,5.9182,6.2019,6.6463,6.7869,6.8731,0.0,0.0,0.0,7.0245,7.0634,7.1083,7.1461,7.1469,7.1307,7.0904,7.1174,7.1417,7.1594,7.1968,7.221,7.2297,7.2297,7.2297,7.2297,7.221,7.2166,7.2166,7.2078,7.2659,7.373,7.373,7.4154,7.4802,7.4289,7.3775,7.3308,7.2882,7.3068,7.3669,7.4222,7.475,7.5302,7.5878,7.6104,7.6104,7.6104,7.6104,7.6104,7.6104,7.6104,7.6104,7.6104,7.6808,7.7536,7.7536,7.8289,7.9093,7.9193,7.9218,7.9243,7.9369,7.9394,7.9394,7.9394,7.9394,7.9394,7.9394,7.9394,7.9394,7.9394,7.9394,7.9394,7.9394,7.9394,7.9394,7.9394,7.9394,7.9394,7.9394,7.9394,7.9394,7.9394,7.9394,7.9394,7.9394,7.9394,7.9394,7.9394,7.8917,7.8415,7.7862,7.7762,7.7938,7.8339,7.8565,7.8942,3.7199,3.7412,3.7374,3.6232,0.0,0.0,0.0,3.75,4.0489,4.3291,4.5799,4.8369,5.1147,5.1875,5.2059,5.2059,5.4185,5.6972,6.0286,6.4538,6.7703,6.8782,0.0,0.0,6.9999,7.049,7.1125,7.1898,7.1726,7.1616,7.1616,7.1616,7.1704,7.1946,7.2427,7.2716,7.2716,7.3003,7.3003,7.2716,7.2716,7.2559,7.2323,7.2585,7.3186,7.4022,7.4336,7.4778,7.5285,7.4521,7.4079,7.3775,7.3,7.3219,7.4046,7.4298,7.4925,7.5678,7.5979,7.6104,7.6104,7.6104,7.6104,7.6104,7.6104,7.6104,7.6104,7.6104,7.6883,7.7712,7.7712,7.854,7.9394,7.9394,7.9394,7.9394,7.9394,7.9394,7.9394,7.9394,7.9394,7.9394,7.9394,7.9394,7.9394,7.9394,7.9394,7.9394,7.9394,7.9394,7.9394,7.9394,7.9394,7.9394,7.9394,7.9394,7.9394,7.9394,7.9394,7.9394,7.9394,7.9394,7.9394,7.9394,7.9093,7.8817,7.854,7.854,7.8239,7.7712,7.7988,7.8264,0.0,0.0,0.0,0.0,0.0,3.7036,0.0,0.0,0.0,4.0842,4.2333,0.0,0.0,0.0,0.0,0.0,0.0,0.0,0.0,5.9812,0.0,6.7056,0.0,0.0,6.9282,6.9933,7.0685,7.1548,7.127,7.133,7.1936,7.1712,7.1794,7.2275,7.282,7.3108,7.3108,7.3709,7.3761,7.3291,7.316,7.2925,7.2637,7.2977,7.35,7.4205,7.4702,7.5199,7.563,7.473,7.4286,7.41,7.3093,7.3394,7.4398,7.4398,7.5101,7.6104,7.6104,7.6104,7.6104,7.6104,7.6104,7.6104,7.6104,7.6104,7.6104,7.6104,7.6883,7.7712,7.7712,7.854,7.9394,7.9394,7.9394,7.9394,7.9394,7.9394,7.9394,7.9394,7.9394,7.9394,7.9394,7.9394,7.9394,7.9394,7.9394,7.9394,7.9394,7.9394,7.9394,7.9394,7.9394,7.9394,7.9394,7.9394,7.9394,7.9394,7.9394,7.9394,7.9394,7.9394,7.9394,7.9394,7.9269,7.9218,7.9218,7.9118,7.8491,7.7385,7.7812,7.8038,0.0,0.0,0.0,0.0,3.8668,0.0,0.0,0.0,3.6896,3.7612,0.0,0.0,0.0,0.0,0.0,0.0,0.0,0.0,4.8385,5.2,5.6571,6.2387,6.456,0.0,0.0,6.8122,6.9056,6.9197,6.9155,6.9599,7.0729,7.1209,7.1683,7.2271,7.282,7.3108,7.3108,7.3709,7.397,7.3892,7.3369,7.3369,7.3787,7.3317,7.3735,7.4807,7.4885,7.5199,7.5675,7.5149,7.4614,7.41,7.3093,7.3394,7.4398,7.4398,7.5101,7.6104,7.6104,7.6104,7.6104,7.6104,7.6104,7.6104,7.6104,7.6104,7.6104,7.6104,7.6883,7.7712,7.7712,7.854,7.9394,7.9394,7.9394,7.9394,7.9394,7.9394,7.9394,7.9394,7.9394,7.9394,7.9394,7.9394,7.9394,7.9394,7.9394,7.9394,7.9394,7.9394,7.9394,7.9394,7.9394,7.9394,7.9394,7.9394,7.9394,7.9394,7.9394,7.9394,7.9394,7.9394,7.9394,7.9394,7.8866,7.859,7.859,7.8139,7.8314,7.9119,7.9168,7.9219,0.0,0.0,0.0,0.0,0.0,0.0,0.0,0.0,3.7399,0.0,0.0,0.0,0.0,0.0,0.0,0.0,0.0,0.0,0.0,0.0,5.1098,0.0,0.0,0.0,0.0,0.0,0.0,0.0,6.7357,6.8011,6.9479,7.0729,7.1513,7.1775,7.2977,7.363,7.363,7.4545,7.481,7.4519,7.4284,7.4101,7.3996,7.4101,7.4441,7.4937,7.5251,7.5489,7.5675,7.5195,7.4872,7.4544,7.3541,7.3657,7.4398,7.4398,7.5101,7.6104,7.6104,7.6104,7.6104,7.6104,7.6104,7.6104,7.6104,7.6104,7.6104,7.6104,7.6657,7.731,7.7611,7.8289,7.8967,7.9319,7.9394,7.9394,7.9394,7.9394,7.9394,7.9394,7.9394,7.9394,7.9394,7.9394,7.9394,7.9394,7.9394,7.9394,7.9394,7.9394,7.9394,7.9394,7.9394,7.9394,7.9394,7.9394,7.9394,7.9394,7.9394,7.9394,7.9394,7.9394,7.9394,7.9394,7.9143,7.9018,7.9018,7.8792,7.8917,7.9369,7.8716,7.8415,4.9264,0.0,0.0,0.0,0.0,0.0,0.0,0.0,0.0,0.0,0.0,0.0,0.0,0.0,0.0,0.0,0.0,0.0,0.0,0.0,0.0,0.0,0.0,0.0,0.0,0.0,0.0,0.0,0.0,6.5684,6.7525,6.9584,7.086,7.1173,7.2846,7.3761,7.3761,7.4888,7.5303,7.4911,7.4911,7.4754,7.4493,7.478,7.499,7.5146,7.5516,7.5698,7.5675,7.5308,7.5204,7.5125,7.4288,7.4314,7.4793,7.4521,7.5101,7.6104,7.6104,7.6104,7.6104,7.6104,7.6104,7.6104,7.6104,7.6104,7.6104,7.6104,7.6506,7.6984,7.736,7.7988,7.859,7.9043,7.9269,7.9394,7.9394,7.9394,7.9394,7.9394,7.9394,7.9394,7.9394,7.9394,7.9394,7.9394,7.9394,7.9394,7.9394,7.9394,7.9394,7.9394,7.9394,7.9394,7.9394,7.9394,7.9394,7.9394,7.9394,7.9394,7.9394,7.9394,7.9394,7.9394,7.9394,7.9394,7.9394,7.9394,7.9394,7.9369,7.854,7.8164,0.0,0.0,0.0,4.5964,0.0,0.0,0.0,0.0,3.8869,0.0,0.0,0.0,0.0,0.0,0.0,0.0,0.0,0.0,0.0,0.0,0.0,0.0,0.0,0.0,0.0,5.8915,5.9811,0.0,6.0935,0.0,6.4521,6.7343,6.9427,7.0598,7.2245,7.3134,7.3134,7.4336,7.4937,7.4911,7.4911,7.5172,7.562,7.5146,7.5176,7.5695,7.5672,7.5698,7.5698,7.5698,7.5712,7.5717,7.5227,7.5397,7.5832,7.4768,7.5101,7.6104,7.6104,7.6104,7.6104,7.6104,7.6104,7.6104,7.6104,7.6104,7.6104,7.6104,7.6506,7.6908,7.6933,7.7712,7.8515,7.8515,7.8967,7.9394,7.9394,7.9394,7.9394,7.9394,7.9394,7.9394,7.9394,7.9394,7.9394,7.9394,7.9394,7.9394,7.9394,7.9394,7.9394,7.9394,7.9394,7.9394,7.9394,7.9394,7.9394,7.9394,7.9394,7.9394,7.9394,7.9394,7.9394,7.9394,7.9394,7.9394,7.9394,7.9394,7.9394,7.9394,7.9344,7.9344,0.0,0.0,5.3283,5.2077,0.0,0.0,0.0,0.0,0.0,0.0,0.0,0.0,0.0,0.0,0.0,0.0,0.0,0.0,0.0,0.0,0.0,0.0,0.0,0.0,0.0,0.0,0.0,0.0,5.7329,0.0,6.2085,6.5691,6.8199,6.9375,7.1805,7.3108,7.3108,7.431,7.4911,7.4911,7.5277,7.5516,7.5672,7.5489,7.5516,7.5698,7.5698,7.5698,7.5698,7.5698,7.5946,7.6235,7.5417,7.571,7.6392,7.5317,7.5427,7.6104,7.6104,7.6104,7.6104,7.6104,7.6104,7.6104,7.6104,7.6104,7.6104,7.6104,7.623,7.6431,7.6808,7.7436,7.8063,7.8414,7.8967,7.9394,7.9394,7.9394,7.9394,7.9394,7.9394,7.9394,7.9394,7.9394,7.9394,7.9394,7.9394,7.9394,7.9394,7.9394,7.9394,7.9394,7.9394,7.9394,7.9394,7.9394,7.9394,7.9394,7.9394,7.9394,7.9394,7.9394,7.9394,7.9394,7.9394,7.9394,7.9394,7.9394,7.9394,7.9394,7.9394,7.9394,6.1227,5.9916,0.0,5.7341,5.4791,0.0,4.8869,0.0,0.0,0.0,0.0,0.0,0.0,0.0,0.0,0.0,0.0,0.0,0.0,0.0,0.0,0.0,0.0,0.0,0.0,0.0,5.1831,5.3138,5.3949,5.5787,0.0,0.0,6.637,6.8152,7.1204,7.282,7.282,7.3996,7.4597,7.4597,7.5333,7.5698,7.5698,7.5698,7.5698,7.5698,7.5698,7.5698,7.5698,7.5698,7.6192,7.683,7.5773,7.6087,7.694,7.5668,7.5578,7.6104,7.6104,7.6104,7.6104,7.6104,7.6104,7.6104,7.6104,7.6104,7.6104,7.6104,7.6104,7.6179,7.6506,7.7159,7.7787,7.8113,7.8817,7.9394,7.9394,7.9394,7.9394,7.9394,7.9394,7.9394,7.9394,7.9394,7.9394,7.9394,7.9394,7.9394,7.9394,7.9394,7.9394,7.9394,7.9394,7.9394,7.9394,7.9394,7.9394,7.9394,7.9394,7.9394,7.9394,7.9394,7.9394,7.9394,7.9394,7.9394,7.9394,7.9394,7.9394,7.9394,7.9394,7.9394]}]]